GFSNGP_925_thetae_000.txt.gz
Theta_e
319 318 317 317 318 318 319 319 321 321 320 319 318 317 317 315 314 312 310 312 312 309 306 301 298 297 296 296 295 294 294 293 293 292 291 290 289 289 288 287 286 286 286 285
317 317 317 318 317 317 317 318 318 319 321 319 317 316 315 313 313 310 310 312 309 306 302 299 297 296 297 296 297 295 294 293 292 291 290 289 288 288 286 286 285 285 285 285
321 317 316 319 318 317 318 317 318 320 319 316 315 314 312 310 310 311 311 307 308 303 300 297 296 298 299 299 296 294 293 292 291 290 289 288 287 286 285 285 285 285 285 285
320 320 323 318 315 315 315 314 314 315 315 314 313 312 312 312 311 310 304 305 306 301 297 297 299 299 298 295 294 293 292 291 290 289 288 287 286 285 284 284 284 284 285 285
322 322 319 316 316 315 314 314 313 314 313 312 312 312 312 311 306 302 300 303 300 298 298 299 300 299 296 294 293 291 291 290 289 288 287 285 285 284 283 283 284 284 284 284
322 322 322 318 315 309 309 316 312 311 313 313 311 314 315 312 306 304 304 305 300 299 300 299 299 297 293 293 292 291 290 288 287 287 285 284 283 283 283 283 284 283 283 282
317 318 319 315 310 309 317 319 312 314 314 314 315 314 312 306 305 304 304 304 299 297 297 298 297 293 292 292 291 289 287 287 287 285 284 283 282 283 283 283 283 282 282 282
318 320 321 313 308 315 315 317 315 315 315 315 313 311 307 304 304 304 303 297 296 298 298 297 297 293 292 291 288 287 287 286 285 284 283 282 282 282 283 283 283 283 282 283
317 319 317 314 313 313 316 315 315 314 314 312 311 310 305 304 304 304 297 297 298 298 297 297 292 291 291 289 287 287 286 286 285 283 282 282 282 282 283 283 282 282 283 284
316 315 315 314 315 315 315 314 313 313 312 310 308 305 303 304 305 298 297 299 297 297 295 293 291 289 289 287 286 286 286 285 284 282 281 281 281 282 282 282 282 282 283 284
315 315 315 314 314 314 313 313 313 310 310 308 305 304 304 304 300 296 297 297 296 294 293 291 290 288 287 286 285 286 284 283 282 281 281 281 281 282 281 281 281 281 282 282
317 315 316 316 313 312 312 312 311 310 309 306 306 305 303 300 295 296 297 296 295 293 291 290 289 288 287 285 284 284 284 283 281 280 281 281 282 282 282 281 280 281 281 280
314 313 312 312 311 311 311 311 311 310 309 307 304 300 296 296 295 297 296 295 292 291 290 289 288 288 286 284 283 281 281 280 280 281 281 281 281 281 282 281 281 281 281 280
311 311 312 311 311 310 310 307 305 305 304 301 299 295 296 296 297 296 295 292 290 290 290 289 288 287 285 283 282 280 279 280 280 280 280 281 280 280 280 280 281 281 281 280
309 310 310 309 307 304 302 301 301 302 303 298 297 296 296 297 296 294 290 289 289 289 288 287 286 286 284 282 281 281 280 280 279 280 280 280 280 280 280 280 280 280 280 280
309 307 305 301 300 300 300 300 301 302 298 296 296 295 295 294 291 290 288 286 289 289 286 284 283 284 283 282 281 281 281 279 278 279 280 280 280 280 280 280 280 280 279 278
303 301 300 300 300 300 300 300 298 297 297 296 295 294 290 288 288 287 287 285 285 285 284 284 285 284 282 281 280 281 281 280 278 280 280 279 279 279 279 279 279 279 279 277
298 299 299 299 299 299 297 296 295 294 294 291 288 287 288 288 289 287 286 284 284 285 285 285 284 283 281 280 279 280 280 279 279 279 279 279 278 279 279 279 279 278 278 277
297 298 298 298 299 298 296 294 293 291 289 288 288 288 287 286 286 285 284 285 285 286 287 285 285 283 281 279 279 279 279 279 279 279 278 278 279 278 278 278 278 278 277 277
296 296 296 297 296 293 294 291 290 289 287 286 285 287 288 286 283 283 284 285 286 287 286 285 284 282 281 280 278 279 279 278 278 278 278 278 278 277 277 277 277 277 276 276
293 294 294 292 292 288 288 287 287 288 286 285 286 287 285 284 283 282 285 289 288 286 285 285 284 283 281 280 278 279 278 278 277 277 277 277 277 277 276 276 276 275 275 275
293 293 292 290 289 289 286 286 286 286 285 285 284 283 283 286 285 285 284 284 287 285 284 285 284 283 281 280 279 278 278 277 277 277 277 276 276 276 276 275 275 275 274 274
292 291 291 289 289 290 287 287 286 286 286 285 285 285 286 285 284 285 287 286 284 285 284 285 284 283 282 279 279 278 278 277 277 276 276 275 275 275 275 274 274 274 274 273
291 290 289 288 287 287 290 288 286 285 285 286 285 285 286 286 286 286 285 284 284 284 285 284 283 283 281 279 279 278 278 277 277 276 275 274 275 274 274 274 274 273 273 272
291 289 287 287 288 289 288 286 286 286 286 287 286 286 285 286 285 285 284 285 285 285 285 283 283 282 280 279 279 278 277 277 277 276 276 275 274 274 274 273 273 273 272 271
289 288 288 288 289 289 288 287 290 288 287 288 288 286 286 285 285 285 285 284 284 284 284 282 281 281 279 279 278 277 277 276 275 275 275 275 274 274 273 273 272 272 271 270
289 288 288 287 287 287 288 289 289 289 286 285 286 286 285 286 286 285 285 284 284 284 284 282 281 280 280 279 278 277 276 276 275 275 275 275 274 274 273 273 272 271 270 270

GFSNGP_925_thetae_003.txt.gz
Theta_e
321 320 319 320 320 320 320 322 324 324 322 321 319 319 318 316 316 314 314 314 313 312 311 311 307 304 302 300 298 297 297 297 297 295 295 294 293 292 292 291 290 289 288 288
320 318 319 320 319 318 318 319 320 320 321 319 318 317 316 315 314 315 314 313 312 310 310 309 304 302 301 298 298 298 299 298 296 295 294 293 292 291 290 289 288 288 288 288
320 319 318 321 320 320 320 319 319 321 320 316 316 315 315 315 315 314 314 313 310 309 309 307 302 300 299 299 300 300 297 296 295 293 292 292 291 290 289 288 288 287 287 287
320 323 324 319 317 317 317 317 317 316 316 315 315 315 315 314 313 312 311 309 307 308 308 303 300 300 300 300 299 297 297 295 293 292 291 291 290 289 288 287 287 287 286 286
325 322 319 317 317 317 317 316 315 315 315 316 315 315 315 314 311 310 308 306 308 306 306 300 300 301 301 299 297 296 294 293 292 291 291 290 288 288 287 286 286 286 285 285
323 323 322 317 316 314 314 318 316 315 316 316 316 317 316 312 311 307 305 307 306 305 300 300 299 299 299 297 295 295 293 292 291 290 289 288 287 287 286 286 285 285 284 284
318 319 318 316 316 313 319 319 317 316 315 315 315 314 313 311 307 305 306 305 303 299 298 300 299 298 296 295 295 293 291 291 290 289 288 287 286 286 285 285 285 285 284 284
319 321 323 315 315 318 318 318 317 316 315 314 314 312 311 306 304 306 305 304 299 299 300 299 298 297 296 295 292 290 290 290 289 288 288 286 285 285 285 284 285 284 284 284
319 320 319 319 317 317 317 317 315 315 314 312 312 312 310 306 306 305 304 300 299 299 299 298 296 294 293 292 290 290 290 289 288 288 287 285 284 284 284 284 284 283 283 284
319 316 317 315 316 317 315 313 313 313 312 312 312 311 309 308 305 304 299 298 300 299 297 296 294 291 291 290 289 289 289 288 287 287 285 284 284 284 284 283 283 283 282 283
317 317 315 315 315 314 313 312 312 312 311 311 310 309 308 306 304 299 297 299 298 297 296 294 293 291 290 289 288 288 288 287 287 285 284 284 284 283 283 283 283 282 282 282
315 315 317 316 313 311 312 311 311 310 307 306 307 307 305 303 299 296 297 298 297 296 294 293 292 290 290 289 288 287 287 287 285 283 283 284 283 283 283 282 282 281 282 281
315 314 314 312 311 311 311 310 306 304 304 303 305 303 300 298 297 297 297 297 296 294 293 292 291 290 289 287 285 284 284 284 283 283 284 283 283 282 282 282 282 282 282 281
313 313 311 310 311 310 306 304 303 302 302 303 300 298 297 297 297 297 297 294 293 292 291 291 290 289 288 287 285 283 283 282 283 283 283 282 282 282 282 282 282 282 282 280
308 309 311 310 308 304 303 302 302 302 303 301 298 297 297 297 297 295 293 291 291 291 290 289 288 288 287 286 284 284 283 283 281 281 282 282 282 282 281 281 281 282 281 280
309 308 306 304 303 303 302 302 302 301 299 298 297 296 296 296 294 292 290 288 290 291 288 286 286 287 286 286 285 285 285 282 281 281 282 282 281 281 281 281 281 281 280 279
304 304 303 302 302 301 301 301 299 297 297 296 295 293 291 290 290 290 289 287 286 286 286 286 287 287 285 285 284 285 284 283 281 282 282 281 281 281 280 280 280 280 280 278
301 301 301 301 301 301 301 299 297 295 296 293 290 289 289 289 290 289 288 286 286 287 287 287 286 285 284 284 282 283 283 282 282 282 281 281 280 280 280 280 280 280 279 278
300 300 300 299 299 300 299 296 296 293 290 289 289 289 288 287 288 287 286 287 287 289 290 287 286 285 285 283 282 283 282 282 281 281 281 280 280 280 279 279 279 279 278 277
299 299 298 297 298 296 296 295 292 291 289 287 287 289 290 289 286 285 286 287 287 288 287 286 285 284 284 283 281 282 282 281 281 281 280 279 279 279 279 278 278 278 277 277
298 297 296 294 294 294 290 289 288 290 288 286 287 288 287 287 286 286 288 291 290 287 286 285 285 286 285 283 281 282 281 280 280 280 279 279 279 279 278 278 277 277 276 276
297 297 295 293 293 292 290 287 288 287 287 287 286 286 287 289 288 287 287 287 287 286 285 286 287 286 285 283 282 281 281 280 279 279 279 279 278 278 278 277 277 276 276 275
297 297 295 293 291 292 291 288 287 288 288 288 288 288 288 288 287 287 288 286 285 285 285 285 285 285 284 282 282 281 280 280 279 279 278 278 277 277 277 276 276 276 275 274
297 296 295 292 290 289 290 290 289 288 287 287 287 287 287 288 287 287 286 285 285 285 285 285 285 284 282 282 282 281 281 280 279 279 278 275 277 276 276 275 275 275 274 273
295 295 292 290 290 289 290 290 289 288 288 289 288 287 286 287 287 287 285 285 285 285 284 284 283 281 280 282 282 281 280 280 279 279 278 277 277 276 276 275 274 274 273 272
294 292 291 290 290 290 291 290 291 291 291 291 289 288 286 286 285 285 285 285 285 285 284 284 283 281 281 282 281 280 280 279 278 277 277 277 276 276 275 275 274 273 273 272
291 290 290 290 289 289 290 291 291 291 289 287 287 286 286 286 285 285 286 285 284 284 284 284 283 282 282 282 281 280 279 279 277 278 277 277 276 276 275 274 274 273 272 271

GFSNGP_925_thetae_006.txt.gz
Theta_e
321 320 320 320 320 320 321 320 321 321 321 320 319 318 317 316 316 315 315 314 313 312 311 310 310 309 305 303 302 300 299 297 297 298 297 296 295 294 293 292 292 291 290 289
320 320 319 319 319 320 319 318 319 320 320 318 317 316 316 316 316 315 314 313 312 311 309 309 309 308 302 301 300 299 298 300 299 298 296 295 294 293 292 292 291 289 289 289
321 318 317 320 318 319 319 318 319 319 318 317 316 316 316 316 315 314 313 312 311 309 308 308 307 303 301 301 301 301 300 298 297 296 295 293 292 292 292 290 289 289 288 288
319 316 322 318 317 316 318 318 317 316 316 316 316 317 315 315 313 312 311 310 309 308 308 307 303 301 301 302 301 298 297 297 297 294 293 292 292 291 289 289 288 288 287 287
321 322 319 317 316 317 317 317 316 317 317 317 316 316 314 313 312 311 309 308 307 307 306 303 301 301 300 300 299 298 297 295 294 293 292 292 290 289 288 287 287 287 286 286
325 322 321 318 315 315 316 318 318 317 317 317 315 316 314 312 311 310 308 307 306 305 303 301 300 300 300 300 299 296 295 294 292 292 291 290 289 288 287 287 286 286 285 285
320 320 318 316 316 316 320 320 316 316 316 315 315 314 312 311 311 309 307 305 305 302 301 300 300 300 298 296 296 295 292 291 291 291 290 289 288 287 286 286 285 285 285 284
316 319 321 316 318 318 317 317 316 315 314 314 313 312 312 311 309 308 306 305 302 301 300 300 299 299 297 295 292 291 291 291 290 289 289 288 287 285 285 285 285 285 284 284
317 318 316 316 316 316 314 316 315 314 313 312 311 311 310 310 308 307 304 301 300 300 300 299 298 295 294 292 291 290 290 290 289 288 288 287 285 285 285 285 284 284 284 283
315 314 315 315 315 314 314 313 312 312 311 310 310 307 307 308 308 304 301 299 299 299 298 297 295 293 291 290 290 290 289 288 288 288 287 285 285 285 284 284 283 283 282 282
313 314 314 314 314 314 313 312 311 310 309 305 305 304 305 306 304 301 297 298 298 298 297 296 294 292 291 290 289 288 288 288 288 287 285 284 285 284 284 283 282 282 282 282
315 314 314 314 314 313 311 311 308 307 304 304 303 305 304 303 300 297 297 298 298 297 295 294 293 292 291 290 288 287 286 287 286 284 284 285 284 284 283 282 282 282 282 282
314 313 313 313 311 310 309 308 305 303 303 304 302 301 300 299 298 297 297 298 297 294 293 292 291 291 290 288 287 285 284 284 284 284 284 284 283 282 282 282 282 282 282 281
311 311 310 309 311 308 306 304 302 302 301 300 300 299 297 298 298 298 297 294 293 293 292 291 290 289 289 288 287 285 284 284 284 283 283 283 282 283 282 282 282 282 282 280
309 309 308 306 305 303 302 302 302 301 299 298 297 297 297 297 297 295 293 290 291 291 290 289 287 287 287 287 286 285 285 284 283 282 282 282 283 282 282 281 281 281 281 279
307 304 303 303 302 302 302 301 301 300 296 296 295 295 295 295 293 293 291 288 287 288 288 286 286 288 287 286 286 286 286 284 283 282 282 282 282 281 281 281 281 281 280 278
304 303 302 302 301 301 301 301 300 297 296 296 294 291 290 289 289 291 290 288 287 286 286 286 286 287 285 285 285 285 285 284 283 283 282 282 281 280 281 280 281 280 279 278
301 300 300 301 300 300 300 300 297 295 295 293 290 289 290 290 289 289 288 287 286 287 288 288 287 286 285 285 284 283 283 283 282 282 282 281 281 281 280 280 279 279 278 277
299 299 298 298 299 299 299 299 297 295 294 291 288 288 288 288 288 287 286 286 287 288 289 288 286 285 284 284 284 282 283 282 281 282 281 280 280 280 279 279 278 278 277 277
297 296 297 298 298 295 294 294 293 293 292 289 288 288 289 289 288 286 286 287 288 288 287 286 285 285 285 284 283 282 283 282 281 281 280 280 280 279 279 278 278 277 276 276
296 297 297 296 296 294 293 292 291 289 290 288 287 288 287 287 287 287 287 287 288 287 286 286 286 286 286 285 283 283 282 281 281 281 280 280 279 279 279 278 277 276 275 275
296 296 296 296 292 292 293 291 288 288 288 288 287 287 287 289 289 288 288 287 286 285 285 284 285 285 286 285 283 283 282 281 280 280 280 279 278 278 277 277 277 276 275 274
296 296 296 296 293 293 293 291 289 288 288 289 288 288 288 288 287 287 287 286 285 285 284 285 285 284 284 283 283 283 282 281 280 280 279 278 278 277 277 276 276 275 274 274
296 296 296 295 294 292 291 290 288 288 288 288 288 288 287 288 288 288 287 285 285 285 285 285 284 283 282 282 283 282 282 281 281 280 279 278 277 277 276 276 275 275 274 273
295 295 294 293 293 292 290 289 290 290 288 288 289 288 287 287 286 286 285 285 285 285 284 285 284 282 281 282 282 282 282 281 280 280 279 278 277 277 276 276 274 273 273 273
296 294 293 293 292 291 290 291 290 291 291 291 290 289 287 286 285 285 285 285 285 284 284 285 284 283 282 282 282 282 281 281 280 278 278 278 277 276 276 275 274 274 273 272
294 292 292 291 290 290 290 291 291 292 290 289 288 287 287 286 285 285 285 285 284 284 284 284 284 284 283 282 282 282 281 280 279 278 278 277 277 277 276 275 274 273 272 271

GFSNGP_925_thetae_009.txt.gz
Theta_e
319 319 319 319 318 318 318 317 318 318 317 316 314 314 314 313 313 313 312 311 310 310 308 307 307 307 305 300 300 300 298 297 298 298 297 296 296 294 294 293 292 292 291 290
319 319 320 318 316 316 316 316 317 317 316 314 312 314 314 313 313 312 312 311 310 309 308 308 307 306 302 301 301 300 300 298 297 297 296 296 295 294 293 292 292 290 289 289
322 317 315 312 313 315 316 314 315 315 315 315 315 315 315 313 312 312 311 310 309 308 307 306 305 301 301 301 302 300 298 297 297 297 295 295 294 292 292 291 289 288 288 287
320 312 320 314 314 313 314 314 314 316 315 315 315 315 313 312 311 310 309 309 307 306 305 303 302 302 301 300 301 298 298 297 296 296 295 293 292 291 290 288 288 287 286 286
317 316 316 315 315 315 313 314 317 316 316 315 314 313 312 312 311 309 309 307 306 306 303 302 301 300 300 299 299 299 296 297 295 292 292 291 290 289 288 287 287 286 286 285
311 313 314 311 313 315 315 317 315 316 316 315 313 312 311 310 310 309 308 307 306 303 301 300 300 300 299 299 298 298 292 291 291 291 291 289 288 288 287 286 285 285 285 285
306 313 311 311 313 316 314 317 314 315 314 314 314 312 311 309 308 308 307 306 302 301 300 300 299 299 298 295 293 292 291 291 291 290 289 288 288 287 285 285 285 285 284 283
307 317 313 313 312 311 312 312 312 312 312 311 311 310 308 306 306 306 305 301 300 299 299 299 299 298 297 291 291 291 290 290 289 288 288 287 286 285 285 285 284 283 283 282
310 309 310 311 310 310 311 311 312 311 310 309 308 307 303 302 304 303 299 298 298 298 299 297 297 293 293 291 290 290 289 289 288 288 287 286 285 284 284 284 283 282 282 281
310 312 311 311 310 310 310 311 310 309 308 306 307 303 301 302 300 298 298 297 297 299 298 297 296 292 291 290 290 289 288 288 287 287 286 284 284 284 284 282 282 281 281 281
312 311 311 310 309 310 310 311 308 305 305 303 303 302 300 299 299 297 296 296 298 298 297 296 293 291 291 290 289 288 287 286 286 285 284 284 284 283 283 282 282 282 282 282
313 311 311 311 309 308 309 306 305 305 301 302 301 300 299 298 297 297 296 297 296 295 293 292 291 291 290 289 288 287 285 284 284 283 284 283 283 282 282 282 282 281 282 281
312 310 310 308 308 308 308 305 302 301 300 299 298 298 297 296 297 297 296 295 293 293 292 291 290 289 289 288 288 286 285 283 284 283 282 282 282 282 282 282 280 281 281 280
310 310 309 307 304 303 302 301 301 300 298 297 297 297 296 297 296 295 292 292 291 291 290 289 288 287 287 287 287 285 285 285 284 283 282 282 282 282 281 281 280 281 280 279
308 305 303 302 301 301 300 300 300 299 297 296 295 295 294 295 294 293 292 290 288 290 290 287 287 287 287 286 286 286 285 285 284 282 282 282 282 281 280 280 280 280 279 278
303 301 300 300 300 300 299 298 299 298 295 295 294 293 292 290 289 289 290 289 288 287 286 286 286 287 287 285 285 285 284 284 283 283 283 282 281 280 280 280 279 279 278 277
300 300 299 298 298 298 298 297 298 295 294 293 293 291 289 289 289 289 288 288 287 286 286 287 287 287 286 285 284 284 283 283 283 282 282 281 280 280 280 279 278 279 277 276
299 298 296 296 295 296 295 295 295 294 293 294 292 289 288 288 286 288 287 286 286 287 288 289 288 286 285 284 284 283 283 283 282 281 281 280 280 279 279 279 278 277 277 276
296 295 295 295 295 295 294 293 295 294 293 293 290 288 287 288 289 287 286 286 287 287 287 286 286 285 284 284 284 283 282 283 281 281 280 280 280 279 279 278 277 276 276 275
295 295 295 295 295 295 294 294 292 291 291 291 289 287 288 288 287 287 286 287 287 286 286 285 285 285 286 286 284 283 282 282 281 281 280 279 279 279 278 278 277 275 275 274
293 294 293 292 293 295 295 294 290 289 290 289 288 287 287 286 288 287 287 285 286 285 284 284 284 284 285 285 284 283 283 282 281 280 280 279 278 278 277 277 276 275 274 274
293 292 293 293 292 292 293 294 293 290 289 288 288 287 287 288 288 288 287 286 285 284 284 284 284 284 284 283 283 283 282 281 281 280 279 278 278 277 277 275 276 274 274 273
294 294 293 293 293 294 294 292 291 290 289 288 288 288 288 288 287 287 285 285 284 284 284 284 284 283 283 281 282 282 282 281 281 280 279 278 277 276 276 276 275 274 273 273
292 292 293 294 294 292 292 292 291 290 288 288 288 287 287 287 287 287 286 285 284 284 284 284 284 283 282 281 282 282 282 282 281 280 280 278 277 277 276 275 275 274 273 273
292 293 293 294 292 292 292 291 290 289 289 288 288 288 287 286 286 285 285 284 285 284 284 284 284 284 283 282 282 282 282 281 281 280 279 279 278 276 276 275 274 273 273 272
292 292 293 293 292 291 291 290 289 290 289 288 289 288 287 286 286 285 284 285 284 284 284 284 284 283 283 283 282 282 282 281 280 280 278 278 278 276 276 275 274 273 273 271
292 293 292 292 292 291 290 290 290 290 290 290 289 288 286 285 284 284 284 284 284 283 283 283 283 283 284 284 283 282 282 281 280 280 278 278 277 277 276 275 274 273 272 271

GFSNGP_925_thetae_012.txt.gz
Theta_e
316 317 318 319 319 318 318 316 316 316 316 314 315 314 313 312 312 312 311 310 308 307 307 307 307 306 305 301 301 301 300 297 296 297 296 295 294 294 295 296 293 292 291 290
317 317 317 319 318 316 316 315 315 314 314 315 313 312 313 312 312 312 310 310 309 308 307 307 306 304 302 301 301 301 301 299 297 297 296 296 295 294 295 294 292 290 289 288
318 313 314 317 314 314 313 313 312 313 313 314 314 314 313 312 311 311 310 309 307 307 307 306 304 302 301 300 300 299 298 298 298 297 295 294 294 294 293 291 289 288 287 286
315 313 319 315 312 312 312 312 312 315 315 314 313 313 312 311 310 310 309 308 307 307 306 304 302 300 300 299 299 299 298 297 296 296 296 295 293 290 289 288 287 286 286 285
312 316 315 314 313 314 315 314 314 315 314 313 313 312 310 309 309 309 308 307 307 307 304 302 300 300 300 299 298 299 298 296 293 292 291 290 289 288 287 287 285 285 284 284
312 316 316 309 310 314 315 313 314 313 312 312 312 314 312 308 305 305 306 307 306 302 300 300 299 299 298 296 294 293 291 292 292 290 289 288 288 287 285 285 284 284 284 283
301 309 306 308 310 311 306 310 311 311 311 310 313 311 309 305 303 305 304 302 300 299 298 299 299 298 297 291 291 291 291 290 289 288 288 287 286 285 285 284 284 283 283 282
306 311 313 310 311 312 309 308 309 309 310 309 308 306 305 303 301 302 299 299 298 297 298 298 297 297 294 291 291 290 290 289 288 287 287 286 285 284 284 284 283 282 281 281
308 308 307 309 310 308 309 309 308 310 309 306 305 305 303 301 301 299 298 297 296 296 298 297 297 295 292 291 290 290 288 288 287 287 286 285 284 284 283 282 281 281 281 281
310 310 309 309 309 309 308 309 308 306 305 305 304 302 301 299 297 296 296 296 296 297 297 296 295 291 291 290 289 289 288 286 286 285 284 284 284 283 282 281 282 282 281 281
312 311 310 310 308 309 310 306 305 304 304 302 302 300 299 297 296 295 296 296 295 293 293 292 291 290 290 289 288 288 286 285 285 283 283 283 282 282 282 282 282 282 281 282
314 311 311 311 309 308 305 304 304 301 301 301 299 297 297 295 296 297 296 293 294 293 292 292 292 289 289 288 288 287 286 284 284 283 283 282 282 282 282 281 280 280 281 280
313 311 310 308 305 303 302 301 301 301 300 299 297 296 296 295 296 296 294 293 293 292 291 289 289 288 287 287 287 286 285 285 285 284 282 282 282 282 281 281 279 280 280 279
309 310 308 306 304 302 300 300 299 300 299 297 296 295 295 295 295 295 294 293 290 288 290 289 287 286 287 287 286 286 285 285 284 284 282 282 282 281 280 280 279 279 278 278
305 304 304 300 300 300 300 299 298 297 298 296 295 294 293 292 292 291 290 290 289 288 288 287 286 286 287 285 285 285 284 284 283 282 282 282 281 280 280 279 278 279 277 277
301 300 300 299 298 297 297 296 297 297 296 295 294 293 292 292 290 289 289 289 288 287 286 286 286 286 286 285 284 284 283 283 283 282 281 281 280 280 279 279 278 278 277 276
298 297 296 295 295 294 294 294 294 293 294 293 293 294 292 289 288 287 287 287 286 286 287 288 287 286 286 285 284 283 283 283 282 281 281 281 280 279 279 278 277 277 276 275
297 296 295 294 294 293 292 293 293 292 292 293 292 291 288 286 285 287 287 286 287 287 286 285 286 286 285 285 284 283 283 282 282 281 280 280 280 279 278 278 276 276 275 274
295 295 295 294 294 293 292 292 293 293 292 292 290 289 289 287 287 287 286 287 286 286 286 285 285 284 285 285 285 284 282 282 281 281 280 279 279 279 278 277 276 275 274 274
295 295 294 294 294 293 291 293 294 291 291 290 289 288 287 287 287 287 286 285 286 285 284 283 284 284 284 284 284 284 283 282 281 280 280 279 278 278 277 277 276 275 274 273
291 292 292 292 291 292 291 292 292 290 290 290 289 288 288 287 286 287 286 285 285 284 283 283 283 284 284 283 283 283 283 282 281 280 279 279 277 277 276 276 275 274 274 273
292 292 291 290 289 289 291 292 293 292 291 289 288 288 287 286 287 287 287 286 285 284 283 283 283 283 283 282 282 282 282 282 281 280 280 278 278 277 276 275 275 274 273 272
292 291 291 290 290 290 291 292 293 292 291 290 288 288 286 287 287 286 284 285 284 284 283 283 283 283 282 281 281 282 282 282 281 281 280 279 277 276 276 275 275 274 273 272
291 291 290 291 291 289 287 292 292 291 291 289 288 288 287 287 287 286 286 285 284 284 283 284 284 283 283 282 281 282 282 282 281 281 280 279 278 277 276 275 275 273 273 272
291 290 290 290 288 289 291 291 291 290 289 288 288 287 286 286 286 285 284 284 284 284 283 284 284 283 283 283 282 282 282 282 281 280 280 279 278 277 276 275 274 273 273 272
290 290 291 291 291 291 292 291 290 289 288 288 288 288 287 286 285 284 283 284 284 283 283 283 283 283 283 283 284 283 282 282 281 280 279 278 278 277 276 275 274 274 273 272
290 290 290 291 291 291 291 290 288 289 289 289 288 288 287 286 284 284 283 283 283 283 283 282 282 282 282 282 283 283 283 282 281 281 279 278 278 277 276 276 275 274 273 271

GFSNGP_925_thetae_018.txt.gz
Theta_e
312 312 313 315 315 315 315 314 317 315 314 313 311 312 311 310 309 310 310 308 306 307 306 305 305 305 306 304 301 300 299 298 297 295 295 294 294 294 293 293 292 293 291 288
313 312 312 313 313 314 314 314 314 315 314 309 312 310 310 310 310 309 307 306 305 303 301 302 304 304 301 300 300 299 298 297 297 297 296 295 293 293 293 293 294 292 287 286
308 310 309 307 309 312 313 312 311 312 310 311 312 310 308 308 307 306 306 304 302 301 303 303 300 299 299 298 299 298 298 298 297 296 296 295 294 294 293 290 287 286 286 285
307 307 312 311 310 310 311 310 308 308 310 311 310 308 307 305 305 304 303 301 300 302 299 298 296 296 297 298 296 295 295 294 293 293 292 291 290 288 287 287 286 285 284 284
315 313 311 313 310 311 311 310 310 310 312 309 307 306 307 304 302 302 300 300 300 297 296 295 296 297 297 296 293 293 294 293 291 290 289 288 288 287 286 285 284 284 283 283
310 314 314 309 307 312 311 312 309 312 311 309 308 311 310 304 302 300 301 300 298 296 295 295 296 297 297 295 291 293 290 289 288 288 288 287 286 285 284 284 283 283 282 281
312 314 312 307 306 307 309 311 309 311 309 309 309 308 304 302 302 301 299 297 296 295 294 295 296 296 296 295 293 290 290 291 288 287 286 285 285 284 283 283 282 281 281 281
305 309 309 305 309 311 308 307 308 307 306 308 305 302 301 301 301 299 296 295 295 295 295 295 291 292 291 290 289 291 290 288 287 286 285 284 283 283 282 282 281 281 281 280
309 307 306 306 309 307 307 308 306 307 305 303 300 301 300 299 299 297 295 294 295 295 293 291 292 291 291 292 291 289 287 287 285 285 284 283 282 282 282 282 281 281 280 279
310 310 308 310 309 308 307 307 306 305 301 300 300 299 298 298 297 295 294 294 295 294 293 292 292 292 291 290 288 287 286 285 284 284 283 283 282 281 281 281 280 280 280 279
311 312 311 309 308 308 307 303 301 301 300 300 299 298 298 298 295 294 294 294 295 293 293 292 291 290 289 288 287 286 285 285 284 284 284 283 282 281 281 281 280 280 280 279
313 311 311 311 306 303 300 298 297 299 299 299 299 297 297 295 295 294 294 294 294 293 292 291 289 289 288 287 286 286 285 284 284 284 284 282 282 281 281 280 279 279 279 279
312 311 306 303 299 297 296 297 298 299 299 297 297 297 296 294 295 294 293 294 293 292 290 289 288 288 287 286 286 285 284 284 283 283 282 282 281 281 279 280 279 278 277 277
308 305 304 302 301 298 298 297 294 293 293 295 295 295 294 293 293 293 292 293 291 289 288 288 286 286 285 286 285 284 284 283 283 282 282 281 281 280 280 279 277 277 277 276
297 298 300 298 296 293 294 293 292 292 292 292 293 292 292 291 291 292 293 292 289 288 288 286 285 286 285 285 285 284 284 283 282 282 282 281 280 279 279 279 278 277 276 275
296 295 295 295 294 294 293 293 291 290 290 291 291 291 292 291 290 290 290 290 287 287 286 285 286 286 286 285 285 284 283 282 282 282 282 281 280 279 279 278 277 276 275 274
296 296 295 295 294 294 292 291 290 290 290 290 290 290 287 287 287 288 289 289 286 286 285 285 284 284 285 284 284 283 283 283 283 282 281 280 280 279 278 278 277 276 275 274
296 295 295 295 292 291 291 292 292 291 290 290 290 289 289 290 289 289 289 288 286 286 286 284 284 283 283 283 284 283 283 283 283 281 281 280 279 278 278 277 276 275 275 274
293 292 292 292 292 291 291 291 291 291 290 289 288 287 290 290 290 289 288 286 285 285 285 284 283 283 283 283 283 282 281 281 282 281 280 280 279 278 277 277 276 275 274 273
291 291 291 291 291 291 289 289 289 288 289 288 288 287 289 290 290 289 286 285 286 285 284 283 283 283 283 282 282 281 281 282 282 281 280 280 279 278 277 276 276 275 274 273
289 290 290 289 289 289 289 289 288 286 288 287 286 288 290 291 290 287 285 284 286 285 284 283 283 283 282 282 281 281 281 281 282 281 281 280 279 278 277 276 275 275 274 273
290 289 289 289 287 287 289 289 289 288 288 288 287 289 290 289 288 286 286 286 286 285 284 283 283 283 282 282 281 281 281 282 282 282 281 280 279 279 278 276 275 275 274 273
289 289 289 289 288 288 289 288 288 289 288 287 288 290 288 288 286 285 283 287 286 284 284 283 283 283 283 283 282 281 281 281 282 281 281 280 280 279 278 277 276 275 274 273
289 290 289 289 289 287 286 288 289 289 289 289 289 288 287 286 287 287 286 285 285 284 283 283 283 283 283 283 283 283 282 282 281 281 281 280 280 279 278 277 276 275 274 273
290 289 288 288 288 288 288 288 288 289 289 289 289 287 288 287 287 287 286 285 284 284 284 283 283 283 282 282 282 282 282 282 282 282 281 281 280 279 278 277 276 275 274 273
289 288 288 288 288 288 288 288 289 289 289 288 288 288 287 287 286 286 285 285 283 283 283 283 283 282 282 281 281 281 281 281 282 282 282 281 280 279 278 277 277 275 274 273
288 289 287 287 288 288 289 288 289 290 289 288 288 288 288 287 286 285 285 283 283 283 282 283 282 282 281 281 281 280 280 280 281 281 281 282 281 280 279 278 277 276 275 274

GFSNGP_925_thetae_021.txt.gz
Theta_e
314 314 314 315 316 316 317 317 319 317 316 315 314 313 314 312 311 311 311 310 308 305 302 302 303 301 299 299 299 299 299 298 297 296 296 295 294 294 294 294 293 293 293 289
315 313 312 314 314 314 315 316 316 316 317 314 312 313 312 311 310 310 309 307 304 302 303 301 298 297 297 297 298 298 297 297 297 297 296 295 294 294 294 294 293 289 286 285
315 310 311 313 310 313 314 313 315 315 313 312 314 312 311 310 310 307 305 304 302 302 299 297 296 296 297 297 296 296 296 296 295 293 294 293 292 289 288 287 286 286 285 285
316 310 318 313 310 312 313 312 311 310 310 311 313 311 309 308 306 305 303 302 302 299 297 296 295 296 296 296 295 294 294 294 292 290 289 288 288 287 287 286 285 285 284 284
315 315 314 314 312 311 313 313 310 310 312 312 311 309 312 305 303 303 302 301 299 297 296 295 295 295 295 296 295 292 291 290 290 288 288 287 287 286 285 285 284 284 283 283
313 317 318 313 308 312 311 314 309 312 311 311 311 313 312 302 301 300 302 300 297 296 295 294 294 295 296 296 295 291 291 290 290 287 286 286 285 285 284 284 283 283 282 281
314 313 314 310 308 307 314 315 311 311 310 310 311 308 302 301 301 301 301 298 295 295 295 294 293 293 293 292 293 290 291 289 287 287 286 285 284 283 283 283 282 281 281 281
308 312 314 306 309 312 312 309 310 309 309 308 303 301 300 300 300 300 300 297 295 295 294 294 291 291 291 291 291 290 289 287 287 286 284 284 283 283 282 282 282 281 281 281
311 313 308 306 309 309 308 308 307 307 302 299 298 299 299 299 299 299 299 296 294 294 294 293 292 291 292 292 290 289 287 287 285 285 284 283 283 283 282 282 281 281 281 280
310 312 311 310 311 309 307 304 302 301 299 300 297 299 299 299 299 299 298 295 294 294 295 294 293 292 291 289 288 287 287 286 285 285 284 284 283 282 282 282 281 281 280 280
312 312 312 310 309 305 301 299 298 297 298 298 299 299 299 299 298 297 296 295 294 294 294 293 293 291 289 288 287 287 286 285 285 284 283 283 282 282 282 281 280 280 279 279
314 312 313 308 303 300 298 297 297 298 299 298 297 297 297 296 295 294 294 294 294 294 294 293 291 289 288 287 286 286 285 285 284 283 283 282 281 281 280 280 279 278 278 278
313 310 305 302 299 298 297 298 296 296 294 293 293 294 294 294 293 293 293 293 293 293 292 290 288 288 287 286 286 286 284 284 283 283 282 282 281 281 280 279 278 278 277 276
303 304 303 301 300 298 295 294 294 293 292 292 292 292 292 292 292 292 292 292 291 291 290 288 287 286 285 285 285 285 284 283 283 282 282 281 281 280 279 279 278 277 276 275
296 297 297 296 295 296 295 295 294 294 293 292 292 291 291 292 292 291 290 289 289 289 289 287 286 285 285 285 285 284 284 283 282 282 282 281 280 280 279 278 278 277 276 275
296 296 296 295 295 295 295 294 294 294 293 292 291 290 290 289 288 288 289 289 288 288 288 286 285 285 285 284 284 283 283 283 282 282 281 281 280 279 278 278 277 276 276 274
296 295 295 294 294 294 293 292 292 292 292 291 290 289 288 288 288 289 290 290 289 288 286 285 285 284 283 284 283 283 283 283 282 282 281 280 279 279 278 277 277 276 275 273
296 295 294 293 292 292 292 291 291 290 290 290 288 287 285 286 288 290 290 289 288 286 285 285 284 283 283 283 282 282 282 281 281 281 281 280 279 278 277 276 276 275 275 274
292 291 291 290 291 290 290 290 289 289 288 288 287 286 286 286 287 289 289 288 285 284 285 285 283 282 282 282 282 282 281 281 281 281 280 280 279 278 277 276 276 275 274 273
291 290 290 290 291 290 288 289 288 287 287 287 286 285 285 286 287 288 288 286 285 285 285 283 283 282 282 282 282 281 281 281 281 281 280 280 278 278 277 277 275 275 274 273
289 290 290 289 289 289 288 288 287 286 287 286 285 285 286 286 288 289 286 286 286 285 284 283 283 282 282 282 281 281 281 281 281 281 281 280 279 278 277 277 276 275 274 273
290 289 289 289 288 287 289 289 287 287 287 287 287 287 287 289 289 288 286 286 286 285 284 283 283 282 283 282 282 281 281 281 281 281 281 280 279 278 278 277 276 275 274 273
289 289 289 289 288 288 288 287 288 288 287 287 288 288 288 288 287 286 286 286 286 285 284 283 283 283 282 282 282 282 282 282 281 281 281 280 280 279 278 277 277 276 275 274
289 289 289 289 288 287 286 288 288 287 287 288 288 289 287 286 286 286 286 285 285 284 284 283 283 282 282 282 282 282 281 281 281 281 281 281 280 280 279 278 277 276 275 274
289 289 288 288 287 288 288 288 287 287 288 289 289 289 287 286 286 286 286 285 285 284 283 284 283 282 282 282 281 281 280 280 280 281 281 281 281 280 279 278 277 277 275 274
289 288 288 288 287 287 287 287 287 287 289 289 289 288 287 286 286 285 285 285 284 283 283 282 283 282 282 281 281 280 280 279 279 280 280 281 281 281 280 279 278 277 276 275
288 287 287 287 287 287 287 286 287 288 289 289 288 287 288 287 287 286 285 284 284 283 283 282 282 282 281 281 280 280 279 278 278 278 279 279 280 280 280 280 279 277 276 275

GFSNGP_925_thetae_024.txt.gz
Theta_e
317 316 316 316 317 316 317 318 320 319 317 316 316 315 315 315 314 313 313 312 311 308 305 304 301 298 298 298 299 299 299 298 298 299 297 296 295 294 295 295 294 293 292 291
319 316 316 317 316 316 316 317 317 317 318 316 314 314 315 314 313 313 312 311 307 303 304 301 299 298 298 298 298 298 298 297 297 296 296 296 295 294 292 291 290 290 289 289
325 315 316 321 316 315 316 316 316 317 315 314 314 315 315 314 313 313 311 307 303 304 302 299 298 297 298 298 298 297 297 296 295 294 293 292 291 291 290 290 289 288 288 288
322 319 325 316 314 314 315 315 314 314 314 314 314 314 313 313 312 309 303 301 302 303 300 299 297 296 297 297 297 296 295 295 293 292 291 291 290 290 289 288 288 288 287 287
320 318 316 315 314 314 314 315 314 314 314 314 314 314 314 309 304 302 300 301 303 301 299 298 297 296 296 296 296 296 294 293 293 292 291 290 290 289 288 287 287 287 286 285
314 320 319 315 313 313 313 316 314 314 314 314 312 313 314 302 299 299 300 301 302 300 299 298 296 296 295 294 294 294 293 293 292 291 290 290 288 287 287 286 286 285 285 284
317 319 317 314 312 311 317 318 313 312 313 311 311 308 302 299 300 300 300 301 301 300 299 297 296 295 294 293 293 292 292 292 291 290 289 287 287 287 286 286 285 284 283 283
315 316 318 311 312 316 315 314 313 313 311 308 302 299 299 299 299 299 299 298 299 299 298 297 296 294 294 294 293 293 292 291 290 289 288 287 287 286 286 286 285 284 283 283
315 317 314 313 312 312 314 314 311 305 300 300 299 299 300 299 300 299 299 299 298 298 297 297 296 295 294 294 293 292 291 290 289 288 287 287 287 286 285 285 284 283 283 282
315 314 314 314 314 310 309 305 303 301 301 300 300 299 299 299 298 298 297 296 296 296 296 296 296 296 295 294 292 291 290 289 288 288 287 287 286 286 285 284 283 282 282 281
315 314 314 313 311 305 301 300 299 298 298 298 299 298 297 296 295 295 295 294 294 295 295 295 295 295 294 292 291 290 289 288 288 287 287 286 285 284 283 283 281 280 280 280
316 314 313 309 302 300 299 298 297 297 298 297 296 295 294 294 294 294 294 294 294 294 294 294 294 294 293 291 289 289 288 288 287 286 287 285 285 284 283 281 279 278 278 277
313 310 306 301 299 297 297 297 297 297 297 296 295 294 293 293 293 293 293 294 293 294 293 293 293 293 291 289 287 287 287 287 286 286 285 285 284 283 283 282 280 279 278 276
307 304 302 301 299 298 297 297 296 295 295 295 294 294 294 294 293 293 293 293 292 292 291 290 291 290 289 287 286 285 285 285 285 285 284 284 283 283 282 282 281 281 279 277
300 303 302 298 298 298 296 295 295 295 294 293 293 293 293 293 293 292 292 291 291 291 291 291 290 288 286 286 285 286 285 285 284 284 284 283 283 282 282 281 280 280 279 278
299 299 297 296 295 295 294 294 294 294 293 292 293 292 292 292 292 292 292 292 291 292 291 289 286 286 285 285 285 285 284 283 283 283 283 283 282 282 281 281 280 280 279 277
299 295 294 295 294 294 294 293 293 293 292 292 292 292 290 289 288 290 291 291 291 290 288 286 285 285 284 284 284 284 284 284 283 283 283 283 282 281 281 280 280 279 279 277
295 294 294 294 294 294 294 293 292 292 292 291 289 289 288 289 289 288 289 289 290 288 286 285 284 284 283 284 283 283 283 282 283 283 283 282 282 281 280 280 279 279 278 277
293 293 293 293 293 293 292 292 292 291 289 289 289 288 288 287 287 288 288 289 289 289 288 285 284 283 283 283 282 283 283 282 282 282 282 282 282 281 281 280 280 279 278 277
292 292 293 293 292 291 291 290 289 290 289 289 288 288 288 288 288 288 288 289 288 287 286 284 283 283 283 283 282 282 282 283 282 282 283 282 282 281 281 280 279 279 278 277
291 292 292 291 290 290 289 289 288 288 289 288 287 287 288 288 288 288 289 289 287 286 284 283 284 284 283 283 282 283 283 283 283 283 283 283 282 282 281 280 280 279 278 277
292 292 291 290 290 290 290 290 289 288 288 288 287 288 289 289 289 288 287 286 287 286 285 285 284 283 283 282 283 283 283 282 283 283 283 283 283 282 282 281 280 279 278 277
292 292 291 290 290 290 289 289 288 288 288 288 288 288 289 289 288 287 288 287 287 285 285 285 284 283 282 282 283 283 283 283 283 283 283 283 282 282 281 281 280 279 278 277
292 292 291 291 289 288 290 291 289 288 288 288 288 289 289 288 287 287 287 286 285 285 284 284 283 283 282 282 283 283 282 282 282 282 282 282 282 282 281 281 280 279 278 276
291 291 290 289 290 292 291 291 289 289 287 288 288 289 289 287 286 287 286 286 285 284 284 284 284 283 282 283 283 282 282 281 281 281 281 282 282 282 282 281 280 279 278 277
291 292 292 291 290 290 290 290 288 287 287 288 289 289 289 287 287 286 286 286 285 285 284 284 283 282 283 283 282 281 281 281 280 280 280 280 281 281 281 281 280 279 277 277
291 291 290 291 291 290 289 288 287 288 288 288 288 288 289 287 287 287 286 285 285 285 284 284 283 282 282 282 282 281 280 280 279 278 278 279 279 280 280 280 280 279 278 276

GFSNGP_925_thetae_027.txt.gz
Theta_e
319 317 316 316 317 317 317 317 321 319 319 318 318 317 316 316 315 315 315 314 313 311 309 306 304 301 300 299 299 299 299 299 298 297 298 297 297 296 296 295 293 292 292 291
320 317 315 315 316 316 316 317 317 317 317 317 316 315 315 316 315 315 313 313 311 307 304 304 301 301 299 299 299 299 299 298 297 296 295 295 294 294 293 292 292 291 290 290
324 319 318 324 319 316 316 316 316 318 317 316 316 315 315 315 314 314 312 310 305 302 303 303 301 300 298 298 298 298 298 297 296 295 295 294 293 293 292 291 290 290 289 289
323 319 327 317 315 315 316 315 315 315 316 315 315 315 315 312 310 310 307 303 301 302 303 302 300 299 298 297 297 297 297 296 295 295 294 293 292 291 291 289 289 289 288 288
323 320 316 316 316 316 316 316 315 316 316 315 314 314 314 310 307 303 301 300 302 303 302 301 300 300 298 297 296 295 295 295 294 294 293 292 291 290 289 289 288 288 287 287
319 322 321 316 315 314 314 318 316 316 316 315 315 318 313 302 301 301 301 302 302 301 301 301 300 299 298 297 296 295 294 294 293 293 292 291 290 289 289 288 288 287 287 285
319 321 318 314 314 313 318 320 316 315 313 311 311 307 305 300 300 302 301 301 300 299 300 300 299 298 298 297 296 295 295 294 293 292 291 290 289 289 288 288 287 287 285 285
318 320 319 314 314 318 317 316 315 313 308 307 306 303 301 302 302 301 300 300 299 299 298 298 297 297 297 297 296 295 295 294 293 292 291 289 289 288 288 287 287 286 285 284
318 319 317 315 315 315 315 314 310 305 304 304 304 303 301 301 301 299 298 297 297 296 296 295 295 295 295 296 296 295 294 293 292 291 290 289 288 288 287 287 286 285 284 284
318 315 314 315 315 312 310 308 305 304 304 302 300 301 300 299 298 297 296 295 295 295 295 295 294 294 294 294 295 295 293 292 291 290 289 288 288 287 287 286 285 284 283 283
317 316 315 312 309 306 304 302 301 300 300 300 300 299 298 297 296 295 295 294 294 294 294 294 293 293 293 293 294 293 292 291 290 289 288 288 287 286 286 285 283 282 281 280
318 314 315 310 305 302 301 301 300 300 300 299 298 298 296 296 295 295 294 294 294 294 294 293 293 293 292 293 292 291 290 290 289 288 288 287 286 286 285 284 283 281 279 278
315 308 305 303 301 299 301 300 300 299 298 297 296 295 295 295 294 294 294 294 294 293 293 293 292 292 292 291 290 288 288 288 288 287 287 286 286 285 284 284 283 282 280 278
307 305 302 300 303 301 300 300 298 296 296 295 295 294 294 294 294 294 294 293 293 293 293 292 292 292 291 290 288 287 287 287 286 286 286 285 285 284 284 283 283 283 281 280
305 306 306 304 301 301 298 297 297 296 295 294 293 293 293 294 293 293 293 292 292 293 293 293 292 290 289 288 287 287 287 286 285 285 285 284 284 284 284 283 283 282 282 281
303 302 300 298 297 297 296 296 296 295 294 293 293 293 293 292 292 291 291 291 291 291 291 291 289 288 287 287 286 287 286 285 284 284 284 285 284 284 283 283 282 282 281 281
302 299 297 297 296 296 296 295 294 294 293 293 293 292 290 290 290 291 289 289 289 289 290 289 287 287 286 286 286 286 285 285 284 284 284 285 284 283 283 282 282 282 281 279
297 297 296 295 295 295 295 294 293 293 293 292 291 290 290 290 290 289 289 289 289 289 290 288 286 286 285 285 285 285 284 283 283 284 284 284 284 283 282 282 282 282 281 280
295 295 294 294 294 294 294 293 293 292 291 291 291 290 290 289 289 290 289 289 289 290 289 286 285 284 285 284 283 284 284 284 284 284 284 284 283 284 283 283 282 282 281 280
294 293 293 293 293 293 293 292 292 291 291 291 290 289 289 289 289 289 289 289 289 289 286 286 284 284 284 284 283 283 283 284 284 284 284 284 284 284 284 283 282 281 281 280
293 293 293 293 293 292 291 291 291 290 291 290 289 289 288 288 289 290 289 289 289 287 286 285 284 286 285 284 283 284 284 284 284 284 284 284 284 284 284 283 283 282 281 280
293 293 293 292 292 292 292 292 292 291 290 289 288 288 288 288 290 290 288 288 288 287 286 286 285 285 284 283 283 284 284 284 284 284 284 284 284 284 284 283 283 282 281 280
292 292 293 293 292 293 292 291 290 291 290 289 288 288 288 289 290 289 289 289 288 287 286 286 286 285 283 282 282 283 283 284 284 284 283 283 284 284 284 283 283 282 281 281
293 293 293 293 292 292 292 293 293 292 291 289 288 288 288 288 290 289 288 287 287 285 285 285 285 284 283 282 282 283 283 283 283 283 283 282 282 283 283 283 282 281 281 280
293 293 292 292 293 293 292 292 292 292 291 289 288 288 289 289 289 288 287 287 287 286 286 285 285 284 284 283 283 283 283 283 282 282 281 281 281 282 282 283 283 282 281 280
293 293 293 293 292 292 292 292 291 290 289 289 289 289 288 288 288 288 288 287 287 287 286 285 285 284 284 283 283 283 283 282 282 281 280 280 280 280 281 281 281 282 281 280
293 293 293 293 293 292 292 290 288 289 289 289 289 288 288 288 288 288 287 287 287 286 286 286 285 285 284 283 283 283 282 282 281 280 280 279 279 279 279 280 280 281 281 280

GFSNGP_925_thetae_030.txt.gz
Theta_e
320 317 316 315 314 315 315 318 319 319 318 318 318 317 316 316 316 315 315 314 312 311 308 306 306 304 302 301 299 299 299 299 299 298 297 296 296 296 295 294 293 293 292 291
322 317 316 314 314 316 316 316 316 317 317 317 317 317 317 316 315 314 314 313 310 307 305 304 304 303 302 300 299 298 298 299 298 297 296 295 295 294 294 293 293 291 290 290
326 320 319 325 321 316 316 316 317 319 317 316 316 316 316 314 313 312 310 309 307 305 304 304 304 302 300 300 299 298 297 298 297 296 296 295 294 294 293 292 290 290 289 289
322 320 324 317 315 315 315 316 316 315 316 316 315 314 312 311 310 308 306 305 304 303 303 304 302 301 301 301 299 298 297 296 296 295 294 294 294 293 292 290 289 289 289 288
325 322 318 317 317 316 317 317 316 317 316 316 314 313 312 308 306 305 304 303 303 303 303 301 301 301 301 300 299 298 297 296 295 294 294 294 293 292 290 289 289 289 288 287
320 319 321 318 315 315 315 318 318 316 316 314 313 314 312 307 305 303 302 303 302 301 300 300 300 298 298 298 298 298 297 296 295 295 294 293 292 290 289 289 289 288 288 286
319 319 318 315 315 314 317 320 317 314 312 310 310 309 307 304 303 303 302 301 299 299 298 297 296 296 296 296 296 296 297 296 295 294 294 292 291 289 289 289 288 287 286 285
318 319 319 315 316 318 318 317 314 312 309 307 306 305 304 303 302 301 299 298 297 296 296 296 295 295 295 295 294 295 296 296 295 293 293 291 290 289 289 288 287 286 285 284
320 319 318 317 317 315 314 312 310 308 307 305 304 302 302 301 300 298 297 296 295 295 294 294 295 295 294 294 294 294 295 295 294 293 291 290 289 288 288 287 286 285 284 284
320 317 316 316 314 311 309 308 306 305 304 302 301 301 300 299 298 297 296 296 295 294 294 295 295 294 293 293 292 293 294 293 292 291 290 289 289 288 287 286 285 285 284 283
318 317 316 313 310 307 305 304 303 301 301 301 300 299 298 298 296 296 295 295 294 294 294 294 294 293 293 293 293 292 292 291 290 290 289 288 288 287 286 286 285 284 282 281
320 317 316 313 306 304 305 303 302 301 300 299 297 297 296 296 295 294 294 294 294 294 294 294 294 293 292 293 292 291 290 289 289 289 288 287 287 287 285 285 284 284 282 281
316 312 311 306 304 304 303 302 301 300 298 297 296 296 295 294 294 294 294 294 294 294 293 293 294 293 293 291 291 289 288 288 288 288 287 287 286 286 285 284 284 283 283 281
309 307 305 303 306 303 302 301 299 297 297 296 295 294 294 294 294 293 293 293 293 292 292 292 292 293 291 290 289 288 288 287 287 287 285 285 285 284 284 284 284 284 283 282
308 307 307 305 304 302 300 297 297 297 296 295 294 294 294 293 293 292 292 292 291 290 290 290 289 290 289 288 287 287 287 286 285 284 284 284 284 284 284 284 284 283 283 282
305 304 303 301 299 298 297 297 296 296 295 294 294 294 293 292 291 291 291 290 289 289 289 289 289 289 287 287 286 286 287 286 285 284 284 284 284 285 284 284 283 283 283 282
304 301 299 298 297 297 296 296 296 295 294 294 294 292 291 290 290 291 290 289 290 289 289 289 289 287 287 286 286 285 286 285 284 283 284 284 284 284 284 283 283 283 282 281
300 298 297 297 296 296 296 296 294 294 294 293 291 291 291 290 290 289 289 289 289 289 289 290 288 286 285 285 285 285 284 284 283 283 283 283 284 284 283 283 283 283 282 281
297 296 296 295 295 295 295 294 294 293 292 292 292 291 290 290 289 289 289 288 289 289 289 286 285 285 285 285 284 283 284 284 283 284 284 284 284 284 284 284 283 283 282 281
295 295 294 293 293 292 293 292 292 292 292 292 291 290 289 289 288 288 288 289 290 289 287 286 285 285 284 284 284 283 283 283 283 284 284 284 284 285 285 284 283 283 282 282
295 294 294 293 293 293 292 292 292 291 292 291 291 289 289 288 288 288 289 290 289 288 286 286 285 285 285 285 284 283 283 284 283 284 284 284 284 284 284 284 284 283 283 282
295 294 293 292 293 293 292 293 293 293 292 291 290 290 289 288 288 289 289 289 289 288 287 287 286 286 285 285 283 283 284 284 284 284 284 284 284 284 284 284 283 283 283 282
293 293 293 293 293 293 294 293 292 292 291 291 291 290 289 288 288 289 290 289 288 288 287 287 286 287 286 285 283 282 283 283 284 284 283 283 283 283 283 283 283 282 281 281
294 293 293 293 293 293 293 293 293 293 293 292 291 290 288 288 288 289 289 289 288 288 287 287 286 285 285 284 283 283 283 284 284 283 283 283 282 282 283 283 283 283 282 281
293 293 293 293 293 293 294 293 293 293 292 290 289 289 289 289 289 288 288 288 289 287 287 286 286 286 285 284 284 284 284 284 283 283 282 281 281 281 281 281 282 282 283 282
293 293 294 294 294 294 293 293 293 291 290 289 289 288 288 288 288 288 287 287 288 288 287 287 287 286 286 285 284 284 284 284 283 282 282 281 280 280 280 280 280 281 281 282
294 294 294 294 294 293 293 292 290 289 288 287 286 286 287 287 287 287 287 288 288 287 287 287 287 286 286 285 285 284 283 283 283 282 282 281 280 279 279 279 279 279 279 280

GFSNGP_925_thetae_033.txt.gz
Theta_e
320 316 315 314 314 312 312 313 314 314 317 316 316 315 314 313 313 313 312 310 307 305 304 304 304 304 304 301 300 299 298 298 298 299 297 296 295 295 295 294 293 292 291 290
317 318 316 314 313 314 315 316 316 316 316 314 314 313 313 312 312 310 308 306 305 303 303 303 303 303 302 301 300 300 298 298 297 297 297 296 295 295 294 293 292 290 289 289
316 316 313 313 316 315 315 314 315 316 315 314 314 312 311 309 308 307 305 304 303 302 302 302 303 303 303 301 301 300 299 298 297 297 296 295 295 294 293 292 290 289 289 288
308 310 306 316 313 315 316 315 315 316 315 314 312 309 307 305 305 305 304 303 302 302 302 303 303 301 297 297 297 298 298 298 297 296 295 294 293 294 292 290 289 289 288 288
313 313 313 315 316 316 315 317 316 316 314 312 310 310 307 305 304 303 302 302 302 303 302 299 296 296 295 295 295 295 296 296 296 296 295 293 293 291 291 289 289 288 288 287
303 305 308 313 314 313 313 312 315 313 312 310 308 306 306 304 303 302 302 302 302 296 295 295 295 295 294 294 294 294 295 296 296 295 294 292 292 291 289 289 288 288 287 285
304 304 310 314 314 313 312 311 312 310 309 308 307 304 304 302 302 303 302 297 296 295 294 294 294 294 294 294 293 294 293 294 294 294 293 292 291 290 289 288 287 286 286 284
312 311 310 314 315 312 311 312 310 308 307 306 304 303 302 302 299 298 296 295 295 294 294 294 294 294 293 293 293 292 292 293 294 293 292 291 290 289 288 287 286 285 284 283
311 310 310 314 313 311 310 308 308 307 305 304 303 301 300 299 296 295 295 295 294 293 293 294 294 294 293 293 292 292 292 292 292 292 291 290 289 288 287 286 285 285 284 283
314 315 315 312 309 308 307 306 305 304 304 303 301 300 297 295 294 294 294 293 293 294 293 293 293 293 293 293 292 292 291 291 290 290 289 289 288 287 286 286 285 284 284 283
312 313 311 310 308 305 305 304 303 303 302 300 297 296 295 294 293 293 293 293 293 293 293 293 293 293 293 292 292 291 290 289 288 289 288 287 287 286 285 285 284 284 283 282
309 314 312 309 305 304 302 302 302 300 300 298 296 294 294 293 293 293 293 293 292 292 292 292 292 291 292 292 291 290 289 288 287 288 287 287 286 286 285 284 283 283 283 283
314 308 307 304 303 304 304 303 300 298 297 295 294 294 293 293 293 293 292 292 292 292 291 289 290 289 290 290 289 289 288 287 287 286 286 285 285 284 284 283 284 283 283 283
305 304 304 303 304 304 303 302 297 296 295 294 294 293 293 293 293 292 291 291 291 290 289 289 289 289 288 288 287 287 288 286 286 285 284 284 284 284 283 284 283 283 282 283
306 306 305 304 304 303 302 296 295 294 294 293 293 293 293 293 291 291 291 290 290 289 289 288 287 287 288 287 286 286 286 286 285 284 283 283 283 283 284 284 283 283 282 282
306 306 305 304 299 296 296 295 295 294 293 293 293 293 292 291 290 290 289 290 289 289 289 288 287 288 288 287 286 286 286 286 285 284 283 283 283 284 284 283 283 282 282 282
304 302 299 297 296 295 295 295 294 293 293 292 293 292 291 291 290 289 289 289 288 287 287 288 288 288 286 286 285 285 285 284 284 283 283 283 283 284 284 283 282 282 282 282
299 297 296 295 294 294 294 294 293 293 292 292 291 291 291 290 289 288 287 287 287 288 288 288 287 286 285 285 285 284 283 283 283 283 283 283 283 284 283 283 283 283 283 282
296 295 294 294 294 292 292 292 292 292 291 291 291 291 291 289 288 288 287 287 287 288 288 288 286 285 285 285 284 283 283 283 283 283 283 283 283 283 284 284 284 283 283 282
295 294 293 293 292 292 292 292 292 291 291 291 291 291 290 290 289 287 287 287 287 288 289 287 286 285 285 285 284 284 283 283 283 283 283 284 284 284 284 284 284 284 283 283
294 294 293 293 292 292 292 292 292 292 292 292 292 291 290 290 289 288 287 287 288 288 289 288 286 286 285 285 285 284 283 283 283 284 283 283 283 283 284 284 284 283 283 283
293 293 292 292 292 292 292 293 293 293 293 292 291 290 290 290 289 288 287 287 288 289 289 288 287 286 286 286 285 285 284 283 282 283 284 283 283 283 283 283 283 284 283 282
292 292 293 293 293 293 293 292 292 292 292 292 290 289 290 290 289 287 287 288 288 288 288 288 288 287 286 286 286 285 284 283 282 283 283 283 282 282 283 282 282 283 283 283
293 293 293 293 293 292 292 292 293 293 293 292 290 289 289 289 288 288 288 288 288 287 287 288 287 287 286 286 285 285 284 283 283 283 284 283 282 282 281 281 281 281 282 283
292 292 292 292 292 292 293 293 293 293 292 290 289 288 287 286 287 287 287 287 287 287 287 287 287 287 286 286 286 285 285 284 284 283 283 283 282 281 281 280 280 280 280 281
293 293 293 293 293 293 293 293 293 291 290 289 287 287 286 285 285 286 286 286 287 287 287 287 287 287 287 287 286 286 285 285 284 284 284 283 282 281 280 280 279 279 280 280
293 293 294 294 294 293 293 292 291 290 289 288 287 286 286 286 286 286 285 285 286 286 287 287 287 287 287 287 286 286 285 285 285 283 283 283 282 281 280 279 279 279 279 279

GFSNGP_925_thetae_036.txt.gz
Theta_e
317 315 314 314 313 311 311 310 311 313 315 315 314 313 312 311 311 309 307 305 304 302 302 302 303 303 303 303 301 300 300 299 298 298 297 297 297 296 295 294 294 293 291 289
314 316 314 313 311 314 313 314 314 314 316 314 312 311 311 310 309 308 305 304 303 302 301 302 302 302 301 298 297 297 298 298 299 298 297 297 296 295 295 293 292 290 289 289
308 312 310 310 314 314 314 314 314 314 313 312 312 311 309 307 306 305 304 303 302 301 301 301 301 298 296 295 295 294 295 296 296 295 296 295 294 294 293 292 290 289 289 288
305 304 301 311 312 313 316 316 315 314 313 311 310 307 305 304 304 303 302 301 300 301 301 297 296 295 294 294 294 294 295 296 295 295 295 295 294 292 290 290 289 289 288 287
302 309 307 313 315 314 313 315 315 314 312 310 309 307 306 305 303 303 301 301 301 298 295 294 293 293 293 293 293 294 294 293 292 294 294 294 293 292 292 292 289 288 287 285
308 301 303 308 313 312 311 312 314 312 310 309 307 304 304 303 302 301 301 300 296 294 293 293 293 293 293 293 293 293 292 292 292 293 293 293 292 292 291 288 288 287 285 284
299 300 307 308 312 311 311 311 311 310 308 306 305 303 302 302 301 300 296 294 294 293 293 293 293 293 293 293 293 292 292 292 291 292 292 292 291 289 288 288 287 286 284 283
303 301 310 310 313 312 309 310 309 307 306 305 304 303 302 301 297 294 293 293 293 293 293 293 293 293 293 292 292 292 292 291 291 291 291 291 289 289 288 287 286 285 284 283
310 310 307 311 311 311 309 307 307 305 304 304 302 302 300 295 294 293 292 293 293 293 293 293 292 292 292 292 292 292 291 290 289 290 289 289 288 287 286 285 285 284 284 283
311 312 313 310 308 308 307 306 305 305 303 303 301 299 294 292 292 292 293 293 292 292 292 292 292 291 291 291 292 291 291 289 288 288 288 287 287 286 285 285 284 283 283 283
311 312 311 310 308 305 305 304 304 303 302 300 296 294 293 292 291 292 292 292 292 292 292 291 290 289 289 290 291 290 290 289 287 287 288 287 286 285 285 284 283 283 283 283
311 311 310 308 304 303 304 303 302 301 299 294 294 293 292 291 292 292 291 291 291 291 291 290 289 289 289 289 289 288 289 288 287 287 286 285 284 284 284 283 283 283 283 283
312 307 306 304 303 303 303 302 302 297 295 293 292 293 293 292 292 292 290 290 290 290 290 289 288 288 288 287 288 287 287 287 286 286 285 284 283 283 283 283 283 282 282 282
305 304 304 303 304 304 304 300 296 294 293 293 293 293 292 292 292 291 290 290 289 289 289 289 288 287 287 287 287 286 286 286 286 285 283 283 283 283 283 284 283 282 282 282
304 305 304 303 304 303 300 295 294 293 293 293 292 292 292 292 291 290 290 289 289 288 288 287 287 286 287 288 287 286 286 286 286 284 283 283 283 283 283 284 283 282 282 282
305 305 305 304 301 296 295 294 294 293 293 292 292 291 292 291 290 290 289 288 287 287 286 286 286 287 287 286 286 285 285 285 285 283 283 282 283 283 284 284 283 282 282 282
305 302 297 296 295 295 295 294 293 292 292 291 291 291 291 290 290 288 287 287 287 287 287 287 288 287 286 285 285 285 284 284 283 283 282 282 282 282 283 283 282 282 283 283
298 296 296 295 294 294 293 292 292 292 291 292 291 291 291 290 288 288 288 287 287 287 286 287 287 286 285 285 284 284 283 283 283 283 282 282 283 283 283 283 283 283 283 283
295 294 294 293 292 291 290 290 291 291 291 291 291 291 290 290 290 289 288 287 287 287 286 287 288 286 285 285 284 284 283 283 282 282 282 282 283 283 283 283 283 283 284 283
294 293 293 292 292 292 291 291 291 291 291 291 291 291 290 290 290 290 289 288 288 287 287 288 288 287 286 285 285 284 285 284 283 283 283 283 283 282 282 283 283 283 283 283
293 293 293 292 292 292 292 292 292 291 292 292 292 291 290 289 290 289 288 288 287 288 287 288 288 288 287 286 286 285 285 284 284 283 283 283 284 283 283 283 282 283 283 283
292 291 292 292 292 291 292 292 292 292 292 292 291 290 288 288 289 289 288 288 288 288 288 287 287 287 288 287 286 286 286 285 284 284 282 282 283 283 283 282 282 282 282 283
292 292 292 292 292 292 292 292 292 292 292 292 291 289 289 289 288 287 287 287 287 287 287 287 286 286 287 287 287 286 286 285 285 284 283 282 282 283 283 282 282 281 281 282
292 292 292 292 292 291 290 292 292 293 293 292 291 291 289 287 286 285 286 286 286 286 286 286 287 286 286 286 286 286 285 285 285 285 284 283 283 283 283 282 281 280 280 280
292 292 292 292 291 291 292 292 292 292 292 291 290 289 287 286 286 285 285 286 286 285 285 286 286 286 286 286 286 286 286 286 286 285 285 284 283 283 283 282 281 280 280 280
292 292 292 292 292 292 293 293 292 292 291 290 289 288 287 285 285 286 286 285 284 284 283 284 284 285 285 286 286 286 286 286 285 285 284 284 284 284 283 282 281 280 279 279
293 293 292 292 292 292 292 292 292 291 290 289 288 287 286 286 286 285 284 282 281 280 281 281 280 281 282 283 284 285 285 286 285 285 284 284 284 283 283 282 280 279 279 278

GFSNGP_925_thetae_039.txt.gz
Theta_e
314 313 313 313 311 310 310 309 310 309 313 313 313 311 311 310 309 307 305 304 303 302 301 301 301 300 298 296 295 295 294 295 296 295 294 294 295 296 296 295 294 293 292 292
314 314 312 312 310 310 311 310 310 314 316 312 311 310 310 308 307 306 305 303 302 301 300 300 299 296 295 294 294 294 294 295 294 294 293 294 294 295 295 293 293 292 291 288
305 309 306 304 308 312 312 313 312 315 312 310 311 310 308 306 305 304 303 302 301 300 299 297 296 294 293 293 293 294 294 295 295 293 293 293 293 294 294 293 292 290 288 289
303 302 304 307 309 311 312 315 313 313 311 310 309 308 305 304 303 302 301 300 299 299 296 294 293 293 293 293 293 293 294 294 292 292 292 292 293 293 292 291 290 290 288 286
304 306 305 310 313 314 313 313 313 312 310 309 307 305 305 303 302 301 301 300 298 295 293 293 293 293 293 292 292 293 293 292 292 291 292 293 293 292 291 291 290 287 286 285
305 300 301 305 313 311 310 311 312 311 310 309 305 305 304 302 301 300 299 295 293 293 293 293 293 293 293 292 292 292 292 292 292 291 291 292 292 291 291 289 287 287 285 284
296 299 305 305 311 309 311 306 311 310 309 305 305 303 301 301 300 297 293 293 293 293 292 292 292 292 292 291 292 292 292 292 291 291 290 291 291 289 287 287 288 286 284 283
303 301 309 307 310 311 308 309 310 307 305 304 303 303 301 300 293 292 292 292 292 292 292 292 292 291 291 290 290 291 291 291 290 289 289 289 289 288 289 288 285 285 284 283
309 309 307 307 310 309 308 308 307 306 304 304 303 302 299 293 292 292 292 292 292 291 291 291 291 291 289 289 290 291 291 291 289 288 288 288 287 286 286 285 285 284 283 283
309 310 308 309 308 308 307 306 304 303 303 303 302 298 293 291 290 291 292 291 291 291 291 290 291 290 288 289 288 289 289 289 289 287 287 287 287 286 285 284 283 283 283 282
309 310 311 309 307 305 304 303 304 304 303 302 296 293 292 290 291 291 291 290 290 290 290 290 290 289 288 288 288 288 287 287 288 286 287 286 285 284 284 284 283 283 283 283
309 309 310 308 305 303 303 303 303 302 298 294 293 292 291 290 291 291 291 290 290 289 289 289 289 288 287 287 286 287 287 287 286 286 286 284 284 283 283 283 283 283 283 282
310 308 305 303 302 303 303 303 302 298 294 292 292 292 292 291 291 291 290 289 289 289 289 288 288 287 287 286 287 288 287 286 286 285 284 283 283 283 283 282 283 282 282 282
304 304 305 304 304 303 302 301 296 294 293 292 292 292 292 291 291 290 289 289 289 288 287 287 286 286 286 286 286 287 286 286 286 286 284 283 282 282 282 283 283 282 282 282
304 304 305 303 303 302 295 294 293 293 292 292 292 291 291 291 290 289 289 288 287 286 286 286 285 286 287 286 286 286 285 285 285 285 283 283 282 282 282 283 283 282 282 282
304 303 303 303 298 295 295 294 293 292 292 292 291 290 291 290 289 289 289 288 287 286 286 286 286 287 286 286 286 285 285 284 284 284 283 283 282 282 282 283 283 282 282 282
303 298 296 296 296 296 295 293 293 292 291 291 290 290 290 290 290 289 289 288 287 287 286 286 286 287 286 286 285 284 284 284 283 283 283 282 282 282 282 283 283 282 283 283
298 298 297 297 296 294 292 292 291 290 290 291 291 290 290 290 288 289 289 289 288 288 288 287 287 287 287 286 285 284 284 284 283 282 283 282 282 282 282 283 283 283 283 283
299 298 296 293 292 291 290 290 290 290 291 290 291 291 290 290 290 290 290 289 289 288 287 287 287 287 287 286 286 285 284 284 283 283 282 282 282 282 282 282 283 283 283 283
293 292 292 292 291 291 291 291 291 291 291 291 291 291 290 291 290 289 289 288 288 288 287 287 287 288 287 288 287 286 285 284 284 284 284 283 283 283 283 282 282 283 282 283
292 291 291 291 291 291 291 291 291 291 291 291 290 290 290 290 290 289 288 286 287 287 287 287 287 286 286 286 286 287 286 285 285 285 284 284 283 282 282 283 283 283 282 282
291 291 291 291 291 291 292 291 291 291 291 291 291 290 289 288 289 289 287 287 286 286 286 285 285 285 285 285 285 285 285 286 286 286 285 284 283 283 282 282 283 282 282 282
292 291 291 291 291 291 291 292 292 291 291 292 292 292 291 290 290 287 285 285 285 285 286 285 285 285 285 285 285 285 285 285 285 285 285 284 284 284 283 282 282 283 282 281
291 291 291 292 291 291 290 292 292 292 291 292 292 292 291 289 288 287 286 285 285 285 285 283 284 284 284 284 285 285 285 285 284 284 284 285 284 284 284 283 283 283 282 281
292 291 291 291 290 290 290 291 291 292 292 292 292 291 290 289 287 286 285 285 285 284 282 282 281 282 282 283 284 284 285 285 284 284 284 284 283 283 283 283 283 283 282 280
290 290 289 289 289 289 288 288 287 288 290 291 291 290 289 288 286 286 285 284 282 281 280 279 278 278 278 278 278 280 281 283 284 285 285 285 284 283 283 283 283 283 281 280
287 286 286 285 285 285 285 285 285 286 287 289 288 289 288 287 286 285 283 282 280 279 278 277 277 275 275 274 274 276 277 279 281 283 285 285 284 284 283 283 283 282 280 279

GFSNGP_925_thetae_042.txt.gz
Theta_e
313 312 312 311 310 309 310 309 310 309 311 310 311 310 309 308 306 305 304 303 302 300 300 300 299 296 295 294 293 293 293 293 294 294 293 292 292 292 293 294 294 293 292 292
315 312 310 312 310 308 308 308 308 311 311 311 310 308 309 308 306 305 304 303 301 300 299 298 296 295 293 293 293 293 293 294 294 293 292 292 292 292 293 293 292 291 290 289
310 307 304 305 308 308 310 309 309 312 310 310 310 310 308 306 305 303 302 301 301 299 298 296 294 293 293 293 293 293 293 293 293 292 292 291 291 292 293 291 291 290 289 288
301 301 301 306 306 308 310 311 310 311 310 310 310 307 306 303 302 301 301 300 299 298 295 293 292 292 292 292 292 292 292 293 292 292 291 291 291 291 291 291 290 290 289 286
301 304 304 307 312 311 311 310 311 311 309 308 305 305 306 302 301 299 299 300 298 295 293 292 292 292 292 292 291 291 291 291 292 291 291 291 291 291 292 290 290 289 287 285
299 300 300 305 310 310 309 311 309 310 308 307 306 306 307 301 300 300 300 296 293 292 292 292 292 292 291 291 290 289 289 291 291 291 291 290 290 290 290 289 287 286 285 284
294 297 304 303 309 308 312 309 309 309 307 304 306 305 301 300 300 298 293 292 292 292 292 291 291 291 290 289 288 289 291 291 291 291 290 288 288 289 287 287 287 287 284 284
301 298 309 304 310 311 308 307 308 307 305 305 302 301 301 299 294 292 291 292 292 291 291 291 290 290 289 288 288 288 288 290 290 290 289 287 287 288 287 287 286 284 284 283
307 308 305 305 308 308 306 307 307 305 303 303 303 302 299 294 291 291 291 291 291 290 290 290 290 290 289 288 288 288 288 287 287 287 288 287 286 285 285 285 285 284 283 283
308 308 306 306 307 308 306 307 304 304 303 303 302 299 295 291 290 290 291 291 290 290 289 289 289 290 289 288 287 288 287 287 286 287 286 287 286 286 285 285 284 283 283 283
307 308 310 309 307 306 305 303 304 303 302 301 298 294 292 290 290 291 291 290 289 289 289 289 289 289 288 287 286 286 287 287 286 286 286 285 285 284 284 284 283 283 283 283
308 308 308 307 307 303 303 303 303 301 298 295 295 292 291 290 291 291 290 289 289 289 288 288 288 287 287 286 286 286 285 286 285 286 285 284 283 283 282 282 282 283 283 282
308 308 305 303 302 302 303 302 301 296 295 293 292 292 291 291 291 291 289 289 289 288 288 287 286 286 286 286 286 286 286 286 286 286 285 284 283 282 282 282 282 283 282 282
305 304 307 304 304 302 301 297 294 293 292 292 292 292 292 291 290 290 289 289 288 287 286 286 286 286 286 286 286 286 285 286 285 285 285 285 283 282 282 282 282 282 282 282
303 302 304 302 297 294 294 294 293 293 292 292 291 291 291 290 290 289 289 288 287 287 286 286 286 286 286 286 286 286 285 285 285 284 284 283 283 282 282 282 282 283 283 282
301 300 298 295 294 295 295 295 295 293 292 291 291 290 290 290 289 289 289 288 287 287 287 287 287 287 286 286 286 285 285 284 284 283 283 283 283 282 282 282 282 282 282 282
297 296 297 298 298 297 296 294 292 291 291 291 290 290 290 289 289 289 289 289 289 289 288 288 288 287 286 286 286 285 285 284 283 284 282 282 282 282 282 282 282 282 282 282
298 298 298 297 296 294 292 291 290 290 290 290 290 290 289 288 288 289 290 290 289 289 289 288 287 287 286 286 286 286 285 284 284 284 283 282 282 282 282 281 282 282 282 283
299 299 297 295 292 291 290 289 289 290 290 290 290 290 290 290 290 290 290 289 288 287 288 287 287 287 287 287 287 287 286 285 284 284 283 283 283 282 282 282 282 282 282 282
292 292 291 291 291 291 290 290 291 290 291 290 290 290 290 291 290 290 289 288 288 288 287 287 286 286 285 285 285 284 284 284 284 284 284 284 284 284 283 283 283 282 282 282
291 291 290 290 291 291 291 291 291 291 291 291 289 289 290 290 290 289 287 286 289 287 285 286 285 284 284 284 284 284 285 284 283 283 283 283 284 284 283 283 283 282 282 283
290 290 290 291 291 291 291 291 291 291 291 291 291 290 289 289 290 289 289 288 288 285 285 285 284 284 284 284 284 284 285 285 284 284 283 283 283 283 283 283 283 283 282 282
291 290 290 290 290 290 291 291 291 291 290 290 290 290 290 291 290 287 288 288 286 285 285 284 283 283 282 282 283 284 284 285 285 285 284 284 283 283 282 282 282 283 283 282
291 291 290 290 291 290 289 289 288 288 288 288 289 290 290 289 289 290 289 287 285 285 284 283 282 281 281 280 280 280 281 283 284 284 284 284 283 283 282 282 282 282 282 283
289 289 288 287 287 286 286 285 285 284 284 285 285 286 288 289 287 288 288 287 285 283 282 281 280 278 278 278 277 276 276 276 278 279 282 283 283 283 284 283 282 282 282 283
285 284 284 284 283 282 281 281 282 282 283 283 283 284 286 287 286 287 287 285 283 281 280 279 278 277 276 275 274 274 274 275 275 276 276 278 280 283 284 284 283 283 282 282
282 281 280 280 279 278 277 278 279 280 280 281 282 283 285 285 285 285 285 284 281 279 278 276 276 275 274 274 273 273 272 272 272 272 273 273 273 274 276 278 279 279 279 279

GFSNGP_925_thetae_045.txt.gz
Theta_e
314 313 312 311 311 314 314 313 318 313 313 312 315 315 313 311 309 307 306 305 303 302 301 300 298 296 294 293 293 293 293 293 294 294 293 292 292 291 291 292 293 292 291 291
316 312 311 313 311 310 310 309 311 310 311 309 311 312 312 310 308 308 306 304 302 301 299 298 296 294 293 293 293 292 292 293 293 293 293 292 291 291 292 292 291 290 290 288
316 308 306 313 312 312 311 310 311 313 313 313 312 313 313 311 309 307 305 303 301 300 297 296 294 292 293 292 292 292 292 292 292 293 292 291 291 292 292 292 291 290 289 288
311 305 310 310 308 309 311 311 310 311 312 313 313 311 311 310 308 305 303 302 301 298 295 293 292 292 292 292 291 290 291 290 291 291 291 292 292 291 291 291 291 290 290 287
314 309 307 308 307 312 313 312 311 312 311 310 308 310 310 307 305 304 302 301 299 295 293 292 292 292 292 291 290 290 289 290 290 290 291 291 291 290 290 290 290 289 288 286
306 310 309 308 308 311 311 316 310 312 311 310 310 316 315 307 303 300 300 298 294 292 292 292 291 291 290 290 289 289 289 290 290 291 291 290 290 289 289 288 287 286 285 285
303 313 310 306 308 309 314 314 310 311 310 309 313 313 305 304 301 300 295 292 291 292 292 291 291 290 290 289 289 289 289 289 290 290 290 290 289 288 287 287 286 286 286 284
304 311 316 305 310 315 314 308 309 310 309 309 305 303 303 301 297 293 292 292 291 291 291 290 290 290 290 289 288 288 288 288 288 287 286 288 287 286 286 286 286 285 284 284
311 314 309 306 310 308 307 308 309 309 307 307 304 303 301 296 293 292 292 292 291 290 290 289 289 289 289 289 288 288 288 287 287 287 287 287 286 287 286 285 285 285 284 284
310 310 307 307 307 308 309 308 308 307 307 305 305 302 296 293 291 292 292 291 290 289 289 289 289 289 288 288 287 287 286 287 287 287 287 286 286 285 285 285 284 284 283 283
310 310 308 309 309 308 307 306 305 304 305 303 300 296 294 292 292 292 291 290 289 289 289 289 288 288 287 287 287 286 286 285 286 286 286 286 285 285 284 284 283 283 283 283
313 308 309 308 306 305 306 306 304 302 298 297 297 294 292 291 292 291 290 289 289 289 289 288 287 286 286 286 286 286 286 286 286 285 286 285 285 284 283 282 282 282 282 283
310 308 306 305 303 303 305 303 299 297 295 294 292 292 292 292 291 291 289 289 289 289 288 287 286 286 286 286 286 286 286 286 286 284 285 285 285 284 284 283 282 282 282 282
304 306 308 305 306 300 297 296 294 293 293 295 295 292 292 291 290 290 289 289 289 288 287 287 286 287 287 286 286 286 286 285 285 285 285 285 284 284 283 283 282 282 282 282
303 303 302 297 296 295 294 295 297 297 296 293 292 291 291 291 290 290 289 289 288 288 287 287 287 287 287 287 286 286 286 285 285 284 284 283 283 283 283 282 282 282 282 282
297 296 296 296 297 298 298 298 298 297 295 292 291 290 290 290 290 289 289 289 288 288 289 288 288 288 287 287 286 286 286 285 285 284 284 284 283 283 283 282 282 282 282 282
298 298 298 299 299 297 297 297 295 293 292 291 291 290 290 289 289 289 289 289 289 289 289 288 288 287 287 287 286 286 286 286 286 284 284 283 283 282 282 282 282 282 282 282
298 298 298 298 297 296 293 292 291 290 290 290 290 290 289 288 288 288 289 289 289 289 290 289 288 287 286 286 286 286 285 285 285 284 284 283 283 283 282 282 282 281 281 282
298 298 296 294 293 291 290 289 289 289 290 290 289 289 289 289 288 289 289 288 288 288 290 288 286 286 286 285 285 284 284 283 283 283 283 283 283 283 283 283 282 282 281 281
292 292 291 290 290 290 290 290 290 290 290 289 289 289 289 290 290 289 288 287 288 289 289 287 285 285 285 284 284 284 284 284 284 284 284 284 283 283 283 283 283 283 282 282
290 290 289 290 290 290 290 290 290 290 290 289 288 288 287 288 289 289 285 285 290 290 288 285 285 285 284 284 283 283 284 284 284 284 285 284 284 283 283 283 283 283 282 282
290 289 289 289 289 289 289 289 288 288 287 287 287 287 286 286 287 287 288 287 290 289 287 285 284 284 283 283 283 283 283 284 284 284 284 284 284 284 284 283 283 283 282 282
290 289 289 289 288 287 287 285 284 284 284 284 284 284 284 284 285 286 287 289 289 288 286 285 284 283 283 281 280 280 280 280 281 282 283 284 284 283 283 283 283 283 282 282
289 288 286 286 284 283 283 282 282 282 282 282 282 282 283 283 284 284 286 287 286 286 285 284 282 281 280 279 278 276 275 276 276 277 278 278 280 281 283 283 283 282 283 282
285 284 283 282 282 281 280 279 279 280 280 280 280 281 281 282 283 284 284 285 284 284 283 282 280 279 277 276 275 274 273 272 273 272 272 272 272 273 275 279 282 283 283 283
282 281 281 280 279 277 276 276 276 277 276 276 276 277 278 278 280 282 284 283 282 281 280 279 277 276 275 275 274 273 271 271 271 270 270 269 270 270 271 272 274 276 278 279
278 277 277 277 275 274 273 272 273 273 273 273 274 274 274 276 278 279 281 280 278 277 276 275 274 273 273 272 271 271 270 269 269 269 269 268 268 267 268 269 270 272 273 274

GFSNGP_925_thetae_048.txt.gz
Theta_e
318 317 317 318 318 319 318 317 319 315 314 313 316 318 320 320 318 315 314 312 311 309 306 304 302 299 298 297 296 296 295 294 294 295 295 295 294 294 294 294 294 293 293 292
320 317 316 317 316 316 319 318 317 317 316 315 315 315 318 318 316 315 313 311 309 307 304 302 300 299 296 296 296 295 294 294 294 294 294 295 294 294 294 294 293 293 292 292
320 314 314 321 318 317 316 317 317 317 317 316 316 316 318 318 315 315 312 310 307 305 302 300 298 296 297 296 295 294 293 292 292 292 293 294 293 294 293 293 293 293 292 292
321 312 328 314 312 313 317 317 316 315 315 315 316 317 317 317 316 314 312 309 305 303 300 298 296 296 295 294 293 293 292 292 292 292 292 293 293 293 293 292 292 291 291 291
330 315 314 312 310 311 313 313 314 314 314 316 315 315 316 315 314 313 310 307 304 301 299 296 296 295 294 293 292 292 291 292 291 292 292 293 293 293 292 291 291 290 290 290
318 334 333 313 312 314 314 316 314 315 315 316 316 320 313 314 312 311 306 304 301 297 295 296 295 294 293 292 292 291 291 291 291 292 292 292 292 292 291 290 290 290 289 289
321 331 318 312 313 313 316 315 315 316 316 316 317 316 313 313 310 306 304 300 295 295 295 295 293 293 292 292 292 291 291 291 291 291 290 289 289 290 290 289 288 288 287 288
318 327 326 311 314 319 317 315 314 316 316 316 314 310 310 310 307 302 297 294 294 294 294 293 292 291 292 292 291 291 291 291 290 290 289 289 289 290 289 289 288 287 286 286
319 319 314 312 316 315 313 314 314 314 314 314 312 310 308 306 302 295 294 294 294 294 293 292 291 291 291 291 291 290 290 290 290 290 289 289 289 288 287 287 287 287 287 286
316 314 314 313 312 312 312 313 313 312 313 313 312 309 304 297 294 293 293 293 294 293 292 292 291 291 291 291 290 290 290 288 287 287 288 288 288 287 287 287 286 286 286 285
316 315 314 313 313 313 312 311 311 310 310 311 309 304 297 294 293 294 293 293 292 292 291 291 291 291 290 290 289 289 289 288 287 287 286 287 287 287 287 286 285 285 284 285
318 312 313 313 311 310 312 311 310 307 306 304 300 297 294 293 293 294 295 293 292 291 291 291 290 290 289 289 289 289 288 288 287 287 286 286 286 286 286 285 284 282 282 282
314 312 313 311 309 309 310 307 305 303 299 298 295 294 294 294 294 295 293 291 291 291 291 290 290 289 289 289 288 288 288 288 287 287 286 286 286 286 286 285 284 284 283 282
309 310 312 308 307 305 302 299 297 298 298 297 295 295 296 296 293 293 292 292 291 291 290 290 290 290 290 290 289 288 287 287 287 287 287 286 286 286 285 285 285 284 284 283
307 307 305 301 299 298 298 299 299 297 296 296 296 295 294 293 293 292 292 291 291 290 291 291 290 290 290 290 289 288 288 288 287 287 286 286 285 285 285 284 284 284 284 283
303 302 300 299 299 299 299 299 298 298 297 296 294 293 293 292 292 292 291 291 291 291 291 291 289 289 290 289 289 288 288 287 287 287 286 286 286 285 285 285 285 284 284 284
300 300 300 301 300 299 299 298 298 298 295 294 293 291 291 291 290 291 291 291 290 289 289 289 289 290 289 288 288 288 288 288 287 287 287 287 286 286 285 285 285 285 284 284
300 299 299 298 298 298 296 294 292 292 291 291 290 289 289 289 290 290 290 289 289 289 289 290 290 289 288 287 287 286 286 286 286 286 286 286 286 286 286 286 285 285 285 284
299 299 298 296 294 293 292 292 291 290 290 289 289 289 289 289 289 289 289 288 288 288 291 291 290 289 287 287 286 285 285 284 284 285 284 284 284 285 285 285 285 285 285 285
295 293 292 292 291 291 291 290 290 291 291 289 289 289 289 289 288 288 288 288 289 290 291 291 289 288 286 286 285 285 285 285 285 285 285 285 285 286 285 285 285 285 285 285
292 292 291 291 290 289 289 288 288 288 287 285 286 285 285 285 286 286 287 289 289 290 290 289 288 288 287 286 285 284 285 284 284 285 285 285 285 285 285 285 285 285 285 285
292 290 289 289 290 290 288 286 285 285 284 284 283 283 283 284 285 285 286 286 287 287 287 287 287 287 286 284 284 284 283 283 283 283 284 284 284 285 285 285 284 284 284 284
292 291 289 287 287 286 285 283 282 283 282 282 282 282 282 282 283 284 285 284 284 285 285 285 285 285 284 283 282 282 281 280 280 280 280 280 280 280 282 283 283 284 284 284
289 287 286 285 283 283 282 281 280 281 280 280 279 279 280 281 281 281 281 282 282 284 285 285 284 283 282 280 279 279 278 278 276 275 276 276 276 276 277 277 278 279 280 283
285 285 284 283 282 281 280 278 279 279 278 278 278 277 277 278 278 278 279 280 281 281 282 279 278 277 277 276 275 275 275 274 272 273 273 273 273 273 274 274 274 275 276 276
283 283 282 279 278 277 277 276 276 276 275 276 276 275 275 275 276 276 277 279 278 277 276 274 273 273 273 272 272 272 272 271 270 270 270 270 270 271 271 271 271 271 272 273
279 278 279 278 276 275 274 273 274 274 274 274 273 273 274 274 274 275 276 275 275 273 272 271 269 269 269 269 269 269 268 268 266 265 266 267 267 267 267 267 267 268 268 269

GFSNGP_925_thetae_051.txt.gz
Theta_e
321 321 320 321 321 320 321 320 322 319 317 315 316 318 318 319 320 322 321 319 318 316 314 311 308 305 304 302 300 299 298 297 296 296 296 296 296 296 296 295 295 295 295 294
324 322 321 321 320 319 319 319 317 317 317 317 317 316 316 318 320 321 320 318 317 315 312 310 307 304 302 301 299 298 297 296 295 295 294 295 295 295 295 295 295 295 294 293
322 319 318 323 320 319 318 318 318 320 318 318 317 316 316 317 319 319 319 317 316 313 310 308 304 302 300 299 298 296 295 294 294 293 293 294 294 294 295 295 294 294 293 292
323 317 326 316 315 315 317 318 317 317 317 316 316 317 317 318 318 318 317 316 314 311 308 304 302 299 299 297 296 295 294 293 293 293 293 293 294 294 295 294 294 292 292 292
329 319 317 316 314 313 314 315 314 315 314 315 317 317 318 317 317 317 316 314 311 308 305 302 299 298 297 296 295 294 293 293 293 293 293 294 294 294 294 293 293 291 291 291
323 331 331 317 315 315 315 315 314 315 315 317 317 320 319 317 316 316 314 312 309 306 302 298 297 297 296 295 294 293 293 293 293 293 293 293 293 292 292 292 292 291 290 290
324 331 324 317 315 315 317 318 316 315 315 316 317 319 318 316 315 314 311 308 304 299 298 298 297 296 295 294 294 293 293 292 293 293 293 292 291 291 291 291 291 290 289 289
328 324 326 314 315 318 319 316 316 316 317 317 318 315 314 315 313 310 307 300 298 297 298 297 296 294 293 293 293 293 292 292 292 292 292 292 291 291 291 291 289 288 288 287
322 323 317 315 315 318 316 316 317 316 316 316 317 314 313 312 309 303 298 297 298 298 297 296 294 293 292 292 292 292 292 292 292 291 290 291 291 291 290 288 288 288 288 289
319 316 315 315 315 315 315 315 315 315 315 315 315 314 311 308 301 298 297 297 297 296 296 294 293 292 292 292 292 292 292 292 291 290 289 288 289 289 289 288 288 288 287 287
317 315 314 315 316 316 316 315 314 313 314 314 314 312 305 300 298 297 296 297 297 295 294 293 292 292 292 291 291 291 291 291 291 290 288 287 287 288 288 288 288 287 287 286
320 316 316 317 315 314 315 315 313 311 310 310 307 302 299 297 296 296 297 297 295 294 293 292 292 292 291 291 291 291 291 291 291 290 288 287 287 287 287 287 286 286 285 283
317 315 315 314 313 312 312 309 307 305 303 301 299 298 297 297 297 296 297 296 294 293 293 292 292 292 292 292 291 291 291 290 290 289 288 288 287 287 287 287 286 286 285 284
313 314 314 312 310 306 303 302 301 300 298 298 298 298 298 298 297 296 295 294 293 292 292 292 292 292 292 292 292 291 291 290 289 289 288 288 288 287 287 287 286 286 286 285
310 310 308 305 304 303 301 300 300 299 298 298 298 297 296 296 295 294 293 293 292 292 292 292 292 292 292 292 292 291 291 290 289 289 288 288 287 287 287 286 286 286 286 285
307 306 304 303 302 301 301 299 298 298 298 297 296 295 294 293 293 292 292 292 292 292 292 292 291 292 292 292 292 291 291 290 289 289 288 288 288 288 288 287 287 287 287 286
306 303 302 301 302 300 299 299 299 298 296 294 293 292 292 291 291 292 292 292 292 291 290 290 290 291 292 292 292 291 290 290 288 288 288 288 288 288 288 288 287 287 287 286
302 301 301 300 299 299 296 294 293 293 292 291 290 290 290 290 291 291 291 291 291 290 290 291 291 291 291 292 292 291 290 288 287 286 286 286 286 286 286 286 287 287 287 287
299 299 298 296 295 294 293 293 292 292 291 290 289 289 290 290 290 289 288 288 289 290 291 291 291 290 292 291 290 289 288 287 286 286 286 286 286 286 286 286 287 287 287 287
296 294 293 293 293 293 292 292 293 292 290 286 286 287 286 286 285 286 287 287 288 289 288 288 287 288 289 289 290 287 287 287 286 286 286 286 286 286 286 286 286 286 286 286
294 293 292 292 291 290 288 287 286 287 286 284 284 284 284 284 285 285 285 286 286 286 285 285 286 286 287 287 288 288 286 286 286 286 285 286 285 285 285 286 286 286 286 285
293 291 291 292 291 290 287 285 285 284 283 283 283 282 281 282 283 284 284 284 284 282 283 283 284 285 286 285 285 286 285 284 283 283 282 282 282 282 282 282 283 283 283 284
293 291 289 287 287 286 285 283 282 283 282 281 281 280 279 280 281 282 282 281 279 281 281 282 282 282 283 283 284 283 282 281 281 280 279 279 279 278 278 278 278 279 279 280
291 290 288 286 285 284 284 282 281 281 280 280 280 279 278 279 279 279 278 278 279 279 279 278 277 277 278 280 280 280 279 278 277 277 277 277 276 276 276 276 276 276 276 276
288 286 285 285 285 283 282 280 280 280 279 279 279 278 277 277 277 277 277 277 277 277 277 275 273 274 275 275 274 274 275 274 273 273 273 274 274 273 273 273 273 273 273 273
287 286 284 281 280 280 279 278 279 279 278 278 277 277 276 276 276 276 276 275 275 274 274 273 272 271 271 272 271 271 271 271 269 269 270 270 270 270 270 269 269 270 270 270
281 281 282 281 279 278 277 277 277 277 277 275 275 276 276 275 275 274 274 274 273 273 272 272 271 270 268 268 269 268 268 268 267 267 267 267 267 267 267 267 267 267 268 268

GFSNGP_925_thetae_054.txt.gz
Theta_e
319 320 321 322 322 321 320 321 324 324 319 318 318 320 319 319 320 322 323 324 322 320 318 315 313 310 308 305 303 302 300 299 297 297 297 296 296 296 296 296 296 296 295 295
326 323 322 322 320 320 320 320 319 320 319 319 319 318 317 317 319 319 322 322 320 319 317 314 311 309 306 304 302 300 298 297 296 295 295 294 294 294 295 295 295 295 295 294
329 321 319 322 321 319 319 319 319 320 320 319 318 318 318 317 317 319 320 320 319 318 315 312 310 307 304 302 299 298 296 295 295 294 294 294 294 294 294 295 295 295 294 293
332 318 325 318 317 316 316 316 316 316 317 317 318 318 317 317 318 319 318 319 318 316 313 310 306 303 300 299 297 296 295 294 294 294 293 293 294 294 295 295 294 294 293 292
327 324 319 318 316 315 315 316 316 316 316 317 318 317 317 317 318 318 318 317 315 312 309 305 302 300 299 298 297 295 294 294 293 293 293 293 294 294 293 293 293 293 292 291
328 330 327 320 316 315 315 319 315 314 316 317 316 321 320 318 316 316 316 315 312 308 305 302 299 298 298 297 296 294 294 293 293 293 293 293 293 293 292 291 291 292 291 289
326 328 327 320 317 315 319 323 316 316 315 317 317 321 318 317 316 315 314 311 307 303 300 299 298 296 296 295 294 294 293 293 293 293 293 293 293 292 292 292 292 291 290 288
331 326 327 317 315 318 321 319 317 317 319 321 319 317 316 316 314 311 303 301 300 299 299 297 296 295 294 293 293 293 293 293 292 293 292 292 291 292 292 292 290 289 289 288
327 326 321 316 318 319 317 316 316 317 317 316 317 316 314 313 307 301 300 299 299 299 297 296 295 294 293 293 293 293 292 292 292 292 292 290 290 289 290 290 289 288 288 288
322 317 317 316 316 317 316 317 316 316 315 315 316 316 313 305 302 299 299 299 297 297 296 295 294 293 293 293 292 292 292 292 292 292 291 290 289 288 288 289 289 289 288 288
319 318 316 318 317 316 316 316 315 314 314 315 315 312 305 301 300 299 298 298 297 296 295 295 293 293 293 292 292 292 292 292 292 292 292 290 289 288 287 287 287 287 287 287
326 318 319 318 315 314 315 314 312 310 306 305 304 302 300 299 298 298 297 298 297 296 294 294 293 293 292 292 292 292 292 291 291 291 290 289 288 288 287 287 287 286 286 286
319 316 316 314 312 311 309 308 306 304 302 301 300 299 299 298 297 297 297 297 296 295 293 293 293 292 292 292 292 292 292 292 291 291 290 289 288 288 288 288 287 287 287 286
314 315 314 313 308 305 304 302 301 300 300 299 299 298 298 298 298 297 296 295 294 293 293 292 293 293 293 293 293 293 292 292 291 291 290 290 289 288 288 288 287 287 287 286
311 311 309 306 305 304 302 301 299 299 298 298 299 297 297 296 294 293 293 293 293 293 293 293 293 292 292 292 293 292 292 292 292 291 291 290 289 288 288 288 287 287 287 286
308 307 306 305 303 302 300 300 299 299 298 297 296 294 293 292 292 292 292 292 292 292 292 291 291 291 291 291 291 292 292 292 292 291 290 289 289 289 289 288 288 288 287 287
307 305 303 303 302 300 300 299 298 296 294 293 292 290 291 291 292 292 292 292 291 290 289 290 290 291 291 291 292 292 292 292 292 291 289 288 288 288 288 288 287 287 288 288
304 303 302 302 301 298 295 294 294 293 292 291 290 290 289 289 289 288 287 287 286 287 288 290 288 287 287 287 288 289 290 291 291 290 287 286 286 286 286 286 286 286 286 287
301 300 300 297 295 295 294 293 293 291 288 286 286 287 286 286 285 285 286 285 286 288 287 286 285 284 285 287 287 287 287 287 289 288 287 286 286 286 287 287 286 287 287 287
297 295 295 294 293 293 291 291 290 288 286 284 284 284 283 283 283 284 284 285 286 284 281 282 282 283 284 284 284 285 285 285 287 287 287 286 286 286 286 286 286 285 287 286
294 293 292 291 289 287 287 286 286 285 284 282 283 282 280 281 282 282 284 284 283 280 280 280 281 280 279 279 280 283 285 285 286 286 285 284 283 282 281 281 281 280 280 282
293 292 291 291 289 287 285 284 284 282 282 281 281 280 280 281 281 281 281 280 279 279 279 280 277 276 276 278 281 282 284 284 283 282 281 280 279 279 279 278 278 277 278 277
292 290 288 288 288 286 284 282 283 281 280 280 280 279 279 279 280 280 280 278 278 277 277 277 274 274 275 276 276 277 277 277 276 277 277 277 277 277 276 276 275 275 274 275
291 289 288 286 285 285 284 282 282 282 280 280 280 279 278 279 278 278 277 277 276 275 275 274 273 271 272 273 273 273 274 272 272 272 272 273 273 273 273 272 272 272 272 272
288 287 286 286 285 284 282 281 281 281 280 280 279 278 278 277 276 276 276 275 274 274 274 273 272 270 270 270 270 270 270 270 269 269 269 270 269 270 269 269 268 268 269 269
288 286 283 282 281 281 280 280 280 280 279 279 277 277 277 276 276 275 275 274 273 273 272 272 271 270 269 269 269 268 268 268 267 267 267 267 267 267 266 266 266 266 267 267
283 284 283 282 280 279 278 278 278 278 278 276 275 276 276 276 275 274 274 273 272 272 271 271 270 270 269 268 268 267 267 266 265 266 265 265 265 264 264 264 265 265 265 266

GFSNGP_925_thetae_057.txt.gz
Theta_e
318 319 320 320 321 320 321 320 319 319 320 318 315 315 314 314 316 319 319 319 320 317 315 313 309 307 306 306 304 302 301 297 296 296 296 296 295 295 295 294 295 295 295 296
323 323 320 319 320 319 318 318 318 317 317 316 314 313 312 313 316 317 320 319 317 315 313 310 308 307 306 304 303 299 297 296 295 295 294 294 294 294 294 294 294 295 295 295
323 315 316 314 317 317 318 317 317 317 315 315 314 314 313 313 314 316 318 317 316 314 312 310 308 307 304 301 298 297 295 295 294 294 294 294 293 293 294 294 295 294 294 294
316 313 312 316 316 314 316 314 313 313 314 315 314 314 313 312 314 314 315 315 312 310 308 307 306 303 299 298 297 296 294 294 294 293 293 293 293 293 294 294 293 293 292 292
314 315 318 316 315 314 314 314 313 313 314 314 314 313 314 313 313 313 312 311 308 305 301 300 299 298 297 296 295 295 294 294 294 293 293 293 293 293 293 293 292 291 292 291
314 316 313 316 314 314 313 313 314 313 313 314 312 314 315 312 312 311 309 306 303 299 298 298 297 297 296 295 295 295 294 295 294 293 293 293 293 293 293 292 292 292 291 291
309 312 315 319 314 314 312 313 315 314 317 316 316 314 313 307 302 302 300 299 298 296 295 296 296 296 294 294 293 294 294 293 293 293 292 292 292 292 291 291 292 291 290 289
316 319 317 318 314 313 316 315 314 315 315 315 314 313 309 302 300 299 298 297 296 295 295 295 294 294 295 298 297 294 293 293 292 292 293 292 292 290 289 289 290 290 289 288
317 317 317 317 316 314 313 313 314 313 313 314 313 312 301 299 298 298 297 296 296 296 295 295 295 297 295 294 293 293 293 292 292 292 292 292 291 290 289 288 287 287 289 288
317 318 314 316 315 315 314 313 313 312 313 313 313 302 299 298 298 298 297 297 297 296 296 295 296 294 294 293 293 292 292 292 292 292 292 291 290 290 288 288 287 287 287 287
317 316 317 315 314 314 314 312 306 303 304 307 303 300 299 298 298 298 297 297 296 296 296 295 294 293 293 292 292 292 292 292 292 291 291 291 290 290 288 288 287 287 286 286
312 317 316 314 313 310 308 306 303 301 300 299 298 298 298 298 298 298 298 298 297 296 295 294 293 293 292 292 292 292 292 292 292 291 291 291 290 290 289 288 288 287 287 287
316 313 310 306 305 305 303 302 301 300 299 299 298 298 298 297 297 297 297 297 297 295 294 292 292 292 292 292 292 292 292 292 292 292 291 291 291 290 288 289 288 288 287 287
312 309 308 305 303 301 301 300 299 298 298 297 297 297 297 297 297 297 294 292 292 292 292 292 292 291 290 290 290 290 291 292 292 292 292 291 291 290 290 288 287 287 287 287
307 307 304 303 302 301 299 298 297 297 297 296 295 293 292 292 292 292 292 292 291 290 289 288 287 288 290 291 291 291 291 291 291 291 291 291 291 290 289 288 288 287 287 287
305 304 303 302 301 299 298 297 297 296 293 292 291 291 291 292 291 290 290 286 286 286 286 288 289 288 287 286 286 286 287 288 288 289 290 290 289 288 288 289 288 288 287 287
303 302 301 301 299 299 297 295 294 292 291 290 289 288 287 288 286 285 285 284 285 287 286 286 284 283 282 283 284 285 286 286 287 286 285 287 288 288 287 286 286 285 285 285
303 302 301 300 296 294 293 292 290 289 288 288 285 284 284 283 284 284 284 284 285 285 282 282 280 280 282 282 281 280 281 283 284 284 284 285 287 287 286 286 286 285 286 286
301 301 298 295 294 293 292 290 287 285 285 284 283 283 282 282 283 282 283 284 281 280 280 279 280 280 279 277 278 279 280 280 282 283 284 285 286 286 286 286 285 284 284 283
295 294 293 292 292 291 289 287 285 283 283 282 281 280 280 281 281 282 281 282 279 279 278 279 278 276 275 276 277 278 279 281 282 283 284 283 282 281 281 280 279 279 279 279
293 290 289 288 286 286 286 285 284 282 282 280 279 279 280 280 281 280 280 279 278 277 276 277 274 273 274 274 275 275 276 275 276 277 278 278 279 278 277 277 276 276 276 276
291 289 287 286 285 285 283 282 281 280 281 279 279 279 279 279 279 279 278 277 277 275 276 274 272 272 272 272 272 272 273 272 272 272 273 274 274 274 274 273 273 273 272 272
290 289 287 286 284 282 283 281 280 280 280 279 278 278 278 278 278 277 276 276 274 274 274 273 272 271 270 270 270 270 270 269 269 269 270 270 270 271 270 269 269 269 269 270
288 287 286 285 283 282 282 282 281 280 280 279 278 278 277 277 276 275 275 274 274 273 272 272 271 270 269 268 268 268 268 267 267 267 267 267 267 268 267 267 267 266 267 267
287 286 285 284 283 281 280 281 280 279 279 278 277 277 277 276 275 275 274 274 273 272 272 271 270 270 269 268 268 267 267 266 266 266 265 265 265 265 265 265 265 265 265 265
284 282 281 281 280 279 279 279 279 278 278 277 276 276 276 276 275 274 273 273 272 272 271 270 269 269 268 267 267 266 266 265 265 265 264 263 263 263 262 262 263 263 263 264
283 282 280 279 279 278 278 278 277 277 277 276 275 275 276 275 274 273 272 271 271 271 270 269 268 268 267 267 266 266 265 264 264 264 263 262 262 261 261 261 261 261 262 262

GFSNGP_925_thetae_060.txt.gz
Theta_e
317 318 320 320 320 320 319 318 318 317 318 317 315 314 313 313 316 319 319 318 318 317 315 309 307 306 306 306 307 304 302 300 297 296 296 295 295 294 293 293 294 294 295 295
320 317 317 318 317 317 318 317 317 317 316 315 314 312 313 313 313 317 317 318 316 315 312 309 307 306 306 305 302 299 296 295 295 294 294 293 294 296 296 293 294 294 295 294
319 313 316 316 316 316 317 316 316 316 314 313 312 311 311 313 312 317 317 317 316 314 311 309 307 305 303 300 297 296 295 294 294 294 294 297 298 294 293 293 294 294 293 292
314 311 316 318 315 315 314 312 312 314 314 313 312 312 311 311 314 315 314 313 311 309 307 305 304 302 298 296 295 294 294 294 295 296 298 295 293 293 293 293 293 293 292 291
313 315 316 316 315 310 312 313 312 314 313 313 312 312 312 310 310 310 307 304 302 301 300 300 298 297 296 295 294 294 294 296 297 296 293 293 293 293 293 293 293 292 292 291
315 312 313 314 313 312 310 312 314 312 313 312 312 312 313 304 305 302 300 298 297 296 296 295 295 295 294 295 295 294 296 298 298 294 293 293 293 292 292 292 291 291 291 291
306 307 310 312 314 312 311 310 313 315 315 315 315 311 304 299 298 297 296 295 295 295 294 294 294 294 294 296 297 296 295 293 293 293 293 292 292 292 292 291 289 289 290 290
310 306 315 314 313 313 310 312 314 315 313 312 308 301 300 298 297 296 295 295 294 294 294 295 296 299 299 298 296 294 293 293 293 292 292 292 292 292 291 290 289 288 287 287
315 314 312 314 314 312 312 312 313 312 313 309 303 300 298 297 296 295 295 294 295 295 296 297 297 296 294 293 293 292 292 292 292 292 292 292 292 291 290 290 289 288 287 286
318 316 315 314 313 312 311 311 309 310 311 308 300 298 298 297 296 296 296 296 296 296 296 295 294 294 294 293 293 292 292 292 292 291 291 291 291 291 290 289 289 288 287 286
316 316 315 314 313 311 304 302 301 300 304 300 299 298 298 297 297 297 297 296 296 296 295 294 294 293 292 292 292 292 292 292 291 291 291 291 291 291 290 290 290 289 288 287
313 315 312 313 309 306 303 301 300 299 298 298 298 298 298 298 297 297 297 296 296 296 294 293 292 292 291 291 290 290 290 291 291 291 291 291 291 291 291 291 291 290 289 288
315 309 307 304 303 302 300 300 299 298 298 297 298 298 298 297 297 297 296 295 292 292 291 291 290 288 289 290 290 290 290 290 290 290 290 290 289 289 288 289 290 290 289 288
305 305 304 303 300 300 299 299 298 297 296 296 296 297 296 294 291 291 291 290 289 287 286 286 288 288 287 286 286 285 284 285 286 288 288 288 288 288 288 288 288 289 290 288
305 305 302 300 299 298 298 297 296 294 292 291 292 291 291 291 291 287 285 284 285 287 287 287 285 284 283 283 283 283 284 284 285 285 286 286 286 285 286 287 288 288 287 288
303 302 301 299 298 297 297 296 293 292 291 290 290 290 289 287 285 284 284 286 285 284 283 282 281 280 281 281 280 280 279 279 280 281 283 283 283 284 284 286 287 287 287 285
302 301 299 298 297 297 296 294 292 290 289 287 286 286 284 284 284 284 284 284 284 281 281 279 280 280 279 278 277 278 279 279 279 280 280 281 282 283 284 285 286 285 285 285
302 300 298 297 295 293 292 290 289 288 286 284 282 282 283 283 283 283 282 282 281 280 278 279 278 277 276 276 276 277 277 278 278 279 281 282 281 282 284 284 283 282 281 281
301 298 295 294 293 291 288 287 286 284 283 282 281 281 281 281 281 282 281 279 279 278 278 277 276 275 275 274 274 275 275 274 275 276 277 277 278 278 278 278 277 277 277 276
295 294 294 292 290 287 285 284 284 282 280 280 281 280 280 280 280 281 279 278 276 276 276 275 274 273 273 273 272 273 272 271 271 272 272 273 274 274 274 274 274 273 273 273
292 291 289 288 286 285 283 282 282 281 279 279 280 280 279 279 279 278 277 277 276 275 275 273 271 271 271 271 270 271 270 269 269 269 269 270 270 271 271 270 270 270 270 270
289 287 286 285 284 283 282 282 281 279 279 278 278 279 279 278 277 276 276 275 274 274 273 272 271 270 269 269 268 268 268 267 267 267 267 267 267 269 268 267 267 267 267 268
287 286 285 284 283 282 280 280 280 279 279 278 278 278 277 277 276 275 275 274 273 273 272 271 271 270 269 268 268 267 267 266 266 265 265 265 265 266 265 265 265 265 265 266
287 285 284 283 282 281 280 280 280 279 278 278 278 277 277 275 275 275 274 273 273 272 271 271 270 269 268 268 267 267 266 265 265 265 264 264 263 263 263 263 263 263 264 264
286 285 283 283 282 281 282 280 280 279 278 277 277 277 276 276 275 274 273 273 272 272 271 270 269 268 268 267 266 266 265 265 264 264 263 263 262 262 261 261 261 262 262 262
283 282 281 281 280 280 280 279 278 278 277 276 275 275 276 275 274 274 272 271 271 271 270 269 268 268 267 266 266 265 265 264 263 263 262 262 261 261 261 261 261 260 260 261
281 280 280 279 278 278 278 277 276 276 276 275 274 274 275 274 274 273 271 270 269 269 269 268 267 267 266 265 265 265 264 264 263 262 262 261 261 261 260 260 260 260 260 260

GFSNGP_925_thetae_063.txt.gz
Theta_e
316 316 317 318 318 317 317 316 317 316 315 315 314 313 312 312 313 318 320 316 315 315 314 309 307 306 307 307 307 306 306 306 304 300 298 297 295 294 294 294 294 293 294 294
318 316 316 319 317 316 316 317 316 315 315 312 312 311 311 310 312 315 318 316 316 315 311 307 306 307 307 306 307 306 303 300 297 296 294 294 296 296 295 294 293 293 294 294
317 314 315 315 314 315 316 315 315 315 313 312 312 312 311 310 312 316 316 316 315 312 309 308 306 306 305 306 304 302 297 295 294 294 295 297 296 294 293 293 293 293 293 292
313 312 315 315 314 314 314 312 310 313 313 311 312 311 309 308 313 314 314 313 311 310 307 306 306 305 304 300 297 295 294 294 295 296 297 295 293 293 293 293 293 293 292 292
313 315 315 318 315 312 311 312 312 312 312 312 312 312 311 304 302 303 303 301 300 301 301 301 300 297 296 294 294 294 295 296 297 297 294 293 293 292 292 292 292 292 291 291
308 313 316 316 314 311 309 311 312 311 312 312 311 308 311 300 297 296 295 296 295 295 295 295 294 295 294 294 295 296 297 297 297 294 294 293 293 292 292 292 291 291 290 289
306 308 313 311 312 310 311 311 311 310 310 310 311 306 301 296 295 295 294 294 294 293 293 293 294 295 295 296 296 296 296 295 294 293 292 292 292 292 292 291 291 290 290 289
305 305 318 311 312 311 309 313 314 312 311 307 301 299 297 296 295 294 293 293 293 293 294 295 297 299 298 296 296 295 294 293 292 292 292 292 292 292 291 291 290 290 289 289
314 314 312 312 311 311 310 312 313 311 308 303 300 298 297 295 294 293 293 293 294 296 296 296 295 295 294 293 293 292 292 292 292 292 291 291 291 291 291 291 290 290 289 289
314 316 315 314 312 311 311 311 310 310 304 301 298 297 296 294 294 294 294 295 295 296 295 294 294 293 293 292 292 292 292 291 291 291 291 291 291 291 291 291 290 289 288 287
315 315 314 313 311 305 303 303 303 303 302 299 298 296 295 295 294 295 295 296 295 294 293 292 291 290 290 290 291 291 290 290 290 290 290 290 290 290 289 290 289 289 289 289
315 313 312 313 307 303 303 301 300 299 298 298 297 296 296 296 296 296 295 295 294 291 291 290 289 289 289 288 287 287 286 285 284 285 285 286 286 286 286 287 287 288 289 289
314 311 307 305 302 301 300 299 298 298 297 297 297 297 297 297 296 293 292 291 290 288 287 288 287 285 284 284 284 283 282 283 283 283 284 284 285 285 285 285 285 285 286 287
304 304 303 302 301 299 298 297 297 296 296 296 295 294 292 291 290 290 289 287 286 287 287 285 284 282 282 282 281 280 279 279 280 280 280 281 282 283 284 283 282 283 284 285
303 303 302 299 298 297 296 296 294 293 292 291 292 292 291 288 286 285 285 286 286 284 282 282 281 281 280 279 278 278 278 279 279 279 279 279 280 280 281 281 282 282 284 285
301 300 300 299 297 296 295 293 292 291 291 290 290 289 287 285 285 285 285 284 283 281 280 280 280 279 277 277 277 277 278 278 278 278 278 279 280 280 280 281 282 283 284 283
301 300 299 298 296 296 293 292 291 290 289 288 286 285 284 284 284 283 282 281 280 279 279 278 277 276 276 276 276 276 276 276 275 276 276 277 277 278 278 278 278 278 278 277
303 301 299 297 296 293 291 290 288 287 286 284 283 283 283 283 283 281 280 280 279 278 277 276 275 275 275 274 274 274 273 273 273 273 273 273 274 274 274 274 274 274 274 274
299 298 296 295 293 291 289 287 285 283 282 282 281 281 281 282 281 280 279 278 277 277 276 274 274 273 273 273 272 272 272 271 271 271 271 271 271 271 270 270 270 270 270 271
296 294 292 290 289 288 285 284 283 281 281 281 280 280 279 280 280 279 278 276 275 276 274 273 272 272 271 271 271 271 270 269 269 268 268 268 268 268 268 267 267 267 268 268
292 290 288 286 285 284 283 282 281 280 280 280 280 279 279 279 279 278 277 276 275 274 273 272 271 270 270 269 269 268 268 267 267 266 266 266 266 266 266 265 265 265 265 266
289 287 285 284 284 283 282 281 280 279 279 279 279 278 278 277 276 276 275 275 274 273 272 272 271 270 269 268 268 267 266 266 265 265 265 264 264 264 264 263 263 263 264 264
287 286 285 284 283 282 281 279 279 279 278 278 278 278 278 277 276 275 275 274 273 272 272 271 270 269 269 268 267 266 266 265 264 264 264 263 263 262 262 262 262 262 262 262
285 285 283 282 280 280 280 279 279 278 278 278 277 277 276 275 275 274 274 273 273 272 271 270 270 269 268 267 267 266 265 265 264 264 263 263 262 262 262 261 261 261 261 261
284 283 282 282 282 281 281 280 278 278 278 277 277 276 276 275 275 274 273 273 272 271 271 270 269 268 267 266 266 265 265 264 264 263 263 262 261 261 261 261 261 260 260 260
283 282 281 281 281 281 280 279 278 277 276 275 275 276 276 275 274 273 272 271 270 270 270 269 268 267 266 265 265 265 264 264 263 263 262 261 261 261 260 260 260 260 260 260
280 280 279 279 278 278 278 277 277 276 276 275 274 274 275 274 273 272 271 270 269 268 268 268 267 266 265 265 264 264 264 263 263 262 261 261 260 260 260 260 260 260 260 260

GFSNGP_925_thetae_066.txt.gz
Theta_e
315 315 315 315 316 314 315 314 316 316 313 313 313 312 311 310 309 315 319 317 317 316 314 311 309 309 308 307 307 307 305 305 306 306 303 298 296 296 294 293 294 294 294 294
317 316 316 319 317 315 315 315 314 314 314 311 311 308 310 308 308 310 316 318 314 314 311 310 307 306 306 306 305 306 305 306 304 299 296 295 294 295 295 295 293 293 293 293
317 313 315 315 314 315 315 314 314 315 313 311 312 311 311 309 309 313 316 315 313 312 309 308 307 306 306 306 305 305 305 300 296 294 294 296 296 295 293 293 293 293 293 292
313 310 312 314 313 313 314 312 311 310 312 311 310 309 305 303 308 313 313 312 309 307 306 306 306 306 305 305 304 300 296 294 294 295 297 296 294 294 293 292 292 292 292 292
316 314 313 315 314 313 312 312 309 310 311 311 310 310 308 299 298 299 300 299 299 302 302 301 300 300 301 298 296 294 294 295 297 298 295 297 295 293 292 292 292 292 291 291
308 313 315 314 314 309 309 311 309 310 311 311 308 307 307 297 295 294 294 294 294 295 295 296 295 297 295 293 294 296 297 297 297 296 295 294 293 292 292 291 291 291 291 290
305 309 313 313 311 307 311 311 308 309 310 309 308 303 297 295 294 293 293 293 293 293 292 293 293 294 294 295 295 296 297 296 294 293 293 292 292 291 291 291 291 291 290 290
305 308 319 310 311 310 309 310 310 308 308 307 299 297 296 294 293 292 292 292 293 293 293 294 295 297 296 296 296 295 293 293 292 292 291 291 291 291 291 291 291 290 290 290
316 316 314 309 310 308 307 311 311 310 307 302 298 297 295 293 292 292 292 293 295 294 294 294 295 295 293 292 292 292 292 291 291 291 291 290 290 290 290 290 289 289 287 287
314 314 312 312 312 310 310 311 309 307 302 300 298 296 294 293 292 293 294 294 294 293 292 290 291 291 291 291 291 291 290 289 289 288 287 286 286 285 285 285 286 286 286 286
312 314 314 312 310 308 306 306 305 301 300 298 297 295 294 293 293 293 294 294 293 291 289 289 290 289 288 288 288 287 286 284 283 282 282 282 282 282 283 284 285 285 286 286
316 313 313 312 307 304 305 304 302 299 298 296 296 295 294 294 294 294 293 291 290 290 290 288 286 285 285 285 284 283 282 281 280 280 280 280 281 281 282 282 282 283 282 282
315 312 307 305 301 301 301 299 298 298 297 295 295 295 295 294 293 292 291 290 289 288 287 284 284 283 282 282 280 279 279 279 279 279 279 279 279 280 280 280 280 280 281 281
305 306 305 303 303 298 298 297 297 296 296 295 294 293 292 291 290 289 288 287 287 286 284 282 282 280 279 278 278 278 279 278 278 279 278 277 278 279 279 280 280 280 280 280
302 302 302 298 297 296 295 295 295 294 292 292 292 291 290 288 287 286 286 285 284 282 281 281 280 278 277 277 277 277 277 277 277 277 277 278 278 277 277 277 277 277 277 277
301 300 299 297 296 295 295 294 293 292 292 291 289 287 286 285 285 285 284 283 282 280 279 278 277 276 276 276 276 276 276 275 275 275 275 275 275 275 275 274 275 274 274 274
301 299 297 297 296 295 294 293 292 291 290 288 286 285 285 284 283 282 281 280 280 279 277 276 275 275 275 275 275 274 273 273 273 273 273 273 272 272 272 271 272 271 271 271
301 299 298 297 295 292 291 290 290 289 287 285 284 284 284 284 283 281 279 279 278 276 275 275 274 274 274 273 273 273 272 272 271 271 271 270 270 270 269 268 268 268 268 268
298 297 296 294 292 291 290 288 286 284 283 283 282 282 282 281 280 279 278 277 277 277 274 273 273 273 272 271 271 271 271 270 270 269 269 268 268 268 267 266 266 266 266 266
296 294 292 291 289 288 286 284 283 282 282 282 281 281 280 280 279 278 277 276 276 275 274 273 272 271 270 270 269 269 269 268 268 267 267 266 266 266 265 265 264 264 264 264
291 290 289 287 285 284 283 282 282 281 280 280 280 279 278 278 278 277 277 276 274 274 273 272 271 270 269 269 268 267 267 266 266 265 265 264 264 264 263 263 263 263 263 263
288 286 285 284 283 282 281 281 280 280 279 279 279 278 278 276 276 276 276 275 274 273 272 271 270 270 269 268 268 267 266 266 265 264 264 264 263 262 262 262 262 262 262 262
286 285 284 284 283 281 279 279 279 279 278 278 278 277 277 276 276 275 274 273 273 272 272 271 270 270 269 268 267 267 266 265 264 264 263 263 262 262 261 261 261 261 261 261
284 283 282 281 280 280 279 279 278 278 278 278 277 277 276 275 275 274 274 273 273 272 271 271 270 269 268 267 266 266 265 265 264 263 263 262 262 261 261 260 260 261 261 261
283 282 282 282 281 281 280 279 278 278 277 277 276 276 275 275 275 274 273 273 272 271 271 270 269 268 267 266 266 265 265 264 264 263 263 262 261 261 260 260 260 260 260 260
283 282 282 281 281 280 280 279 278 277 276 275 275 276 276 275 274 274 273 272 271 270 269 269 268 267 266 266 265 264 264 264 263 263 262 262 261 260 260 260 260 260 260 260
280 280 279 278 277 277 277 277 276 275 275 274 274 274 274 274 273 272 271 270 269 268 267 267 267 266 265 265 264 264 264 263 262 262 261 261 260 260 259 259 259 259 259 260

GFSNGP_925_thetae_069.txt.gz
Theta_e
315 313 316 318 319 318 320 320 323 322 317 318 317 317 316 313 312 312 315 320 323 325 324 319 317 315 313 310 308 308 307 306 304 305 307 306 300 296 297 296 295 294 295 294
317 315 316 317 316 316 317 316 316 315 316 315 315 313 312 312 312 312 313 315 319 320 318 314 312 311 309 309 308 307 306 304 306 307 300 296 296 296 294 295 295 296 294 293
320 315 317 319 318 318 317 316 318 319 319 315 313 312 314 313 313 316 317 317 316 317 315 312 310 309 309 308 307 305 304 306 303 296 294 294 296 294 295 297 299 293 293 292
320 313 323 320 314 315 317 316 314 314 313 314 312 311 308 305 311 315 315 314 312 311 310 309 308 308 306 303 301 303 302 297 294 295 296 295 296 298 298 294 292 293 292 292
322 320 317 315 315 316 317 316 314 314 312 312 312 311 310 301 301 304 306 305 305 305 303 303 302 301 301 299 297 296 294 294 297 298 296 298 299 295 293 292 292 291 291 291
313 321 322 318 313 311 312 318 313 312 314 314 313 318 314 301 299 299 299 299 299 298 298 298 298 299 298 295 294 294 296 297 297 297 297 295 293 292 291 291 291 291 291 290
314 321 318 314 311 310 321 320 311 312 314 314 313 310 303 298 297 296 296 296 296 296 296 296 296 296 295 296 296 297 297 296 294 293 292 292 291 291 291 291 290 290 290 290
314 319 323 312 309 316 317 310 310 311 313 311 303 299 298 297 296 295 295 295 295 295 294 295 295 296 295 295 294 293 293 292 291 291 291 291 290 290 290 289 289 288 287 287
319 322 317 311 315 311 310 313 312 312 310 305 301 299 297 296 295 294 295 295 295 295 294 294 294 294 292 291 292 292 291 290 290 289 288 287 286 286 285 285 285 285 286 286
318 317 315 313 311 312 310 312 311 310 307 304 302 298 296 295 294 296 295 294 293 293 292 291 291 290 290 290 290 290 288 287 286 285 284 283 283 283 283 284 284 284 284 284
317 315 315 315 314 312 310 310 307 304 303 303 300 297 296 295 295 295 294 293 292 291 291 289 288 287 286 287 287 286 284 283 282 282 282 282 282 282 282 282 281 282 282 282
320 316 317 316 314 310 310 310 305 302 300 299 298 296 295 296 295 294 292 291 291 290 288 286 285 284 283 283 283 282 282 281 281 281 281 281 281 281 280 280 280 280 281 280
316 313 309 306 304 305 307 305 301 301 299 297 296 295 295 296 294 292 292 291 291 288 285 284 283 281 280 280 280 280 280 280 280 279 279 279 280 280 280 280 279 278 278 278
307 307 308 305 307 301 301 299 298 297 297 296 295 295 294 293 291 291 290 288 285 283 283 282 281 279 279 279 279 279 279 277 278 278 279 279 279 278 278 278 277 277 276 275
304 303 305 300 299 298 298 297 297 296 295 294 294 293 292 291 290 288 286 284 283 283 282 280 279 278 278 278 278 278 278 277 276 277 277 277 277 276 276 275 276 275 275 274
301 300 300 301 299 297 297 296 295 294 294 292 291 290 289 287 286 284 283 283 283 281 279 278 277 277 277 277 277 277 276 274 274 275 275 275 274 274 274 273 274 273 272 271
301 300 299 298 298 297 298 296 295 293 291 289 288 286 285 285 283 282 281 280 279 277 276 276 276 276 275 275 275 274 273 273 273 273 273 272 272 272 271 271 271 270 270 269
301 301 300 299 297 294 293 292 292 290 288 286 285 284 284 284 282 281 280 278 277 276 275 275 275 274 273 273 273 272 271 271 271 271 270 270 269 269 270 268 268 268 268 267
298 297 295 294 293 292 291 289 287 285 285 285 284 283 282 281 281 280 278 277 276 276 274 273 273 272 271 271 271 270 270 269 269 269 268 267 267 267 267 267 266 266 266 265
294 292 291 290 289 288 286 285 285 284 283 283 282 281 280 279 278 278 278 278 277 275 273 272 272 271 270 270 269 268 268 267 267 266 266 265 265 265 265 264 263 264 264 264
290 289 288 286 284 284 284 283 283 282 281 281 281 280 279 277 277 277 277 277 274 273 273 272 271 270 269 269 268 267 267 266 265 265 264 264 263 263 263 262 262 262 262 262
287 285 284 284 283 283 282 281 280 280 279 279 279 278 277 277 277 276 276 276 274 273 272 271 271 270 269 268 268 267 266 266 265 264 264 263 263 262 262 261 261 260 261 260
285 284 283 282 281 280 279 279 278 278 278 278 278 278 277 277 276 276 276 274 273 272 272 271 270 270 269 268 267 267 266 265 265 264 263 263 262 261 260 260 259 259 259 259
284 282 281 280 280 280 280 279 279 278 278 277 277 276 276 276 274 274 274 273 272 272 271 271 270 269 268 268 267 266 265 265 264 264 263 263 262 261 260 260 260 259 259 259
283 282 282 282 281 280 279 279 278 278 277 277 276 275 275 275 275 274 273 273 272 271 270 270 269 268 268 267 266 265 265 264 264 263 263 262 262 261 260 259 259 259 259 259
283 282 281 281 280 280 279 279 278 277 276 275 275 275 275 275 274 274 273 272 271 270 269 268 267 267 266 266 265 265 264 264 263 263 262 261 261 260 259 259 259 259 259 259
279 279 278 277 276 276 277 277 276 275 274 274 274 274 274 274 273 272 271 270 269 268 267 267 266 266 265 265 264 264 263 263 262 261 261 260 260 259 259 258 258 258 258 258

GFSNGP_925_thetae_075.txt.gz
Theta_e
319 319 319 319 319 319 320 321 324 322 321 319 319 320 321 321 322 322 321 320 322 325 329 331 331 331 330 331 329 325 321 317 312 310 310 309 308 307 307 307 306 303 302 300
320 319 319 318 318 318 318 319 319 319 319 320 321 320 319 320 321 321 321 320 320 322 326 331 331 331 329 325 321 318 314 310 308 308 306 305 305 306 305 302 300 300 300 300
324 320 320 325 319 319 319 319 320 321 321 320 320 319 320 319 319 321 321 323 322 323 327 330 330 324 319 317 315 314 311 308 306 304 302 305 304 301 299 299 298 300 301 302
328 326 329 321 320 320 320 319 320 320 320 320 320 320 319 321 321 322 323 323 324 326 326 326 323 318 315 314 311 309 307 305 304 303 302 300 300 300 300 301 302 303 301 299
331 328 322 319 319 320 320 320 320 320 320 320 319 320 320 318 318 322 323 323 323 323 323 322 319 316 313 310 309 307 306 305 303 302 300 298 299 301 302 302 300 299 298 296
328 328 329 322 320 320 320 325 320 320 320 320 318 321 318 318 317 318 318 318 319 320 320 319 317 315 313 310 308 307 304 302 300 299 301 302 301 302 300 299 297 295 295 295
330 332 323 320 320 320 324 324 320 320 320 319 319 319 320 317 317 316 315 315 315 316 316 315 312 310 308 307 306 303 301 300 301 300 300 300 299 297 296 295 295 295 294 293
329 336 332 320 319 321 323 324 322 322 320 320 321 318 317 316 315 314 314 312 314 314 313 312 310 309 307 305 303 301 301 299 299 298 297 297 296 295 295 294 294 292 290 290
325 326 323 320 321 322 321 323 323 322 320 321 320 316 315 314 313 312 312 312 311 310 309 307 306 306 305 302 301 299 299 298 297 296 294 294 294 293 291 290 290 290 289 289
322 321 323 323 322 321 321 321 321 320 320 320 319 315 314 313 313 312 311 310 308 307 306 305 303 302 302 301 299 298 297 296 294 293 291 290 289 288 289 289 288 287 287 287
320 319 320 322 323 323 322 320 319 319 319 320 317 314 313 312 312 311 309 307 306 306 304 302 301 299 298 298 297 295 293 291 290 289 289 288 288 287 287 284 283 285 285 284
324 321 322 322 321 323 323 322 320 320 318 318 317 314 312 311 310 308 306 305 303 302 300 298 297 295 295 294 293 291 290 289 289 288 287 287 287 286 283 282 280 279 279 279
320 320 322 322 317 317 321 321 321 320 318 316 315 313 311 309 307 304 304 302 301 299 297 294 291 289 288 288 289 289 288 286 284 286 286 286 285 285 286 282 282 280 280 278
319 320 320 319 320 314 314 315 312 315 315 314 312 309 308 307 303 302 301 300 298 295 291 288 286 285 285 285 284 283 283 283 285 285 285 284 284 284 283 283 283 282 280 279
319 318 318 316 313 313 311 310 311 311 310 309 307 306 305 303 302 301 298 295 292 288 286 285 284 283 283 283 283 283 282 282 283 283 282 281 281 281 281 281 281 280 280 280
318 315 313 313 313 311 310 309 309 307 306 305 305 304 301 300 297 293 291 288 287 285 283 281 281 281 281 281 281 280 279 277 279 280 280 280 280 280 280 280 279 279 279 278
316 315 313 313 311 310 310 308 307 305 304 303 301 299 295 290 286 283 282 281 281 281 280 280 279 279 280 280 280 280 279 278 276 278 278 278 278 278 278 278 278 277 277 276
312 312 311 312 310 308 306 304 303 300 297 290 287 286 285 284 282 281 280 280 280 279 279 278 277 277 277 277 277 276 276 276 276 277 276 277 277 275 276 276 276 276 275 275
308 307 306 304 302 297 296 293 290 288 287 287 286 285 283 282 282 281 280 280 279 279 277 276 275 275 274 274 275 275 275 275 275 275 275 274 275 275 274 274 274 273 273 273
299 297 295 294 293 292 290 289 288 286 285 285 284 283 282 281 281 281 281 279 279 277 276 275 274 274 273 272 273 274 274 274 274 274 274 272 273 273 273 272 272 272 271 271
290 289 288 288 287 287 287 287 287 286 285 284 283 283 282 281 280 279 279 278 275 275 274 274 274 274 273 273 273 274 274 273 273 273 273 272 272 272 272 271 271 270 270 269
287 287 287 286 286 286 285 285 284 283 282 281 281 281 280 280 279 279 279 277 275 275 275 275 274 272 272 272 273 273 273 272 272 272 271 271 271 271 270 270 269 269 268 268
287 286 286 285 285 284 283 283 282 282 282 282 282 281 281 281 281 281 279 277 276 275 276 275 272 271 270 272 272 272 272 271 271 271 270 270 270 269 269 268 267 267 267 266
287 286 286 285 284 283 283 281 280 280 279 280 280 280 281 280 279 277 276 275 275 275 275 272 271 270 269 272 271 271 270 270 270 270 269 268 269 268 268 267 267 266 265 265
286 286 285 285 284 283 283 282 282 281 280 280 279 279 279 279 280 278 277 274 273 275 273 271 270 269 271 271 270 270 269 269 269 267 267 267 267 267 266 266 265 265 264 263
285 285 284 284 284 283 283 282 282 282 281 280 279 278 278 277 276 276 274 273 273 272 272 271 270 269 269 269 269 268 268 268 267 267 266 265 265 265 265 265 264 263 263 262
283 282 282 281 280 280 280 280 279 278 278 279 277 276 276 276 274 274 273 273 272 271 271 270 270 269 268 267 267 267 266 266 266 265 264 264 264 263 263 263 262 261 261 260

GFSNGP_925_thetae_078.txt.gz
Theta_e
321 320 320 321 322 321 321 321 323 324 322 322 321 320 321 323 324 323 322 321 321 322 328 329 330 331 332 331 328 326 325 320 316 315 315 314 315 313 312 310 309 308 307 307
324 320 321 321 320 320 320 320 319 321 321 320 320 320 322 321 320 320 322 321 322 321 323 331 332 331 328 325 321 318 314 311 312 311 311 310 309 308 309 308 307 307 306 303
326 322 320 321 321 320 319 319 320 320 321 321 321 320 321 321 321 320 320 322 323 323 323 333 328 323 319 317 316 313 311 310 309 309 307 306 306 306 306 306 304 302 300 301
326 324 326 321 321 320 320 320 320 320 320 320 320 320 320 321 321 321 323 323 323 324 329 325 320 317 316 315 312 310 309 308 306 305 303 304 305 306 304 300 299 300 301 302
328 326 323 321 321 321 321 321 321 320 320 320 320 321 320 321 320 320 324 324 324 326 325 321 318 315 312 311 310 308 307 305 304 303 303 303 301 301 300 301 302 302 300 299
329 328 329 325 321 320 321 322 321 321 321 322 322 324 322 319 320 323 322 323 324 324 320 318 315 312 311 309 307 307 306 305 304 303 301 301 300 301 303 303 301 299 296 295
325 329 326 322 320 320 324 324 322 323 323 322 321 323 321 319 320 319 320 320 322 322 320 318 314 312 310 309 308 307 306 304 301 300 300 302 302 302 299 297 296 295 295 295
327 329 329 321 321 322 323 325 325 324 323 323 324 322 321 319 318 318 317 318 319 319 318 316 314 312 310 309 307 304 301 301 302 302 301 300 298 296 296 295 295 294 292 289
325 326 326 322 322 323 324 326 325 326 324 323 323 321 319 318 317 315 315 315 316 316 314 312 311 310 308 305 303 303 302 301 299 297 297 297 296 295 293 292 291 291 289 289
325 321 321 325 323 323 323 323 324 323 323 322 323 320 318 317 315 314 314 314 314 312 310 308 308 307 304 303 302 301 299 298 296 294 293 292 291 290 290 290 289 288 288 288
321 320 319 320 322 324 324 324 322 321 321 321 322 319 317 315 314 313 313 312 310 309 307 305 304 303 302 301 300 299 297 294 292 290 290 289 289 288 288 287 286 286 286 284
325 321 323 322 322 323 325 322 322 321 321 320 321 318 316 314 314 312 310 309 308 306 304 302 301 299 299 298 296 294 292 290 289 288 288 288 287 285 284 283 283 281 280 279
319 321 323 323 319 317 320 323 322 322 322 320 318 317 315 313 312 310 308 306 304 302 300 297 292 289 289 289 290 289 287 287 286 286 286 286 286 286 285 283 282 282 281 280
317 316 322 321 320 316 316 315 315 317 317 317 316 314 312 310 307 306 305 303 300 295 291 288 287 286 285 285 286 285 285 286 285 285 285 285 284 284 284 284 284 283 281 280
321 320 319 316 315 314 313 313 313 313 313 312 311 310 307 305 305 302 298 294 290 287 286 285 284 283 283 283 283 283 283 283 283 282 281 281 282 282 282 282 281 281 280 280
316 319 316 315 314 312 311 311 310 309 309 308 307 305 302 296 292 289 289 287 286 284 282 282 281 281 281 281 282 280 279 279 280 280 280 280 280 280 280 280 280 279 279 279
319 317 315 315 313 312 311 310 308 307 305 299 292 289 287 286 284 283 282 282 281 280 280 280 280 280 280 280 280 280 279 278 278 279 279 278 278 278 278 278 278 278 277 277
314 313 314 314 311 307 300 296 296 293 291 288 286 285 284 283 282 281 281 280 280 279 278 278 277 277 277 277 277 277 277 277 277 277 276 277 276 275 276 276 276 276 275 274
308 306 303 301 298 296 293 291 289 287 286 285 283 283 282 281 281 281 280 280 279 278 277 276 275 275 274 275 276 276 275 276 276 276 275 275 274 275 275 274 274 273 273 273
295 294 292 292 291 290 288 287 286 285 284 283 283 282 282 282 281 280 279 279 278 277 276 275 275 274 274 273 275 275 275 275 275 275 275 274 274 274 273 273 273 272 272 271
290 289 289 288 287 286 286 285 285 284 284 283 282 282 281 280 280 279 279 277 276 276 275 275 275 275 273 273 275 275 274 274 274 274 273 273 273 273 272 272 271 271 270 270
287 287 286 286 285 285 284 283 283 282 282 281 281 281 280 280 279 278 278 277 276 276 276 275 273 272 272 273 274 273 273 273 272 272 272 272 271 271 270 270 270 269 268 267
286 286 285 285 284 284 283 283 283 282 282 282 282 282 282 281 282 280 278 277 277 277 275 273 272 271 271 273 273 272 272 271 271 271 271 270 269 269 269 269 268 268 267 267
286 286 285 284 283 283 283 281 281 280 280 280 279 281 281 279 278 277 276 275 275 275 273 271 270 270 271 272 271 271 270 270 270 270 268 268 268 268 267 267 267 267 266 265
286 285 285 285 284 283 283 282 282 281 280 280 279 278 278 278 278 277 275 274 273 274 272 271 270 269 270 270 269 268 269 269 268 268 268 267 266 266 266 265 265 265 264 264
285 284 284 284 283 283 283 282 282 281 280 279 278 277 277 276 276 275 274 273 272 272 272 271 270 269 269 268 267 267 267 267 267 266 266 265 264 264 264 263 263 263 262 262
282 282 281 280 279 279 279 278 278 278 278 277 276 276 275 275 274 274 273 272 271 271 270 270 269 268 267 267 267 266 265 265 265 264 264 263 263 262 262 262 261 260 260 260

GFSNGP_925_thetae_081.txt.gz
Theta_e
320 319 320 322 321 320 320 321 325 324 324 322 319 318 318 318 319 320 319 318 316 320 321 322 326 329 330 331 331 331 329 327 326 327 325 324 321 323 321 320 316 314 312 311
320 320 320 321 320 319 320 320 318 318 319 317 317 315 317 317 318 318 318 317 318 317 323 325 328 326 326 326 326 326 320 318 318 318 319 318 316 315 313 311 312 311 309 307
322 321 321 320 319 319 320 320 318 318 317 317 317 319 318 319 317 318 318 319 319 321 328 326 323 320 318 316 317 315 314 312 313 312 312 311 310 309 310 309 308 307 307 307
323 320 325 320 318 319 319 319 318 318 317 317 317 317 317 316 316 319 320 320 320 325 321 318 317 316 314 314 313 313 312 312 312 312 310 308 308 307 306 306 307 306 303 301
323 324 324 322 319 319 319 319 319 319 318 317 316 317 316 317 317 319 319 318 321 321 318 316 315 314 313 312 311 310 309 309 308 307 305 305 304 305 306 304 301 300 300 300
319 325 326 322 320 319 319 319 319 319 318 318 317 316 316 316 319 319 319 320 320 318 316 315 313 313 311 309 309 307 306 305 306 305 304 304 305 303 301 300 301 300 297 296
320 321 322 321 320 319 320 318 318 320 320 319 319 317 315 317 318 317 318 320 319 317 315 313 312 311 308 308 307 307 306 305 304 303 302 301 301 301 302 302 299 296 294 292
317 319 323 319 319 320 318 318 320 321 321 321 318 316 316 316 315 315 316 318 318 316 314 312 311 310 308 308 307 306 305 302 301 301 301 301 302 300 298 296 295 294 293 290
320 319 321 322 322 320 321 321 321 322 320 319 317 317 316 315 314 313 314 315 317 314 314 313 312 310 308 306 304 303 302 301 301 301 301 299 296 295 295 295 295 292 291 290
318 318 316 320 321 318 317 318 319 319 318 319 318 316 315 313 311 311 312 312 313 311 310 309 309 307 303 302 302 301 299 298 297 296 293 293 292 291 290 291 290 289 289 288
320 320 318 318 319 318 317 316 320 319 319 318 317 315 313 311 310 310 310 309 308 305 303 302 303 303 302 302 301 297 294 292 291 290 289 288 289 288 289 288 288 287 286 286
318 318 317 317 318 318 317 318 319 318 318 317 316 313 312 310 309 308 306 305 303 302 296 289 290 291 294 295 293 291 289 288 288 288 287 286 286 285 284 283 283 283 281 280
314 317 320 318 316 316 317 315 317 318 318 317 314 311 310 309 307 305 303 300 292 289 287 287 286 286 288 289 289 288 287 286 286 286 285 286 286 286 284 283 284 282 282 281
318 317 319 318 315 313 312 313 312 312 311 311 310 308 306 305 303 299 293 289 287 285 285 285 284 284 285 286 286 285 285 286 286 285 284 284 284 284 283 283 283 282 281 281
319 316 315 313 311 311 310 309 309 308 307 305 305 303 298 294 291 288 286 285 285 284 283 283 282 283 285 286 286 285 284 283 283 282 281 281 281 281 281 281 281 281 280 280
312 314 313 312 311 310 308 307 306 304 297 293 291 289 288 286 285 284 283 284 283 282 282 282 282 282 282 283 282 281 281 281 280 280 280 280 280 279 279 279 279 279 278 278
314 314 312 311 307 303 300 297 295 292 290 288 287 285 285 283 283 282 281 281 280 280 280 280 279 280 280 280 280 279 279 278 278 279 278 278 278 277 277 276 276 276 276 275
303 303 306 303 298 294 291 290 288 287 285 284 283 283 282 282 281 280 279 279 278 278 278 277 277 277 277 277 277 277 277 277 277 276 276 276 275 275 275 275 275 274 273 273
297 296 294 293 291 290 288 287 286 284 284 283 282 282 282 281 280 280 279 278 278 277 276 275 275 275 275 275 275 275 275 275 275 275 275 274 274 274 274 273 273 273 272 271
291 290 289 288 287 287 286 285 284 283 283 282 282 281 280 279 279 278 278 277 277 276 276 275 274 274 274 275 275 275 274 274 274 274 273 273 273 273 272 272 271 271 270 270
288 287 287 286 285 285 284 284 283 282 282 281 281 280 279 279 278 278 277 277 276 275 275 274 274 272 273 274 274 273 273 273 272 272 272 272 271 271 270 270 269 269 269 268
286 285 284 284 283 283 283 282 282 281 281 281 280 279 279 278 277 277 276 276 275 275 274 272 272 271 272 273 272 272 272 271 271 270 270 270 269 268 268 269 268 268 267 267
285 284 284 283 283 282 282 281 281 281 281 280 279 279 279 279 278 277 277 276 275 274 272 271 270 271 271 271 271 270 270 269 269 269 268 268 268 267 266 266 267 267 266 266
284 283 283 282 282 281 282 281 281 280 279 278 279 278 277 276 275 275 274 274 273 272 271 270 269 269 269 269 268 267 268 268 267 267 267 266 265 265 265 265 264 264 263 263
284 284 283 282 282 282 281 280 279 279 278 277 277 276 276 275 274 273 272 272 272 272 270 270 269 268 268 267 267 267 266 266 266 265 264 264 264 263 263 262 262 262 261 261
283 282 282 282 282 281 280 279 279 278 277 276 275 275 275 274 273 272 272 271 270 270 269 268 267 267 266 266 265 265 265 264 264 263 263 262 262 262 261 261 260 260 259 259
280 279 279 278 277 277 276 275 276 276 274 273 273 273 272 272 271 271 270 269 268 268 267 267 266 265 264 264 264 263 263 263 262 262 261 261 261 260 260 259 258 258 258 258

GFSNGP_925_thetae_084.txt.gz
Theta_e
318 318 319 319 319 320 321 321 321 320 321 320 320 319 317 315 316 316 316 315 314 317 318 322 324 324 325 325 326 327 327 327 327 327 327 327 324 327 324 321 321 322 315 312
319 318 319 322 320 319 319 319 319 321 320 319 319 316 315 316 316 316 316 316 314 316 318 320 324 325 326 326 327 328 327 327 326 324 322 320 321 316 317 315 314 313 311 310
318 319 320 321 320 320 320 319 319 319 318 316 315 314 313 314 314 316 316 315 316 319 321 325 326 325 323 321 323 324 322 319 318 317 316 318 319 317 313 312 311 310 309 309
316 319 325 321 318 319 320 319 317 316 316 315 315 315 315 314 314 316 317 319 325 322 317 318 319 317 317 316 316 314 314 315 317 318 316 313 312 311 310 308 308 308 308 307
323 320 321 320 319 318 319 318 317 316 316 316 315 315 316 316 316 316 316 318 321 318 316 315 313 313 313 313 314 315 313 313 313 314 312 310 308 307 306 306 307 307 306 303
318 321 321 319 318 318 318 319 317 316 317 318 314 315 315 317 318 317 319 320 317 316 314 314 313 314 312 311 311 310 310 311 311 310 309 307 306 305 305 306 303 301 300 300
318 321 318 319 319 318 322 318 317 317 318 316 316 314 313 317 318 317 319 317 316 315 312 311 312 313 309 309 308 309 309 308 307 306 306 306 305 305 303 300 299 298 297 294
314 315 319 317 319 319 317 318 318 318 319 316 316 315 317 317 316 317 316 315 314 312 311 311 312 312 308 307 307 307 306 305 304 303 302 303 302 301 300 298 295 292 291 289
314 315 315 318 321 319 319 319 319 319 319 317 315 315 315 315 314 314 315 314 314 311 310 311 311 310 307 306 306 304 302 300 300 301 300 301 300 298 295 293 291 290 289 287
317 318 318 318 320 319 316 317 317 317 319 316 316 315 314 312 311 312 311 310 312 310 307 305 307 307 305 304 302 300 295 294 294 295 293 293 294 293 292 291 290 290 289 286
315 316 317 317 316 316 316 317 317 317 317 318 315 314 312 310 310 308 306 304 303 296 292 292 297 299 298 297 298 293 290 289 289 289 288 287 287 286 288 288 288 287 287 286
316 316 317 315 316 315 316 316 316 318 318 317 314 312 310 309 307 305 302 293 291 289 289 288 289 290 291 291 292 289 288 287 286 286 285 285 285 284 283 283 283 283 283 281
314 313 315 317 315 316 316 315 314 316 316 315 312 310 308 305 302 292 291 289 288 287 286 286 286 287 287 288 288 286 285 285 286 287 288 287 287 285 284 285 284 284 283 282
314 316 318 316 315 312 312 309 308 307 307 308 307 304 299 293 290 288 287 286 285 284 284 284 285 285 286 286 287 287 288 287 286 284 284 284 284 283 283 283 282 282 282 281
316 315 314 310 310 309 307 306 302 298 297 296 294 292 290 288 287 286 285 284 284 284 284 284 284 285 287 288 287 285 283 283 283 282 282 281 281 281 281 281 281 280 280 280
313 311 310 310 308 306 303 298 296 293 290 288 287 286 285 285 284 284 284 284 283 282 281 281 281 281 282 283 282 281 281 280 280 280 280 279 279 279 278 278 277 277 277 277
311 310 308 303 300 297 294 293 291 289 287 286 285 284 283 282 281 280 280 279 279 279 279 279 279 280 280 280 279 278 278 278 278 278 277 277 276 275 275 276 275 275 274 274
301 300 300 297 294 291 289 288 287 285 284 283 283 282 281 280 279 279 278 278 277 276 276 277 277 277 276 277 277 276 276 276 275 275 275 274 274 274 273 273 273 273 272 272
294 293 292 291 289 288 287 286 285 284 283 283 282 281 280 280 279 278 278 277 276 276 275 274 275 275 275 275 275 275 274 274 274 273 273 273 272 272 272 271 271 270 270 270
290 289 287 287 286 286 285 284 283 283 282 281 280 279 278 278 277 277 277 276 276 275 274 273 274 274 274 274 274 273 273 272 272 272 271 271 270 270 270 269 269 269 268 268
287 286 286 285 284 283 283 282 282 281 281 280 279 278 278 277 277 277 276 275 274 273 272 272 273 273 273 272 272 271 271 270 270 270 269 268 268 268 268 268 267 267 267 267
285 284 284 283 283 282 282 281 281 280 280 279 278 277 277 276 276 276 275 274 272 272 271 271 271 272 271 271 270 269 269 269 268 267 267 267 266 266 265 265 265 265 265 265
284 283 283 282 282 281 281 280 280 279 279 279 279 278 277 277 276 275 274 272 271 270 270 270 270 269 269 268 267 267 267 266 266 266 265 265 264 264 264 263 263 262 262 262
283 282 282 282 281 281 281 280 279 278 278 277 276 275 275 274 273 272 272 271 270 270 269 269 268 267 267 267 266 266 265 265 264 264 263 263 263 262 262 261 261 260 260 260
283 282 282 281 281 280 279 278 278 277 276 275 275 274 273 272 272 272 271 270 269 268 268 267 267 266 265 265 264 264 264 263 263 262 262 261 261 261 260 260 259 259 258 258
282 281 281 281 280 279 278 277 276 275 274 273 273 272 271 271 271 270 269 269 268 267 266 266 265 264 264 263 263 263 263 262 261 261 261 260 260 259 259 259 258 257 257 257
279 278 278 277 276 276 276 275 273 272 272 271 271 271 271 270 269 268 268 267 266 266 265 264 263 263 263 262 262 262 261 261 260 260 260 259 259 259 258 258 257 256 256 256

GFSNGP_925_thetae_087.txt.gz
Theta_e
317 314 315 319 319 318 319 319 322 321 322 320 317 317 317 316 316 314 313 312 315 318 319 320 321 322 323 324 324 322 322 321 322 323 324 324 325 325 324 325 324 318 316 316
317 316 315 316 316 320 320 319 317 318 319 317 316 316 316 314 314 314 314 313 312 314 315 317 319 321 322 323 324 324 323 323 324 324 325 326 326 324 322 322 319 318 316 316
319 317 318 320 319 318 318 318 317 318 318 318 317 315 315 314 313 313 314 313 312 311 315 317 320 322 322 321 322 324 324 322 320 322 322 322 322 322 321 318 318 316 313 312
319 317 323 318 316 318 319 319 318 317 316 315 315 314 312 311 312 313 313 312 319 321 318 317 318 320 319 319 319 320 318 317 317 318 320 320 319 318 317 315 312 310 309 307
321 320 318 319 318 318 319 319 318 317 316 314 313 314 316 314 313 312 313 315 318 317 315 314 315 316 316 315 315 315 314 315 315 316 316 314 312 311 309 308 307 306 305 304
318 321 320 316 317 317 319 322 317 316 318 315 314 316 314 315 316 315 317 316 314 313 312 312 313 315 315 314 314 313 313 313 313 312 311 310 309 307 305 306 305 305 303 302
318 320 316 315 316 318 324 320 316 317 315 315 314 315 313 315 317 317 316 313 313 313 311 310 311 311 311 311 309 310 311 310 310 309 308 307 305 304 304 303 301 298 295 293
315 315 316 314 320 320 316 319 318 318 317 315 315 314 315 317 317 317 315 313 312 310 309 311 312 312 308 307 308 308 307 306 304 303 303 302 302 300 299 297 295 291 289 287
315 313 311 313 320 319 318 318 319 317 318 316 315 315 316 315 316 316 314 312 311 310 308 309 310 311 307 305 305 302 300 298 298 299 297 297 297 295 293 292 290 288 286 285
316 314 313 313 314 318 317 317 316 316 317 315 315 314 314 313 314 313 312 311 309 304 300 299 303 303 301 299 299 298 295 293 294 295 293 293 293 292 290 289 289 288 287 284
314 313 312 313 314 316 317 316 316 315 317 316 315 314 312 312 310 307 301 297 296 294 293 293 294 295 296 297 299 293 290 288 287 286 286 286 287 287 288 288 289 288 288 287
312 312 312 313 312 315 315 315 316 316 316 316 314 311 310 306 302 296 293 292 290 289 289 289 289 289 290 290 291 289 287 286 286 286 287 288 287 284 284 284 284 284 283 283
312 311 312 313 314 313 316 313 314 315 316 312 311 308 302 294 292 290 289 288 288 287 287 287 287 286 287 287 288 287 287 287 288 288 287 286 285 285 284 283 283 283 283 282
308 312 315 315 315 309 308 304 303 301 302 302 298 295 292 290 288 287 286 286 285 285 285 285 285 285 287 288 289 288 287 286 284 284 283 283 282 282 282 282 282 281 281 281
308 308 312 311 308 306 301 298 295 294 292 292 291 290 288 287 286 285 285 284 284 284 283 283 282 282 285 286 285 283 282 281 281 281 280 280 280 279 279 279 279 278 279 279
311 310 309 307 305 301 298 295 292 290 289 288 288 286 285 284 282 282 281 282 281 280 280 280 280 280 282 282 281 280 280 279 279 278 278 277 276 276 276 276 276 275 275 274
309 308 304 300 297 295 292 290 289 287 286 285 284 283 282 281 280 279 278 278 278 278 278 278 278 278 278 278 278 277 277 276 276 275 274 274 274 273 273 273 273 273 272 272
297 302 300 296 292 290 288 287 286 285 284 283 282 281 281 280 278 277 277 276 276 276 276 276 276 276 276 275 275 275 275 274 274 273 273 272 272 272 271 271 270 270 270 269
292 291 290 289 288 287 286 285 284 283 282 282 281 280 279 278 278 277 277 276 275 274 274 275 275 274 274 274 274 273 273 272 271 271 271 270 270 269 269 269 269 269 268 268
289 288 287 287 286 285 284 283 282 282 281 280 279 278 278 277 276 275 274 274 273 273 273 273 273 272 272 272 271 271 270 270 269 269 268 268 268 267 267 267 266 266 266 266
287 286 285 284 284 283 282 282 281 280 279 279 278 277 277 276 275 274 274 273 272 272 273 272 272 271 270 270 270 269 268 268 267 267 266 266 266 265 265 265 265 264 264 264
284 284 283 283 282 282 281 280 279 278 278 277 277 276 276 274 273 272 272 271 270 271 271 270 269 269 269 268 268 267 267 266 266 265 264 264 264 264 263 263 262 262 262 261
283 283 282 281 281 280 280 279 279 278 278 277 277 277 276 275 273 272 270 270 269 269 268 267 267 267 267 266 266 265 265 264 264 263 263 263 262 262 261 261 260 260 259 259
282 282 281 281 280 280 279 278 277 276 275 275 274 274 273 271 270 270 269 269 268 268 267 267 266 266 265 265 264 264 263 263 262 262 261 261 261 260 260 259 259 258 258 258
282 281 280 280 279 279 278 277 276 275 274 273 272 272 271 271 270 269 268 268 267 266 266 265 265 264 264 263 263 262 262 261 261 260 260 260 259 259 259 258 258 257 257 256
281 280 280 279 278 278 277 276 275 274 272 271 270 270 270 270 269 268 268 267 266 265 264 264 263 263 263 262 262 261 261 260 260 260 259 259 259 258 258 258 257 256 256 256
278 277 277 276 276 275 274 274 273 272 271 270 268 268 269 268 268 267 266 266 265 264 263 263 262 262 262 261 261 261 260 260 260 259 259 258 258 258 258 257 257 256 256 256

GFSNGP_925_thetae_090.txt.gz
Theta_e
314 315 316 319 317 314 315 317 319 318 319 318 317 316 317 315 315 313 313 312 316 318 318 319 320 321 321 321 321 318 317 316 317 317 319 320 320 322 322 323 322 322 322 322
314 314 318 319 316 315 317 316 317 316 317 316 316 315 315 315 315 315 312 312 311 314 316 317 319 320 321 321 321 321 319 318 318 318 319 320 320 321 322 322 322 321 321 321
317 316 316 317 314 314 314 317 317 317 315 315 316 314 314 315 313 313 313 312 311 310 312 314 317 318 319 320 321 322 321 320 320 320 320 320 321 322 322 322 322 321 321 318
317 316 323 316 314 314 315 315 315 316 315 315 314 314 313 312 313 312 311 311 310 312 314 315 316 318 317 318 319 320 320 318 319 319 319 320 321 322 322 320 318 316 314 312
318 321 317 318 316 317 318 317 316 316 315 315 313 312 311 311 309 310 310 312 316 314 314 314 313 313 314 316 316 316 315 315 316 318 318 317 315 313 312 311 309 307 305 305
317 319 318 317 315 314 317 319 316 315 315 315 313 316 314 312 314 315 316 314 312 313 312 313 314 315 315 313 313 311 312 312 312 312 311 309 308 307 306 306 304 303 301 300
315 318 316 316 316 315 321 318 316 317 314 315 315 316 314 315 316 314 313 311 311 311 310 311 313 314 311 309 307 307 308 307 307 307 306 306 305 304 303 301 299 295 293 291
317 319 319 313 316 321 315 316 317 316 315 316 314 313 314 317 316 314 314 311 310 310 309 310 311 310 307 305 305 304 303 303 303 302 302 302 302 299 297 295 292 289 288 287
315 316 314 311 313 313 317 317 317 316 315 316 314 315 316 317 315 314 312 310 310 308 306 306 307 306 303 300 304 303 301 298 297 298 297 297 296 294 293 292 289 287 285 284
313 312 312 311 312 312 314 316 317 316 317 315 314 314 315 315 314 311 309 305 302 301 300 298 299 299 298 298 299 297 293 291 290 290 290 290 290 289 289 288 288 287 286 285
312 313 313 311 312 311 314 316 315 316 316 317 314 312 314 310 302 299 297 295 294 293 292 291 291 291 292 292 293 289 287 286 287 287 287 287 287 287 287 287 288 287 286 284
309 311 310 309 310 313 313 314 311 313 315 315 312 307 299 296 295 294 292 291 290 289 288 287 287 288 289 289 289 288 287 287 287 287 286 285 284 283 284 284 284 284 284 284
308 309 308 308 311 310 313 307 302 300 304 311 305 298 294 291 290 289 288 288 288 287 287 287 286 286 287 287 288 287 286 285 285 284 284 283 283 283 283 282 282 281 281 281
305 306 306 309 312 304 303 301 299 297 295 293 292 291 290 289 288 287 286 286 285 285 284 284 283 283 284 286 286 284 283 282 281 281 281 280 280 280 280 280 280 279 279 279
305 305 306 306 302 300 298 297 295 293 292 291 289 289 288 287 286 285 284 283 283 282 282 281 281 280 282 283 282 281 280 279 279 278 278 277 277 277 276 276 276 275 275 274
308 309 307 304 301 299 297 295 293 291 289 287 286 285 283 283 282 281 281 281 281 279 279 279 279 279 280 280 279 278 277 276 276 275 275 274 274 273 273 273 272 271 270 270
306 307 303 300 295 292 291 290 289 287 286 285 284 282 281 280 279 278 277 277 277 277 277 277 277 277 278 277 276 275 274 274 273 273 272 272 271 271 271 270 270 269 269 269
297 295 299 295 290 289 288 287 286 285 284 283 281 280 279 278 277 276 276 276 276 276 275 275 275 275 275 275 274 273 273 272 271 270 270 269 269 269 269 268 268 268 267 267
291 290 289 288 288 287 286 285 284 283 281 280 279 278 278 277 276 275 275 275 275 274 273 273 273 273 272 272 272 271 271 270 269 268 268 268 267 267 267 266 266 266 266 266
288 287 286 286 286 285 284 283 281 280 279 278 278 276 275 274 274 273 273 274 274 273 272 271 271 271 270 270 270 269 269 268 267 266 266 266 265 265 264 264 264 264 264 263
287 286 285 284 283 282 281 280 280 279 278 277 276 275 274 274 273 273 273 272 271 271 271 270 270 269 269 268 268 267 267 266 265 265 264 264 264 263 263 262 262 261 261 261
284 283 282 282 281 280 279 279 278 277 277 276 274 274 273 272 271 271 271 270 269 270 269 268 268 268 267 267 266 265 265 264 264 263 263 262 262 261 261 260 260 260 260 259
283 282 281 280 279 279 278 278 278 277 276 275 275 274 273 272 271 270 269 268 268 267 267 266 266 266 265 265 264 264 263 263 262 262 261 261 260 260 259 259 259 258 258 258
281 280 280 279 278 278 277 276 275 275 274 273 272 272 270 269 268 268 267 267 267 266 266 265 265 264 264 263 263 263 262 261 261 260 260 260 259 259 259 258 258 258 257 257
281 280 280 279 278 277 276 275 274 273 273 272 271 270 270 269 268 267 267 266 266 265 264 264 263 263 263 262 262 261 261 260 260 259 259 259 259 258 258 258 258 258 257 256
280 279 278 278 277 276 275 274 273 272 270 269 268 268 267 267 267 266 266 265 264 263 263 263 262 262 262 261 261 260 260 260 259 259 259 258 258 258 259 259 258 257 256 256
277 277 276 275 275 274 274 273 272 270 269 268 266 267 267 267 266 265 264 264 263 263 262 262 262 261 261 261 260 260 260 260 259 259 259 259 259 259 259 258 257 257 257 256

GFSNGP_925_thetae_093.txt.gz
Theta_e
311 310 310 313 313 313 317 320 319 317 318 319 319 320 321 321 319 317 317 315 320 322 323 323 322 322 321 321 320 319 319 318 318 317 317 318 317 318 319 319 320 321 321 321
312 311 312 312 313 316 318 319 319 316 317 318 319 318 318 319 318 319 319 317 316 319 321 322 322 322 322 322 321 319 319 318 318 317 317 318 319 319 320 321 321 321 321 321
314 314 315 318 315 317 319 318 317 319 319 317 317 317 319 319 318 317 318 316 316 315 317 320 321 321 321 321 321 320 319 318 317 317 317 318 318 319 320 321 321 321 321 320
312 315 318 314 314 317 317 316 316 318 318 317 318 318 317 317 317 317 316 316 315 312 315 316 317 317 317 318 320 320 320 318 318 319 318 319 319 319 319 319 318 316 314 313
311 314 315 309 317 317 319 320 317 315 316 317 317 314 316 314 313 315 315 313 316 316 316 316 316 316 316 316 315 316 317 317 318 318 318 317 315 313 312 312 310 307 304 304
312 315 314 313 316 317 317 321 319 318 319 317 317 320 319 314 315 318 316 316 315 315 315 315 315 315 315 313 311 310 311 311 312 313 311 309 308 307 305 305 301 300 296 295
310 312 314 314 316 318 320 322 318 319 319 318 317 318 317 318 315 312 311 312 313 313 313 313 313 311 309 308 306 306 307 308 307 307 306 306 304 303 302 299 297 292 290 289
310 314 313 314 317 318 317 316 316 318 318 319 317 316 319 317 315 313 311 311 311 310 310 309 308 307 305 302 301 302 302 300 299 298 297 297 297 293 292 290 288 286 285 284
314 311 315 313 313 313 316 315 317 319 318 317 316 318 317 315 313 311 309 307 306 305 303 303 304 303 299 298 297 297 295 292 291 292 292 291 291 290 289 289 287 286 285 284
312 311 312 312 312 312 312 314 315 317 317 317 318 316 315 313 307 304 303 302 299 297 295 294 294 295 295 293 293 292 291 290 289 288 288 288 288 288 288 288 287 286 284 283
310 309 311 312 311 310 312 314 315 315 317 316 315 308 304 302 299 297 296 295 294 293 291 290 290 290 290 290 291 290 290 288 287 286 286 285 285 284 284 285 285 285 285 284
309 308 310 311 309 309 313 310 308 312 316 314 308 303 298 295 294 293 292 291 291 290 289 289 288 289 289 289 290 289 288 287 287 286 285 284 284 283 282 282 282 282 281 282
307 306 309 308 308 309 311 305 303 303 304 303 300 297 294 293 291 290 289 289 288 287 287 286 286 285 285 286 287 286 286 285 284 284 284 284 284 284 282 279 278 279 279 278
306 306 308 306 307 306 304 301 298 297 296 295 294 292 291 290 289 288 287 286 285 284 284 283 283 283 283 284 284 282 281 281 281 281 281 281 281 280 280 280 278 276 274 274
306 305 306 306 304 301 300 300 298 296 294 293 291 290 288 288 287 285 284 283 283 282 281 281 280 280 281 281 280 279 279 278 278 277 277 277 277 276 276 275 274 273 273 271
307 307 309 307 304 301 299 296 294 291 289 288 287 285 284 283 282 281 281 281 280 279 279 278 278 278 278 278 277 276 275 275 275 275 274 274 274 273 273 272 272 271 270 269
307 309 306 303 298 295 295 293 291 289 287 286 284 282 281 280 279 278 277 277 277 277 276 276 276 276 276 276 275 275 274 273 272 272 272 271 271 271 270 270 270 269 268 266
297 297 298 301 294 291 289 289 288 286 284 282 281 280 279 278 278 277 276 276 275 274 274 274 274 274 274 273 273 272 272 271 270 270 269 269 268 268 268 267 267 267 266 265
292 291 291 291 290 289 287 286 285 282 280 280 279 278 277 277 276 276 275 274 274 273 273 273 272 272 271 271 270 270 269 269 268 267 267 266 266 266 265 265 264 264 264 264
288 288 287 287 286 286 285 283 281 280 278 277 277 276 276 275 275 274 274 274 273 272 271 270 270 269 269 269 268 268 267 267 266 265 265 264 264 264 263 262 262 262 262 262
287 286 285 284 283 281 281 280 278 277 277 276 275 275 274 274 273 273 273 272 271 270 269 269 268 267 267 267 266 266 265 264 264 263 263 263 262 262 261 261 261 260 260 259
284 283 282 281 281 280 279 278 277 276 275 274 273 273 272 271 270 270 270 270 268 268 267 267 267 267 266 266 265 264 264 263 262 262 262 261 261 261 260 260 259 259 258 258
281 280 280 279 278 278 276 276 275 274 274 274 273 273 273 272 271 270 269 267 266 266 266 266 265 265 265 265 264 263 263 262 261 261 260 260 260 259 259 258 258 258 258 257
280 279 278 278 277 277 276 275 274 273 272 272 271 270 270 268 267 267 266 266 266 266 265 265 264 264 264 263 263 262 262 261 261 260 260 260 259 259 259 259 259 258 257 257
279 279 278 277 277 276 275 274 273 272 272 271 270 269 269 268 267 266 265 265 265 264 264 263 263 263 263 262 262 261 261 261 260 260 259 259 259 259 259 259 258 257 257 257
279 278 277 277 276 275 274 273 272 271 270 268 267 266 266 265 265 265 264 264 264 263 263 262 262 262 262 261 261 261 261 260 259 259 259 259 259 259 258 258 258 258 257 257
276 276 275 275 274 273 273 272 271 270 269 267 266 265 265 265 265 264 264 263 263 263 262 262 262 262 261 261 261 260 260 259 259 259 259 259 259 258 258 258 258 258 258 258

GFSNGP_925_thetae_096.txt.gz
Theta_e
309 308 308 309 310 311 316 317 320 320 320 318 318 318 319 321 322 323 323 321 324 326 328 327 326 326 325 325 324 323 323 323 322 322 321 321 320 320 319 319 319 319 320 320
312 311 311 310 309 310 312 315 316 317 319 319 318 318 318 319 320 320 322 323 323 323 325 328 327 326 326 326 325 324 323 323 323 322 321 321 321 320 320 321 321 321 322 322
312 312 314 316 313 312 312 313 318 322 320 319 318 318 319 321 322 321 322 322 323 322 322 325 326 326 326 326 326 325 324 324 323 323 322 321 321 321 321 321 321 322 322 322
311 312 317 312 314 314 314 317 319 320 320 319 319 319 319 319 321 322 321 321 321 322 319 320 324 325 326 326 325 325 324 324 323 322 322 321 321 321 321 320 318 314 311 309
310 309 309 310 312 317 319 318 318 323 320 318 318 319 319 319 319 319 319 318 319 319 320 321 321 322 323 324 324 324 321 321 321 321 319 317 314 311 308 308 304 299 297 296
309 309 308 307 315 317 316 317 321 320 322 323 323 322 319 319 320 320 320 320 320 319 319 319 319 320 318 316 313 311 310 309 310 310 308 305 303 300 298 297 292 292 290 289
310 311 308 308 312 316 318 318 317 318 318 321 324 323 322 320 317 317 317 317 316 316 316 316 315 312 309 307 305 303 302 302 301 301 299 298 296 294 293 290 289 287 287 286
310 312 312 311 316 318 316 315 316 316 316 319 322 320 322 316 315 313 313 312 312 311 311 311 310 306 303 300 299 297 296 296 295 295 294 294 293 291 290 289 288 286 285 284
311 311 309 310 313 312 312 314 313 316 315 319 321 322 316 314 311 310 307 304 301 300 301 301 301 300 298 296 295 295 295 293 292 291 291 291 290 289 288 287 286 285 284 283
311 308 311 311 309 311 311 313 315 316 317 320 320 318 314 311 309 306 303 300 298 297 296 296 296 295 295 296 295 294 293 292 291 290 289 288 287 287 287 287 286 285 285 284
308 308 308 308 310 309 310 313 313 313 318 320 316 314 309 306 304 302 298 297 296 295 295 294 294 295 296 296 295 293 291 291 289 288 286 284 284 284 284 283 286 286 285 285
309 308 308 307 307 309 310 313 311 312 319 316 312 308 304 299 297 296 295 294 293 293 293 293 293 294 294 295 294 292 291 290 289 289 287 285 283 281 280 280 280 280 281 280
309 308 308 308 308 309 311 310 307 309 312 308 303 300 297 294 292 291 291 291 290 290 289 289 289 289 290 291 289 289 288 288 288 288 287 286 284 282 280 277 277 277 277 276
307 307 308 308 308 309 308 305 303 302 301 300 296 294 292 292 290 288 287 286 286 286 285 285 284 283 284 284 284 284 285 285 285 285 284 284 283 283 282 281 279 276 273 273
307 308 308 308 307 307 307 306 303 300 298 296 292 290 289 288 286 284 283 283 282 282 281 281 280 280 282 282 283 283 283 282 281 281 281 280 280 279 279 278 277 276 275 273
308 308 308 308 311 307 305 304 302 296 293 291 289 286 285 284 283 282 282 281 281 280 279 279 279 280 279 279 279 279 278 278 278 278 278 277 277 276 276 275 274 273 271 270
308 308 308 310 308 304 303 301 298 292 289 287 285 283 281 280 278 278 277 277 278 278 278 278 278 279 278 278 278 277 276 275 275 275 275 275 274 274 273 273 273 272 269 267
303 304 304 305 306 300 298 296 293 289 287 283 281 281 280 279 277 276 276 276 275 275 275 275 276 276 276 276 276 275 274 274 273 273 273 272 272 271 271 271 270 270 269 267
297 298 298 298 299 297 294 291 288 284 282 280 279 279 278 277 276 276 276 275 275 275 274 274 273 273 273 273 273 273 272 272 271 270 270 270 270 270 269 269 268 268 268 267
292 293 293 293 292 291 288 284 282 281 280 278 277 277 277 276 276 276 275 275 274 273 272 272 271 271 271 271 271 271 271 270 269 269 269 269 269 268 266 266 267 267 266 266
289 288 288 287 286 284 282 281 279 279 278 277 276 275 275 275 274 274 274 273 272 271 271 270 270 269 269 269 269 269 269 268 268 268 268 267 267 267 266 266 266 265 265 264
284 283 283 282 281 280 279 279 277 277 276 275 275 274 273 273 272 272 272 271 270 269 269 269 268 267 267 268 268 268 267 267 267 267 267 266 266 266 265 265 264 264 263 263
281 280 280 279 278 277 276 275 275 275 274 274 274 274 273 273 272 271 270 269 268 267 267 266 265 265 266 267 266 266 266 265 265 265 265 264 264 264 264 263 263 262 262 261
281 279 278 277 277 277 277 275 274 273 273 272 272 271 271 270 269 268 267 266 266 266 265 264 264 264 265 265 265 265 265 265 264 264 263 262 263 262 262 261 261 261 260 260
279 279 278 277 277 276 275 274 273 272 272 271 270 270 270 269 268 267 266 266 265 265 264 263 263 264 265 265 264 264 264 264 263 263 262 262 261 261 261 261 260 259 259 259
279 279 277 277 276 275 274 273 272 272 271 269 269 268 268 267 266 266 265 265 265 264 264 264 264 264 264 263 263 263 263 262 262 261 261 261 260 260 259 259 259 259 258 258
277 276 276 275 274 274 273 273 272 271 270 269 269 268 267 266 265 265 265 265 264 264 264 264 264 263 263 263 262 262 262 261 260 260 260 260 259 259 258 258 258 257 257 257

GFSNGP_925_thetae_099.txt.gz
Theta_e
308 308 309 310 311 312 314 316 320 320 320 320 320 319 319 320 319 321 323 324 326 328 329 330 330 329 328 327 326 324 324 324 324 324 324 324 324 324 323 323 322 322 322 322
308 308 309 310 310 310 310 312 314 316 318 317 317 318 319 320 319 320 320 322 324 325 328 329 329 329 329 328 328 326 326 325 325 324 324 324 324 323 323 323 323 322 322 322
312 308 308 313 310 309 309 309 310 314 315 316 319 319 318 319 319 319 321 321 322 324 325 327 328 328 328 328 328 327 327 326 326 325 325 324 324 323 323 323 322 320 316 317
311 311 314 311 312 313 314 313 311 310 310 316 318 320 319 319 319 319 321 322 322 323 324 324 327 328 328 328 328 328 327 326 326 326 325 325 324 319 317 318 315 310 306 304
310 310 309 308 310 312 315 317 316 318 319 322 323 321 320 319 319 320 322 322 321 322 322 322 324 327 328 328 328 328 327 327 326 326 320 312 309 305 303 303 298 294 293 293
311 310 310 308 314 315 317 321 320 319 320 322 322 327 322 321 321 323 322 322 322 323 323 323 324 326 327 327 322 314 311 308 308 309 306 301 299 297 294 293 290 290 289 289
311 312 310 309 309 313 318 320 318 317 317 318 322 323 323 324 322 322 321 321 321 322 323 321 319 315 310 306 304 302 302 302 300 299 298 295 293 292 291 289 288 286 285 285
311 314 315 309 311 314 316 315 315 315 316 318 318 318 323 319 317 317 316 316 316 316 313 311 309 305 302 300 298 297 296 295 294 293 292 291 290 289 288 287 286 285 284 284
312 312 309 309 313 313 312 312 315 314 316 316 317 318 317 314 312 309 307 306 305 304 302 302 301 299 297 296 295 294 294 292 292 291 291 290 289 289 288 287 286 286 285 285
310 310 310 310 311 308 309 310 312 313 314 317 318 319 315 311 308 305 303 302 300 299 298 297 297 297 296 295 295 294 292 291 290 289 288 288 287 288 288 288 287 287 286 285
310 309 309 308 309 310 310 310 310 312 313 318 319 318 314 308 304 301 299 298 297 297 297 298 297 297 296 295 294 292 291 290 288 286 285 284 284 284 283 284 285 284 283 283
310 309 309 309 309 309 309 310 312 312 317 315 315 311 305 299 298 297 296 296 295 295 296 297 297 296 296 296 294 293 292 290 288 286 284 282 281 280 280 279 279 279 279 278
308 308 308 308 308 309 309 311 309 311 312 308 302 300 296 294 292 291 291 291 291 292 292 293 294 293 294 293 292 291 290 289 288 287 285 284 282 280 278 277 277 276 275 275
307 307 308 308 309 309 309 309 306 305 303 299 295 293 292 290 288 286 285 284 284 285 286 286 286 286 287 288 287 287 287 287 287 287 286 285 284 284 283 281 278 275 273 273
307 308 309 309 308 308 308 309 307 304 298 294 291 289 287 286 285 284 283 282 282 281 281 282 283 283 284 284 285 285 284 284 284 283 283 283 282 282 281 280 278 277 276 274
308 308 309 309 309 310 309 309 308 301 295 291 289 287 285 283 282 281 282 282 281 281 281 281 281 281 281 281 281 281 281 281 281 281 280 280 279 279 278 277 276 274 272 272
307 307 308 311 310 309 308 307 305 299 292 289 286 283 281 279 279 279 279 279 280 280 280 280 280 280 281 280 280 279 278 278 278 278 278 277 277 277 276 276 275 272 269 268
305 304 306 306 307 307 305 302 297 292 289 285 282 281 280 279 278 277 277 277 277 277 276 277 277 278 278 277 278 278 277 276 276 276 275 275 274 274 274 273 273 273 272 269
299 299 301 301 303 305 302 298 291 286 283 281 280 279 278 277 277 277 277 277 276 276 275 275 275 275 275 275 275 275 275 274 274 273 273 273 273 273 273 272 272 271 271 270
293 293 295 296 296 297 293 288 285 283 281 279 278 278 278 277 277 276 275 275 275 274 273 273 273 273 273 274 274 274 274 273 273 273 273 272 272 270 269 269 270 270 270 269
290 289 289 288 287 286 285 284 282 280 279 278 277 276 276 275 275 275 275 274 273 273 272 272 272 272 272 273 273 273 273 272 272 272 271 271 271 270 270 270 269 269 268 268
286 285 284 283 282 282 281 280 279 277 277 276 276 275 275 274 273 273 273 272 271 271 271 271 270 270 271 272 272 271 271 271 271 271 271 270 270 270 269 268 268 267 267 266
283 282 280 279 278 278 277 276 276 276 275 275 275 275 275 274 274 273 272 270 270 269 269 268 268 269 270 270 270 270 269 269 269 269 269 268 268 268 267 266 266 266 265 265
281 280 278 278 277 277 277 276 275 274 274 273 273 273 272 271 270 270 269 268 268 268 267 267 267 268 269 269 269 269 269 268 268 267 266 267 267 266 266 265 265 265 264 264
281 280 279 278 277 277 275 275 274 273 273 272 272 271 271 270 270 268 268 267 266 266 266 266 267 268 268 268 268 268 268 267 267 267 266 266 266 265 265 264 264 263 262 263
281 280 279 278 277 276 276 275 274 273 272 271 270 270 269 269 268 268 267 267 267 267 267 267 267 267 267 267 267 266 266 266 265 264 265 265 264 264 263 262 262 262 262 261
279 278 277 277 276 275 275 274 274 273 272 271 270 269 269 268 267 267 268 267 267 267 267 267 266 267 267 266 266 266 265 263 263 263 264 263 263 263 262 261 261 261 260 260

GFSNGP_925_thetae_102.txt.gz
Theta_e
306 306 307 308 309 311 313 316 322 321 319 320 320 320 321 320 320 320 320 321 325 329 330 331 331 330 329 328 327 326 326 326 326 325 325 325 324 324 323 323 322 322 322 322
306 307 307 307 307 309 310 311 312 313 314 315 316 316 316 318 318 318 320 320 320 326 329 330 331 331 329 329 327 326 325 325 326 327 326 326 326 325 325 324 324 323 323 323
307 308 307 308 307 307 309 310 311 312 313 313 314 315 317 318 319 319 318 319 319 323 325 329 330 331 330 330 328 326 325 326 325 326 326 326 325 325 324 323 318 317 314 312
310 310 313 310 309 310 311 311 310 311 310 310 311 314 320 322 319 319 319 319 320 324 324 325 329 330 330 330 330 328 327 327 327 326 326 326 324 316 316 313 309 304 300 299
310 309 309 308 309 313 319 319 320 321 321 321 321 321 323 323 324 325 324 322 323 323 324 323 327 329 329 329 330 329 328 327 327 327 314 311 307 305 301 302 297 294 293 292
311 310 309 307 311 311 312 317 319 317 318 318 318 325 323 320 324 322 323 323 324 324 324 324 322 328 328 328 324 314 311 309 308 307 304 300 297 295 293 292 289 288 288 288
312 313 311 309 309 310 312 317 316 316 315 317 320 319 319 319 320 319 318 318 320 318 318 315 312 309 307 305 303 301 300 300 300 299 296 293 292 290 289 288 287 286 285 285
311 312 312 311 312 314 316 312 313 314 314 316 316 319 317 320 315 313 312 310 312 312 309 309 307 303 300 298 297 297 295 294 293 292 292 291 289 288 287 286 285 285 284 284
311 311 311 311 312 313 312 312 312 312 313 314 315 318 316 316 309 306 305 304 303 302 300 299 300 299 297 296 295 294 293 292 291 290 290 289 288 288 287 287 286 286 285 284
312 312 313 311 310 310 309 309 309 309 312 312 316 317 317 311 307 303 302 300 300 299 298 297 296 296 294 293 292 291 290 289 288 287 287 287 288 288 287 287 286 285 283 282
311 312 311 311 310 310 309 308 310 310 312 316 316 314 311 305 302 299 298 297 298 297 297 296 295 294 293 292 290 289 287 286 285 284 283 282 282 282 282 283 283 281 280 280
312 311 310 311 310 309 309 309 311 311 314 309 308 305 300 297 296 296 295 296 297 297 296 296 295 294 293 292 290 289 288 286 284 283 282 281 280 279 278 278 278 278 277 276
309 308 308 308 308 308 309 310 309 309 306 303 299 296 294 292 290 287 286 288 288 288 290 291 293 293 293 291 290 288 286 285 283 282 281 280 279 277 277 276 276 275 275 274
307 308 308 308 310 310 309 308 306 301 298 295 294 292 289 286 284 284 283 283 284 284 285 286 286 287 287 288 288 287 287 286 285 284 282 280 279 279 278 276 274 274 274 274
307 307 308 309 310 308 309 309 308 300 296 292 289 287 286 285 284 283 283 283 283 283 283 283 283 284 285 285 285 285 285 284 284 284 283 282 281 280 279 277 276 275 275 274
306 307 308 307 310 310 310 309 306 299 293 290 287 285 283 283 282 282 282 282 282 282 282 282 281 281 282 282 282 282 282 282 281 281 280 279 278 278 276 274 272 271 271 271
307 307 307 307 307 309 309 307 305 296 291 288 285 283 282 281 280 279 279 279 279 279 280 281 280 280 280 279 279 279 279 279 278 278 278 278 277 276 275 273 271 269 270 271
303 303 303 304 305 305 306 300 296 292 288 284 281 281 280 279 279 278 278 277 277 277 277 277 278 278 278 278 277 277 277 277 276 276 276 275 275 274 274 274 273 272 270 270
298 298 299 300 300 302 299 294 289 285 282 281 280 279 278 278 278 277 277 277 276 276 276 276 276 276 276 276 275 275 275 275 274 274 274 274 274 273 273 272 272 271 270 270
293 292 292 291 290 290 288 286 284 282 280 279 278 278 278 277 276 275 275 275 275 275 274 274 275 275 275 275 275 275 274 274 274 273 272 271 271 270 271 271 271 270 270 269
288 287 286 286 285 284 284 282 280 280 279 278 277 276 276 275 275 275 274 274 274 273 274 274 274 274 274 274 274 273 273 273 272 272 272 272 271 271 270 270 269 269 268 268
285 284 283 282 282 281 281 280 279 278 277 277 276 275 274 274 273 273 273 273 272 272 272 272 272 273 273 273 273 272 272 272 272 272 271 271 270 269 269 269 268 268 267 266
282 281 279 279 278 278 277 277 276 276 275 275 275 275 274 274 273 272 272 271 270 270 270 270 271 271 271 271 271 270 270 270 270 269 269 269 268 268 266 266 267 266 265 264
280 279 279 278 278 277 277 276 276 275 274 274 273 272 272 270 270 269 269 269 268 269 269 270 270 270 270 270 270 269 269 268 268 268 268 267 267 267 266 265 265 265 264 264
281 280 278 278 277 276 275 274 274 273 273 272 272 271 271 270 269 268 267 267 267 268 268 269 269 269 269 269 269 269 268 268 268 267 267 266 266 265 265 264 264 263 263 263
281 281 279 278 277 277 276 276 274 273 272 271 270 270 269 269 268 268 268 268 268 268 268 268 268 268 268 268 267 267 267 266 265 266 266 265 265 265 264 263 263 263 262 261
279 279 278 278 277 276 275 274 273 272 271 270 270 269 269 268 268 268 268 268 268 268 268 268 268 268 267 267 267 266 265 265 265 265 264 264 264 264 263 262 261 261 261 260

GFSNGP_925_thetae_105.txt.gz
Theta_e
305 305 305 305 305 306 307 310 320 318 317 318 320 321 321 320 319 315 316 316 317 322 325 328 327 327 327 326 326 325 324 323 323 323 323 323 322 322 320 319 322 322 322 322
305 303 303 304 305 305 306 307 309 310 311 312 311 313 313 317 316 316 317 317 316 317 322 326 328 327 327 326 326 325 325 324 324 323 323 323 323 322 323 323 323 323 322 321
307 304 304 305 305 306 306 306 307 308 309 310 309 309 319 324 324 325 324 324 321 316 317 321 328 328 327 326 326 325 325 324 324 324 324 324 323 322 322 322 319 317 315 313
306 307 308 306 307 308 307 307 310 319 319 318 317 319 322 323 322 322 322 322 322 322 321 321 328 328 327 326 326 325 324 325 325 325 325 325 323 318 315 311 308 305 303 302
310 310 309 307 309 314 314 316 318 318 317 317 316 318 320 318 320 319 319 319 319 317 315 314 319 328 328 326 325 325 324 324 325 325 318 314 308 304 300 301 296 293 292 292
307 310 307 308 311 309 309 316 316 316 316 316 315 318 319 318 317 316 315 313 316 313 311 309 307 324 326 325 319 311 312 313 315 312 308 302 299 296 294 293 290 289 288 288
307 306 309 309 310 310 311 314 314 313 315 314 314 314 315 316 314 311 310 308 308 306 304 305 303 304 303 302 301 300 301 302 304 303 301 297 293 291 290 288 287 286 286 286
306 305 307 309 311 312 313 311 312 312 312 313 312 313 316 314 309 307 305 304 304 302 301 301 302 301 300 298 297 296 295 294 293 292 291 290 290 288 287 286 285 284 284 284
305 306 311 311 311 312 310 310 310 309 309 310 311 316 315 309 305 303 302 301 300 300 299 298 297 298 297 296 296 295 293 292 291 290 289 288 287 287 286 286 286 285 284 283
311 311 311 312 311 310 307 307 307 307 308 312 314 314 310 304 302 299 299 299 298 298 297 296 294 294 293 293 292 291 290 289 289 288 288 288 287 287 286 285 284 282 281 279
311 311 312 311 310 309 308 306 307 311 310 310 309 304 303 300 298 297 297 298 297 296 295 294 293 292 291 290 289 288 286 285 284 283 283 282 281 281 281 282 281 280 279 278
312 310 310 310 308 309 308 310 311 312 304 302 302 300 297 294 292 292 291 290 293 294 294 293 292 291 289 288 287 286 285 283 282 281 280 279 279 278 278 277 277 277 277 277
307 308 308 307 307 308 310 307 304 301 300 298 295 293 291 289 287 286 286 286 287 288 288 289 290 289 287 286 285 284 283 282 281 280 279 278 277 277 276 276 276 276 276 276
304 305 307 308 309 309 305 301 298 295 294 293 290 288 287 285 284 284 285 285 285 285 285 286 286 287 287 286 284 283 282 281 280 279 278 277 276 275 275 275 275 275 275 275
304 307 308 307 308 309 305 301 298 294 291 289 287 286 285 284 284 283 283 284 284 284 284 284 283 284 285 285 285 284 284 283 282 282 280 279 277 276 275 275 275 275 274 274
306 306 306 306 305 307 307 300 296 292 289 286 284 284 283 283 282 282 282 283 282 282 282 281 281 281 282 282 282 281 281 280 280 279 278 277 276 274 273 272 272 272 272 272
302 303 303 303 303 303 304 301 295 290 287 285 284 283 281 280 279 279 279 279 279 279 280 279 279 280 280 280 280 279 279 278 278 278 277 276 274 272 271 271 270 271 271 271
296 297 297 297 298 300 297 292 289 287 285 283 281 280 280 279 278 278 278 277 277 277 278 278 278 278 278 278 277 277 277 276 276 276 275 275 274 272 271 270 270 270 270 269
292 293 292 291 293 291 289 286 284 282 281 280 279 279 278 277 277 277 276 276 276 276 276 276 276 276 276 276 275 275 275 274 274 274 273 273 272 272 271 271 270 269 269 268
287 287 287 287 287 287 285 283 282 280 279 279 278 278 277 276 275 275 275 275 275 275 275 275 275 275 275 275 274 274 273 273 272 272 272 271 271 271 270 270 269 268 268 267
285 284 284 284 283 282 281 280 279 279 279 278 276 276 275 275 275 274 274 274 274 274 274 274 274 274 274 273 273 273 272 272 272 271 271 271 270 270 269 268 268 267 267 267
281 278 279 280 279 279 279 279 278 277 277 276 275 275 274 273 273 272 272 272 272 273 273 273 273 273 273 273 272 272 272 271 271 271 270 269 269 268 268 267 267 266 266 265
279 278 277 277 277 277 276 276 276 276 275 274 274 274 273 273 272 272 271 271 272 272 272 272 272 272 272 271 271 271 271 270 270 269 269 268 268 267 266 266 265 265 264 264
279 278 278 277 277 276 276 275 274 273 273 272 272 271 271 270 269 269 270 270 271 271 271 271 271 271 270 270 270 269 269 269 268 267 267 266 266 265 265 265 264 264 263 263
279 277 277 276 275 274 274 273 273 272 272 271 271 270 269 269 268 268 269 269 270 270 270 270 270 270 270 269 269 268 268 267 267 267 266 266 265 265 264 264 263 263 263 262
279 278 277 276 275 275 275 273 272 271 270 270 269 268 268 268 268 268 268 269 269 269 269 269 268 268 268 267 267 267 267 266 266 266 265 265 265 264 263 263 263 262 262 261
278 278 277 276 275 274 273 272 271 271 270 269 269 268 268 268 268 268 268 268 268 268 268 267 267 267 267 267 266 266 266 265 265 265 264 264 264 263 263 262 262 262 261 261

GFSNGP_925_thetae_108.txt.gz
Theta_e
304 304 303 302 302 302 303 307 313 311 310 310 312 317 320 319 318 317 317 320 321 325 326 327 326 325 324 323 322 321 322 322 322 321 321 320 321 322 321 321 321 321 320 319
304 304 304 304 303 303 303 303 304 306 308 309 314 313 317 317 321 323 324 323 322 321 323 328 327 326 325 324 323 322 322 322 322 322 321 321 319 320 321 321 321 320 321 321
305 305 305 306 304 303 303 304 305 305 308 317 318 319 321 323 322 322 320 319 320 319 317 315 327 327 326 325 324 323 323 322 322 322 321 321 321 320 319 319 319 318 314 313
305 305 305 302 305 306 305 305 309 315 317 317 315 320 319 320 320 319 317 316 317 314 312 310 310 326 326 326 325 324 323 323 322 322 322 322 321 318 316 313 312 309 305 304
301 305 304 304 307 311 311 310 316 317 316 315 314 317 316 318 317 316 313 312 312 309 308 307 307 317 326 326 325 324 323 323 323 323 320 318 313 307 305 305 300 298 296 296
304 305 308 308 309 309 310 314 314 315 315 315 313 315 313 316 314 311 309 307 307 305 304 304 305 310 325 323 324 317 317 319 322 318 314 306 302 298 296 296 293 292 291 291
304 301 306 307 306 307 313 314 314 312 313 312 312 312 311 313 310 306 304 303 303 301 301 301 303 304 302 302 301 302 305 308 307 307 307 304 298 295 294 290 289 288 287 287
305 302 305 310 311 311 310 310 311 310 310 309 310 313 313 308 305 303 301 300 300 300 299 299 301 301 300 299 298 299 298 298 296 295 294 293 291 290 288 287 286 285 285 284
302 304 307 310 310 310 309 308 309 308 306 310 313 313 308 304 301 300 299 299 298 298 296 295 296 298 298 297 295 295 293 292 291 290 289 289 288 287 286 286 285 284 283 282
309 309 308 310 310 309 308 306 306 306 310 312 310 309 304 300 299 298 298 298 297 296 295 294 293 293 293 293 293 292 291 290 289 289 288 287 286 286 285 284 283 281 280 280
309 306 307 309 310 309 307 306 306 307 306 307 306 302 299 297 296 294 293 296 296 294 293 291 290 290 289 289 288 287 287 286 284 283 282 281 281 281 281 281 281 279 279 279
307 307 308 308 308 308 307 308 309 304 300 298 298 296 293 291 289 290 290 291 291 293 292 291 289 288 287 286 285 284 283 282 281 281 280 279 279 279 279 279 279 278 278 278
304 306 306 306 307 308 305 302 300 298 297 295 292 290 289 288 287 286 286 287 288 289 289 288 287 285 284 284 283 282 281 280 280 279 279 279 278 278 278 278 278 278 278 277
304 305 308 307 308 303 300 296 294 292 291 290 288 287 286 285 284 284 285 285 286 286 287 286 285 284 283 283 283 281 280 279 278 277 277 277 277 276 276 276 276 276 277 277
305 306 306 305 306 303 300 297 294 291 289 287 286 285 285 284 283 283 283 283 283 283 283 284 284 285 283 282 281 280 279 278 278 277 276 276 276 276 276 275 275 274 273 273
302 301 301 302 303 305 302 297 293 290 287 286 285 284 283 281 281 280 281 281 281 280 280 281 281 282 282 282 281 281 280 279 278 277 276 275 275 274 274 273 273 272 271 269
297 297 297 297 298 300 297 295 291 288 286 285 284 282 281 280 279 279 278 279 279 279 279 280 280 281 281 280 280 279 279 278 276 275 274 273 273 272 272 272 271 270 270 269
291 292 291 292 293 295 291 288 287 285 284 283 281 280 279 279 278 277 277 277 277 277 277 278 279 279 279 278 278 277 277 276 275 274 272 272 272 271 271 270 270 269 268 268
288 288 288 288 290 289 288 286 285 283 281 280 279 278 278 277 277 277 277 277 277 277 277 277 278 278 277 277 277 276 275 274 274 273 272 272 271 270 270 269 268 268 267 267
285 284 284 284 284 286 285 283 282 281 279 278 278 277 276 276 276 275 275 275 275 276 276 276 276 275 275 275 275 274 273 272 272 271 271 270 270 269 269 268 268 268 267 266
281 281 281 281 281 281 280 280 279 279 278 277 276 276 275 275 275 275 275 275 275 275 274 274 274 274 274 273 273 272 272 271 271 270 270 269 269 268 268 268 267 267 266 266
276 274 275 277 278 278 278 278 277 277 276 275 275 274 273 272 272 272 273 273 274 274 274 274 273 273 273 272 272 272 271 271 270 270 269 269 268 268 267 267 267 266 266 265
276 276 276 276 276 276 276 276 275 275 274 274 274 273 273 272 272 272 272 272 273 273 273 272 272 272 272 272 271 271 271 270 270 269 269 268 268 267 267 266 265 265 265 264
277 276 275 275 275 274 273 273 272 272 272 272 271 271 271 271 270 271 271 272 272 272 271 272 272 272 272 271 271 270 270 269 269 268 268 267 267 266 266 265 264 264 264 263
276 276 275 274 273 273 273 272 272 271 270 270 270 270 270 270 270 270 271 271 271 271 270 271 271 271 270 270 269 269 268 268 267 267 266 266 265 265 265 264 264 263 263 262
277 277 275 275 274 274 273 272 271 270 269 269 268 268 269 269 269 270 270 270 270 270 270 270 269 269 269 268 268 268 267 267 266 266 266 265 265 264 264 263 263 262 262 262
277 276 275 274 273 272 271 271 270 270 269 269 268 268 269 269 269 269 269 269 269 269 268 268 268 268 268 267 267 266 266 266 265 265 265 264 264 263 263 263 262 262 261 261

GFSNGP_925_thetae_111.txt.gz
Theta_e
302 303 302 302 302 302 302 304 305 302 305 306 306 309 312 318 318 317 320 322 322 320 325 325 325 324 323 322 320 320 320 320 319 320 321 322 322 321 321 320 320 320 319 319
304 303 303 303 303 303 303 303 302 302 302 303 307 310 314 317 318 318 318 319 319 317 317 318 320 324 323 322 321 320 321 321 319 319 320 321 321 321 321 320 320 319 319 318
301 304 303 303 301 303 302 302 302 302 302 309 316 316 318 319 319 320 319 317 317 314 313 313 312 314 325 323 322 321 321 321 321 320 319 319 320 321 320 320 319 319 318 318
304 304 301 301 301 302 304 304 307 303 307 316 315 318 318 318 318 317 315 314 314 310 309 308 307 310 318 324 322 321 321 321 321 321 320 319 318 318 317 316 315 313 311 310
298 302 300 300 300 306 311 311 312 308 315 314 314 317 316 317 316 313 311 309 308 306 305 305 305 307 320 324 323 323 322 322 321 321 320 318 314 311 310 310 306 303 301 301
301 302 299 302 307 307 308 311 313 313 314 314 313 318 315 314 310 307 305 303 303 302 302 303 303 307 316 321 323 323 322 323 322 321 319 313 311 305 302 303 298 296 293 292
302 297 302 303 304 308 307 313 310 312 312 311 312 311 311 308 305 302 301 300 300 299 298 299 302 304 305 304 302 306 313 318 318 314 311 309 305 303 300 295 292 290 288 287
305 300 302 307 309 311 311 310 310 311 309 308 312 314 308 303 301 300 299 299 298 298 297 296 299 300 301 301 299 301 304 302 302 301 299 297 295 292 291 289 287 286 285 285
303 302 305 307 309 310 311 308 307 307 306 310 311 310 305 302 300 299 299 298 297 296 295 294 294 296 296 296 296 295 294 293 293 293 292 292 290 288 287 286 286 285 285 284
307 307 306 308 308 309 310 308 304 307 309 308 308 306 302 300 298 296 296 297 295 294 293 292 291 291 292 292 292 292 290 289 288 287 286 286 287 287 286 284 283 283 282 282
309 306 306 307 306 306 306 307 306 302 300 301 301 299 297 295 293 293 292 293 294 292 291 290 289 288 288 288 288 286 285 284 283 282 282 282 281 281 280 280 281 281 281 281
306 305 305 305 306 306 306 303 303 301 297 294 295 294 292 290 289 289 289 290 292 291 290 288 287 287 286 285 285 284 283 282 282 282 281 281 281 280 280 280 280 280 280 280
304 306 306 308 304 302 300 298 296 294 293 292 290 289 288 287 286 287 286 287 288 288 287 286 285 284 284 283 283 281 281 280 280 280 280 280 280 280 279 279 279 280 279 279
302 305 307 306 304 299 297 294 292 290 289 289 288 287 286 284 282 282 282 283 284 284 285 284 283 282 282 282 281 280 280 279 279 279 279 279 279 279 279 278 278 278 277 277
299 300 300 301 303 302 298 295 292 289 287 286 285 285 284 284 283 281 281 282 281 281 282 282 282 282 281 280 279 279 278 277 277 277 277 277 277 277 277 276 276 275 274 275
295 295 295 296 296 299 298 295 292 288 286 285 284 283 282 281 280 280 280 280 280 280 280 280 281 281 281 280 279 277 277 277 277 277 276 276 275 275 274 273 272 271 271 270
293 294 293 292 292 294 293 290 289 287 286 285 283 282 281 280 279 278 278 278 278 278 279 279 279 280 280 279 278 277 276 276 275 275 274 274 274 273 273 272 271 270 269 269
289 288 289 289 290 290 289 288 287 286 285 282 281 280 279 278 278 278 277 278 278 278 278 279 279 279 279 278 277 277 276 275 274 273 273 273 272 272 271 270 269 268 267 267
285 285 285 286 286 288 287 286 284 282 281 280 279 278 277 277 277 277 277 277 277 277 277 278 279 278 277 277 277 276 274 273 273 272 271 271 271 270 269 269 268 267 267 266
282 281 282 283 282 282 283 282 281 280 279 278 277 277 276 276 276 276 275 275 275 275 276 276 277 276 276 276 276 274 273 272 272 271 271 270 269 269 269 268 268 267 267 266
278 279 278 278 278 279 279 280 279 278 277 277 276 276 275 275 275 275 275 275 275 275 275 275 275 274 274 274 274 273 272 271 270 270 270 269 269 268 268 268 267 267 266 265
274 273 273 274 275 275 277 277 277 276 275 275 274 274 273 273 273 273 273 274 274 274 274 274 273 273 273 273 272 272 271 271 270 270 269 269 269 268 268 267 267 266 265 265
275 274 275 274 274 273 274 274 274 274 274 273 273 273 273 273 273 273 272 273 273 273 273 273 272 272 273 272 272 271 271 271 270 270 269 269 268 268 267 267 266 265 265 264
275 275 274 274 274 273 271 272 272 272 272 272 272 272 272 271 271 272 272 272 272 273 272 272 272 272 272 271 271 271 270 270 270 269 268 268 267 267 266 266 265 265 264 263
275 275 274 273 272 272 272 271 270 270 270 270 270 271 271 271 271 271 271 271 272 272 271 272 272 272 271 271 270 270 269 269 268 268 267 267 266 266 265 265 264 264 263 263
276 275 274 273 273 272 271 271 270 269 269 269 269 269 270 270 270 271 271 271 271 270 270 270 270 270 270 269 269 268 268 267 267 266 266 266 265 265 264 264 263 263 262 262
275 275 273 272 272 272 271 270 270 269 269 269 269 269 269 270 270 270 270 270 269 269 269 269 269 268 268 268 267 267 267 266 266 266 265 265 264 264 263 263 263 262 262 262

GFSNGP_925_thetae_114.txt.gz
Theta_e
301 302 302 301 301 301 301 303 303 300 299 300 300 301 302 303 315 316 316 315 314 318 316 315 317 324 322 321 320 320 321 321 320 321 321 321 322 321 321 321 320 320 320 320
303 302 302 303 302 302 302 302 301 301 301 301 301 301 301 308 316 318 317 316 316 317 315 313 312 313 322 321 320 320 320 320 319 320 321 321 321 321 320 320 320 319 319 319
301 302 302 301 300 300 301 301 301 302 301 300 301 303 314 317 318 318 317 316 315 314 311 310 309 309 311 321 320 320 320 320 319 319 319 320 320 320 319 319 318 318 317 317
303 302 300 297 300 299 300 301 301 301 302 305 305 315 316 316 317 316 314 312 309 308 306 305 305 306 308 313 320 319 320 320 319 319 318 319 319 318 317 315 316 314 312 313
297 302 299 298 298 303 309 307 306 306 308 307 312 315 315 315 312 310 307 305 304 303 302 302 303 304 308 312 322 320 320 320 320 320 318 317 316 314 313 311 307 306 306 308
301 302 298 298 302 307 307 304 307 307 312 312 312 315 316 311 306 304 302 301 300 301 300 299 300 302 308 320 322 321 321 320 320 319 318 316 315 310 305 304 300 298 296 295
304 304 301 300 300 305 306 306 305 308 311 310 311 310 310 306 303 301 300 299 299 299 298 296 297 301 304 303 303 308 318 319 316 314 313 312 307 304 301 296 293 290 289 288
305 303 300 306 307 307 310 309 309 309 310 309 311 312 306 303 301 299 299 298 297 297 295 293 294 297 299 298 297 300 307 308 305 301 301 300 298 294 293 291 288 286 286 285
304 302 304 304 308 308 308 308 308 305 305 310 309 307 302 301 299 297 296 297 295 294 293 291 291 293 294 294 294 293 296 294 293 294 292 293 290 288 287 287 286 286 285 285
306 306 305 304 306 307 305 305 307 306 307 307 306 303 300 297 295 294 294 295 294 293 291 290 289 289 290 291 291 290 288 288 289 289 289 289 289 288 287 286 286 284 282 281
306 306 305 307 306 304 305 306 299 298 297 299 298 297 294 293 292 291 291 292 292 291 290 289 288 287 287 287 287 286 285 284 284 283 283 283 282 282 282 282 283 282 281 281
305 304 304 306 305 302 301 299 300 297 294 294 294 293 291 290 289 288 288 289 289 289 288 287 286 285 284 285 285 284 284 283 283 283 282 282 282 282 282 283 284 283 281 281
303 302 306 303 301 299 297 295 294 293 293 291 289 289 288 287 285 285 285 285 285 286 285 284 283 283 283 283 283 282 282 282 282 282 282 282 282 282 281 281 281 281 280 280
296 299 301 300 302 300 296 293 290 289 289 288 287 286 285 284 283 282 282 282 282 283 283 282 281 280 281 281 281 281 280 280 280 281 281 281 281 280 280 279 279 279 278 278
293 295 294 295 295 297 297 294 290 289 287 286 286 285 284 283 282 280 281 281 281 281 281 281 280 279 279 279 279 278 278 278 278 278 279 279 278 278 278 277 277 276 275 276
291 293 292 292 292 293 292 291 290 288 286 285 284 283 282 281 280 279 279 279 279 279 280 280 279 278 278 278 278 277 277 277 277 277 276 276 275 275 274 273 273 272 271 271
290 290 289 289 290 291 291 289 288 287 286 284 283 282 280 279 279 278 278 278 278 278 279 279 279 278 278 277 277 276 276 276 276 275 275 274 274 273 272 271 270 269 269 270
285 286 286 286 287 288 289 288 286 285 284 282 280 279 279 279 278 277 277 278 278 278 278 278 278 278 277 277 276 276 275 275 274 274 273 273 272 271 270 270 269 268 268 268
282 282 283 284 283 284 285 284 283 282 280 279 279 278 277 277 277 277 277 276 276 276 276 277 278 278 277 277 277 276 275 274 273 272 271 271 271 270 269 268 267 267 267 267
280 280 280 280 280 279 280 280 280 279 278 278 277 277 276 276 276 275 275 275 275 275 276 276 277 276 276 276 276 275 274 273 272 271 271 270 269 268 268 268 267 267 266 266
276 277 276 276 276 276 276 278 278 277 277 277 276 275 275 275 275 275 275 274 274 275 275 276 275 275 275 275 274 273 272 271 271 270 270 269 269 268 268 267 267 266 265 265
273 272 272 273 273 273 274 275 275 275 275 274 274 274 274 273 273 273 273 273 273 274 274 274 274 274 273 274 273 272 272 271 271 270 270 269 269 268 267 267 266 266 265 265
274 274 273 273 272 271 273 273 273 273 273 273 273 273 273 273 273 273 272 272 273 273 273 272 272 273 273 273 272 271 271 271 270 270 269 269 268 268 267 267 266 266 265 265
275 274 273 273 273 272 270 270 271 271 272 272 272 272 272 272 271 272 272 272 273 273 272 272 272 272 272 272 271 271 271 270 270 269 269 268 268 267 267 266 266 265 264 264
275 274 273 272 271 271 270 270 270 270 270 270 271 271 272 272 271 271 271 271 272 272 271 271 272 271 271 271 271 270 270 269 269 269 268 268 267 266 266 265 265 264 264 263
275 274 273 273 272 271 271 271 269 269 269 269 269 270 270 270 271 271 271 271 271 271 270 271 271 271 270 270 270 269 269 268 268 268 267 267 266 266 265 264 264 264 263 263
274 273 273 272 271 271 271 270 269 269 269 269 269 269 270 270 270 270 270 269 269 269 269 269 269 269 269 268 268 268 267 267 267 266 266 265 265 265 264 264 263 263 263 262

GFSNGP_925_thetae_117.txt.gz
Theta_e
301 302 302 302 302 302 302 302 302 302 301 301 301 301 302 302 303 304 315 317 316 317 317 315 313 311 311 319 321 320 321 322 322 322 321 322 321 321 321 321 321 321 320 321
303 301 301 302 303 303 302 303 302 302 302 303 302 302 302 303 305 313 317 318 318 317 315 311 309 309 308 310 321 320 321 323 322 321 321 321 321 321 320 320 320 320 319 319
299 300 301 301 301 301 301 302 302 301 301 301 302 302 303 306 313 318 317 315 312 311 310 307 306 305 307 308 311 320 320 321 321 320 320 320 320 321 319 319 319 318 317 318
301 301 300 299 300 300 300 301 301 302 302 303 304 304 305 316 317 315 312 309 307 306 305 304 303 303 303 306 311 320 320 320 320 319 320 320 320 319 318 317 317 315 314 313
301 301 299 299 299 299 300 301 306 307 309 309 310 308 312 314 311 308 306 304 303 302 302 301 301 300 302 307 313 319 320 320 319 319 319 318 317 316 314 312 308 308 306 306
301 301 301 299 305 306 306 302 308 306 307 311 313 313 312 310 305 304 302 300 300 300 300 298 297 298 302 303 307 320 320 320 319 319 316 314 313 308 304 304 300 298 297 297
304 304 304 301 304 304 301 306 309 307 305 310 312 312 309 305 303 301 300 299 298 298 296 295 294 296 298 298 296 298 311 319 318 316 313 309 305 303 301 296 294 292 290 289
305 306 304 306 306 307 308 306 306 308 307 308 311 308 305 302 300 298 297 297 296 295 294 292 292 293 294 294 293 296 300 306 308 307 305 303 301 295 294 293 289 287 286 285
306 303 303 305 305 307 308 307 306 308 309 310 309 305 301 299 297 296 295 295 294 293 292 290 289 289 290 290 291 292 295 292 294 296 294 295 293 291 289 289 288 286 286 284
305 307 307 304 305 306 306 306 305 301 302 303 301 300 298 297 294 293 293 293 292 291 290 289 288 287 287 287 288 290 289 291 291 290 290 289 289 288 288 287 286 285 284 283
305 304 303 305 302 303 301 301 298 297 297 297 297 295 294 292 291 291 290 290 290 289 288 287 286 285 285 286 286 286 286 286 286 286 285 285 285 285 286 285 285 283 282 281
304 300 301 300 296 297 298 298 296 296 295 293 293 292 291 289 288 287 287 286 286 286 285 285 284 284 283 284 285 285 284 284 284 284 285 284 284 283 283 283 283 282 281 281
298 297 299 298 300 297 296 294 293 292 292 291 289 288 287 287 285 284 284 283 283 284 283 282 282 282 282 283 283 283 283 283 283 284 283 283 283 282 282 281 281 280 280 279
293 295 296 296 297 296 294 292 291 290 289 288 288 287 286 285 283 282 281 280 280 281 281 280 280 279 280 281 281 281 281 282 282 282 282 282 282 281 281 281 280 280 279 279
291 292 292 293 293 293 292 292 291 290 288 287 286 285 284 283 282 280 280 280 280 279 279 279 278 278 279 279 279 279 279 279 280 280 280 279 279 279 279 278 278 278 277 277
289 290 289 290 290 291 291 290 291 289 288 286 285 283 282 281 280 279 278 279 279 279 279 278 278 278 278 278 278 278 277 277 277 277 276 276 276 275 275 274 274 273 273 272
287 287 287 287 287 288 289 289 288 288 286 285 283 282 281 280 279 279 278 278 278 278 278 278 278 277 277 277 277 277 276 276 276 276 276 276 275 274 273 272 271 271 270 269
283 283 284 285 285 285 286 286 285 284 283 282 280 280 279 279 279 278 278 278 278 277 277 277 277 277 277 277 276 276 276 276 275 275 274 273 272 272 271 271 270 269 268 267
281 281 281 282 281 282 282 282 282 281 280 279 278 278 278 278 277 277 277 277 277 277 276 276 277 276 276 276 276 276 275 274 274 273 272 272 271 270 270 269 269 268 267 267
279 279 278 279 278 277 278 278 279 279 278 278 277 277 277 276 276 276 276 275 275 275 275 276 276 276 276 276 276 275 274 273 272 272 272 271 270 269 268 268 267 267 266 266
276 276 275 275 275 274 274 275 276 276 276 277 276 275 275 275 275 275 276 276 274 274 275 275 275 274 274 275 274 273 272 272 271 271 270 269 268 268 267 267 266 266 265 264
274 272 271 272 272 272 272 273 274 274 274 274 274 274 274 274 274 273 273 274 273 274 274 274 273 274 274 274 272 272 271 271 270 270 269 269 268 267 267 266 265 265 264 264
274 273 273 272 271 271 271 272 272 273 273 273 273 273 274 274 274 275 274 272 272 273 273 271 273 273 273 273 272 271 271 270 269 269 268 268 267 267 266 266 265 265 265 264
274 274 273 272 272 271 271 270 271 271 271 272 272 272 273 273 272 271 271 272 272 272 271 271 272 273 272 271 271 271 270 270 269 269 269 268 268 267 267 266 266 265 265 265
274 273 272 272 272 272 270 270 270 270 271 271 271 271 272 272 271 270 270 271 272 271 270 271 272 272 271 271 271 270 270 269 269 269 268 268 267 267 266 266 265 265 264 264
274 274 272 272 272 271 271 271 271 270 270 270 270 270 270 270 270 270 270 270 270 270 269 270 270 270 270 270 270 269 269 268 268 268 267 267 266 266 266 265 265 264 264 263
274 273 272 272 271 271 270 270 270 270 270 270 270 269 269 269 269 269 269 269 269 269 269 269 269 269 269 269 268 268 268 267 267 267 266 266 266 265 265 264 264 264 263 263

GFSNGP_925_thetae_120.txt.gz
Theta_e
300 301 302 303 304 303 303 303 305 307 305 305 305 305 304 304 305 306 307 310 316 319 320 318 314 312 310 309 310 314 322 324 324 323 324 325 324 323 323 322 321 321 321 321
301 301 301 302 302 302 303 304 304 304 304 305 304 303 304 305 305 307 311 316 318 318 316 314 311 309 307 308 308 308 322 323 323 324 325 324 324 322 321 321 320 320 320 320
301 300 300 300 301 301 302 302 303 304 304 304 303 304 305 305 306 311 315 317 315 314 312 311 310 307 305 305 306 308 315 322 323 324 324 324 323 322 320 320 319 319 318 318
303 301 302 300 301 301 301 301 302 302 303 303 304 306 308 309 309 314 315 313 311 310 308 307 306 306 302 303 305 308 311 322 323 323 323 323 322 320 319 317 316 314 312 311
303 302 300 300 301 301 301 301 302 303 305 307 309 312 313 312 313 311 310 308 307 306 304 304 302 300 300 303 303 305 310 321 322 322 322 322 317 317 315 313 308 307 304 304
303 303 302 301 302 303 304 304 309 309 310 308 308 315 315 310 307 306 304 303 302 301 301 299 297 296 299 299 298 298 299 312 321 321 321 315 314 309 305 308 302 300 297 296
304 307 304 303 304 305 305 309 309 307 304 301 310 309 307 304 302 301 300 300 298 298 297 295 293 293 295 295 295 294 297 306 319 319 316 313 307 305 302 298 295 292 291 290
307 308 307 305 305 307 309 309 306 305 306 309 310 307 304 302 300 299 298 297 296 295 294 292 290 291 292 291 290 292 295 299 310 313 311 306 303 296 295 294 290 288 287 286
307 307 307 305 307 307 307 308 306 306 305 305 304 303 301 299 297 296 295 295 294 293 292 290 288 288 289 289 289 291 292 294 294 297 299 298 296 293 291 290 289 287 286 284
305 304 302 302 300 302 304 302 300 300 301 301 300 298 298 295 294 293 293 292 292 292 291 288 287 286 286 287 287 290 291 291 292 291 290 291 291 291 290 289 288 286 285 284
305 301 301 301 299 297 298 298 298 299 298 297 298 296 294 292 291 291 290 290 290 289 289 287 285 285 285 286 287 287 288 288 288 290 288 286 287 287 286 286 285 284 283 282
303 299 299 300 297 297 298 298 297 298 297 295 295 294 293 291 289 288 287 287 287 287 287 286 283 283 283 284 285 286 286 286 286 286 286 285 284 283 285 285 286 283 282 280
297 296 299 297 298 296 297 296 295 295 294 293 292 291 290 289 286 285 284 284 284 284 283 284 283 281 281 282 284 284 285 285 284 284 284 284 283 283 282 281 281 280 280 279
294 295 297 295 295 295 295 295 294 292 291 289 289 287 287 286 285 284 283 282 282 281 281 281 281 281 280 281 281 282 282 283 283 283 283 282 282 282 281 281 281 280 279 279
293 293 292 292 293 293 293 293 295 293 291 289 287 286 285 284 284 282 281 281 282 281 280 280 280 280 280 280 280 280 280 280 280 280 280 280 281 280 280 280 279 279 278 277
291 291 291 291 290 290 291 291 291 291 290 288 287 285 284 283 282 281 281 280 281 281 280 280 279 279 280 279 279 278 278 278 278 278 277 277 277 277 278 278 278 277 276 275
289 290 289 289 289 288 289 288 288 288 287 287 285 284 283 282 282 281 280 280 280 280 280 279 279 279 279 279 279 280 279 278 278 277 277 276 276 276 276 276 275 275 274 274
285 286 285 286 286 286 287 286 286 285 284 283 281 281 281 281 281 280 280 280 279 279 279 278 279 278 278 278 279 279 279 279 278 278 277 276 275 275 275 274 273 272 271 271
283 283 283 283 282 283 283 283 282 282 281 280 280 280 280 279 280 279 279 280 281 280 278 278 278 278 278 278 279 278 277 277 277 276 276 275 275 274 274 273 272 271 271 271
282 281 280 280 279 278 279 278 278 280 279 279 279 279 279 278 278 278 278 278 277 278 277 277 277 277 277 276 278 278 277 277 276 276 275 274 274 273 272 271 271 271 270 270
279 279 278 277 277 276 275 275 277 277 277 277 279 277 278 277 277 278 281 280 277 276 276 276 277 277 277 277 276 276 276 276 275 275 274 273 272 271 271 271 270 270 269 269
278 276 275 274 275 275 274 274 275 275 275 276 275 276 277 277 277 276 275 277 276 275 276 276 275 274 275 276 277 277 276 276 275 274 273 272 272 271 271 270 270 269 269 268
278 277 276 274 274 274 273 273 273 274 274 275 275 276 277 277 277 279 279 275 275 274 275 273 271 272 274 275 275 275 274 274 274 273 272 272 271 271 270 269 269 269 268 268
277 277 276 274 273 275 275 274 273 274 273 274 274 274 276 277 276 275 273 272 272 273 272 272 271 272 273 274 274 273 273 273 272 272 271 271 270 270 269 269 268 268 267 267
276 276 275 275 277 277 275 274 274 274 274 274 274 274 274 274 275 273 273 272 272 273 271 269 270 272 273 272 272 272 272 272 271 271 270 270 269 269 268 268 267 267 266 266
278 278 276 274 274 275 275 274 275 274 274 274 274 273 273 273 272 272 271 271 272 271 272 271 271 271 271 271 271 270 270 270 270 270 269 269 269 268 267 266 266 266 265 265
277 275 276 276 274 274 273 273 274 274 273 274 273 273 273 272 272 272 271 272 271 271 271 270 270 270 270 270 269 269 269 268 268 268 268 268 267 267 266 266 265 264 264 263

GFSNGP_925_thetae_123.txt.gz
Theta_e
303 302 301 302 303 305 307 307 308 309 310 313 310 307 307 306 306 306 307 308 311 314 318 319 318 316 315 312 313 312 312 317 324 325 327 326 325 325 325 325 324 324 324 324
302 302 302 301 301 303 304 304 305 306 307 307 307 306 305 305 306 307 307 309 313 317 316 316 315 314 313 311 308 310 310 314 320 324 325 325 325 325 324 325 324 322 322 321
303 302 302 301 301 302 302 303 304 304 305 306 304 304 305 307 308 308 308 315 315 315 314 313 311 310 309 308 307 307 309 311 314 324 324 326 325 324 324 323 321 320 319 318
305 303 304 302 302 301 302 302 302 303 303 304 305 308 309 309 309 310 314 314 313 313 311 309 308 305 303 304 306 305 305 307 312 322 325 325 325 323 321 319 317 315 313 312
304 304 304 303 305 304 305 304 303 304 305 307 309 309 309 313 314 313 311 310 309 307 306 305 302 300 300 302 302 302 301 302 305 320 324 325 323 318 317 315 309 307 305 305
305 307 305 305 304 305 305 307 309 310 310 309 308 310 311 306 305 304 304 303 303 303 302 300 297 296 298 298 297 297 295 296 301 306 323 321 316 314 308 308 302 300 297 297
307 309 305 308 307 306 308 310 310 308 306 304 304 306 305 303 302 301 301 300 299 299 298 295 293 293 294 295 293 292 293 294 298 305 317 318 312 309 304 299 296 293 292 291
308 310 310 305 307 311 309 308 307 306 302 300 304 304 303 301 299 299 298 298 298 298 297 294 290 290 291 292 290 290 291 293 295 306 311 311 307 299 297 295 291 289 288 287
307 306 305 302 302 301 302 306 303 302 301 303 302 301 299 298 296 296 296 296 296 296 295 294 290 287 288 288 288 289 291 292 293 297 299 303 299 294 292 291 290 288 287 286
305 303 301 301 299 298 297 297 299 300 301 301 300 299 298 296 296 296 295 294 293 293 293 292 289 287 285 286 287 288 289 291 292 293 291 292 293 293 292 290 289 287 285 284
306 302 300 301 300 299 299 298 299 300 299 298 298 296 296 295 294 293 291 290 290 290 289 289 288 285 284 285 286 287 287 288 290 290 289 286 286 287 288 289 288 286 284 283
303 300 299 301 298 298 298 297 297 297 297 297 295 294 294 292 290 289 288 287 286 286 286 286 286 284 282 283 285 286 286 286 287 287 286 285 284 284 284 283 283 282 282 281
298 297 298 298 298 296 296 296 296 295 294 293 293 291 290 289 287 286 285 284 284 283 283 283 283 283 282 281 283 284 284 285 285 284 284 284 283 282 282 281 281 281 280 280
296 296 297 295 295 294 295 295 296 294 293 291 290 289 288 287 285 284 283 284 283 282 282 282 282 282 281 281 281 281 282 282 283 283 283 282 282 282 281 281 280 280 279 279
294 295 295 295 295 294 293 294 294 293 292 291 289 288 286 286 285 283 282 282 283 282 281 281 281 282 281 280 279 279 280 280 281 281 281 281 281 280 280 279 279 278 278 278
294 295 294 294 293 293 292 292 291 291 290 289 288 287 286 285 284 283 282 282 282 282 281 281 280 281 281 281 280 279 279 278 279 279 280 280 280 279 278 277 277 276 276 276
292 292 291 291 291 290 290 290 289 288 287 286 285 284 284 285 284 283 282 281 281 281 281 281 280 280 281 281 282 281 280 278 278 277 278 278 278 278 278 278 278 278 279 278
288 288 288 288 287 287 288 287 286 285 284 283 282 282 282 283 283 282 282 283 282 280 280 280 280 280 280 281 281 281 281 280 279 278 277 277 276 276 275 275 275 275 275 276
286 286 285 285 284 283 284 283 282 282 281 281 281 282 281 281 281 281 281 281 282 281 280 279 279 280 280 280 280 280 280 279 278 278 277 276 276 275 274 274 274 274 274 274
284 283 282 281 281 280 279 278 279 280 279 279 281 281 281 280 280 281 281 279 279 279 279 279 280 279 279 280 280 280 279 279 278 278 277 276 275 275 274 275 275 274 274 273
282 281 280 278 278 278 277 277 278 278 278 278 279 279 279 279 278 279 283 281 278 279 279 278 279 280 280 280 280 280 279 279 278 277 276 276 275 275 274 274 274 273 273 272
281 279 279 277 276 277 276 276 276 276 277 277 277 278 280 281 280 278 277 279 278 278 278 277 277 277 279 279 280 279 279 278 277 276 276 275 275 274 274 273 272 272 272 272
281 280 279 277 277 277 277 277 275 276 275 276 276 277 278 279 278 280 280 276 277 276 276 275 275 277 278 279 279 278 278 277 276 276 275 275 274 274 273 272 272 272 271 271
281 280 279 277 277 279 278 278 276 276 275 277 276 275 277 280 278 277 275 274 273 273 273 274 274 276 277 277 277 277 276 276 276 275 274 274 273 272 272 272 272 271 270 270
279 279 280 279 279 279 278 277 277 277 277 277 277 277 276 276 277 275 275 274 274 274 273 273 274 275 276 276 276 275 275 275 274 274 273 273 272 272 271 271 270 270 269 268
279 279 278 277 277 277 277 276 277 277 276 277 276 276 276 275 275 274 274 274 274 274 274 274 274 274 274 274 273 273 273 273 273 273 272 272 271 271 270 269 269 269 269 268
280 277 278 278 277 276 275 275 276 276 275 276 276 275 275 274 274 274 274 274 274 274 273 273 273 273 273 273 272 272 272 272 272 271 271 271 270 269 269 269 268 267 266 265